GFSCGP_850_rhum_000.txt.gz
RH
22 29 27 23 24 23 23 26 33 30 27 36 38 42 33 24 23 21 20 20 19 20 20 19 18 20 23 26 26 26 25 30 30 32 33 35 35 36 37 37 37 36 37 36
29 26 21 25 25 23 24 30 30 33 32 37 40 37 25 26 26 28 26 27 23 21 21 21 22 22 24 25 25 25 25 27 30 32 32 33 35 37 38 39 40 40 41 39
30 21 23 24 29 32 30 27 30 35 38 36 39 31 33 23 24 26 27 26 24 21 21 22 22 23 23 25 26 27 27 28 29 31 33 34 36 39 40 41 42 41 38 38
25 20 25 31 28 30 37 25 31 39 46 46 39 41 37 37 25 29 25 24 24 24 23 24 23 24 24 26 26 28 29 30 33 36 39 40 41 43 44 44 40 37 38 39
25 23 30 36 30 30 38 40 42 40 48 46 48 46 37 36 30 27 28 23 24 24 24 25 25 25 26 27 29 31 34 37 38 40 41 43 44 44 43 41 38 38 38 39
40 26 27 28 29 35 38 45 44 53 54 63 50 48 45 41 35 33 30 29 27 26 26 29 30 30 31 36 39 40 40 40 42 42 44 44 42 39 37 32 28 26 28 34
50 42 40 32 40 40 49 54 64 63 74 70 51 50 42 34 32 30 30 27 28 31 32 32 33 37 41 41 42 44 46 46 46 46 43 38 35 34 31 26 23 24 37 43
68 52 45 38 37 42 47 56 76 58 86 80 58 52 43 33 33 30 31 36 39 41 42 42 44 43 43 46 49 49 47 46 44 41 38 37 39 40 36 30 27 32 50 48
79 56 46 42 44 40 45 66 53 78 96 90 72 55 41 44 47 38 44 44 42 41 40 40 41 44 47 49 47 47 42 39 41 40 41 46 41 37 34 39 34 48 54 52
56 68 49 48 40 41 47 47 66 85 89 88 74 70 63 55 53 56 51 47 48 47 46 47 47 47 50 56 47 44 48 44 46 45 44 47 52 45 43 42 44 56 56 60
49 60 49 46 52 55 59 68 66 68 84 93 96 76 55 54 50 57 50 54 53 52 51 50 52 54 58 55 50 53 47 39 38 47 59 69 57 50 42 49 59 62 66 65
56 70 76 50 45 52 53 56 62 83 71 90 93 79 44 44 49 46 51 55 56 56 52 51 56 61 65 56 64 63 52 53 61 72 72 59 56 52 64 62 63 71 69 66
49 71 76 47 50 51 58 59 62 75 82 81 94 73 48 48 49 49 55 57 58 55 53 53 52 63 66 60 71 76 67 71 73 68 61 58 53 72 63 67 67 71 72 81
49 68 61 72 54 58 72 69 67 72 90 78 80 64 53 52 57 56 57 58 59 55 56 57 63 72 62 65 77 73 67 75 65 61 62 59 75 87 66 73 73 75 81 95
62 74 71 70 68 71 73 78 78 87 80 88 68 76 64 62 59 60 59 62 61 63 66 65 78 68 56 64 62 48 70 67 61 66 69 75 98 96 86 78 81 93 97 96
73 80 82 86 83 86 93 82 84 84 84 87 82 86 59 50 65 64 59 61 68 73 80 84 63 60 63 53 46 69 69 57 73 77 90 97 96 98 99 94 94 92 89 90
74 91 98 86 89 90 72 57 75 68 68 68 68 54 52 68 70 66 68 72 80 91 83 80 72 56 51 68 76 69 62 69 77 87 97 86 84 89 88 74 64 63 65 61
98 95 96 98 88 96 56 48 49 61 58 56 62 64 64 67 64 66 67 67 85 87 83 59 52 73 78 79 65 70 83 82 80 84 83 74 73 65 61 51 44 44 46 49
83 98 97 98 94 79 64 53 46 57 62 50 60 67 66 62 67 64 77 90 99 96 84 61 73 84 74 55 66 88 88 80 77 76 77 67 65 59 52 39 42 51 57 58
93 91 94 99 99 96 64 48 47 61 86 63 62 63 62 66 92 78 100 96 90 63 53 68 80 57 47 58 89 86 79 69 70 75 81 63 57 46 40 42 47 54 58 61
99 98 97 93 98 89 66 54 53 85 74 59 62 69 72 85 96 99 99 83 54 51 67 75 54 48 54 80 86 81 77 75 78 80 66 56 42 42 43 47 54 58 62 63
67 79 94 97 98 94 54 60 70 62 58 65 71 77 98 99 98 95 67 46 40 51 70 72 55 52 68 86 89 96 97 88 77 68 55 45 48 50 52 56 60 67 72 71
84 72 77 84 84 55 56 67 55 62 76 79 86 100 98 99 97 58 46 53 56 63 75 68 67 62 79 80 77 70 64 70 70 56 48 50 55 62 67 72 77 78 80 81
80 74 89 76 68 72 66 64 76 90 99 100 99 98 97 73 51 60 65 64 64 72 77 75 76 71 65 57 61 57 60 66 60 48 49 56 66 73 76 84 92 91 87 84
87 80 88 90 75 77 72 78 90 92 95 98 91 72 62 60 61 61 66 53 58 71 71 76 78 67 56 54 64 63 60 63 53 50 53 66 76 83 78 89 97 96 91 90
79 88 93 83 70 94 89 92 94 94 94 96 54 52 52 53 63 64 56 53 58 63 68 75 76 77 70 73 67 58 57 63 59 58 61 77 86 88 78 85 89 92 91 90

GFSCGP_850_rhum_003.txt.gz
RH
20 23 26 26 26 24 24 25 30 27 29 33 37 31 22 25 26 25 23 20 19 26 23 21 20 19 24 38 37 26 25 30 33 32 32 32 32 33 35 36 37 38 39 40
25 28 23 26 26 23 26 29 26 29 31 34 33 26 27 25 30 34 32 27 23 22 21 21 21 23 25 26 27 26 28 29 30 31 31 32 33 33 35 38 38 40 40 39
30 22 24 23 30 33 31 27 30 33 33 34 32 27 29 26 26 26 28 26 24 23 22 23 22 23 24 26 28 29 30 30 31 34 37 39 40 40 40 40 41 41 39 36
25 23 30 33 33 33 37 30 38 38 41 36 36 32 31 32 24 27 26 25 26 25 24 25 26 27 28 29 30 31 34 38 41 42 42 42 44 46 44 40 35 29 25 22
26 28 34 37 32 34 39 41 43 40 43 41 40 32 34 33 30 28 30 26 26 27 27 28 28 29 30 33 36 40 43 43 42 43 42 42 42 41 37 31 25 19 14 13
40 33 31 32 30 36 40 41 40 46 45 49 46 40 41 36 34 32 30 33 30 30 31 34 37 44 44 44 44 43 43 43 42 40 38 41 40 35 30 24 19 16 15 16
44 40 40 34 37 38 43 40 46 54 59 52 47 44 39 36 34 34 36 42 40 40 38 37 43 46 45 44 44 44 44 43 41 42 39 37 34 31 27 24 22 20 18 23
58 44 43 42 40 42 50 49 61 52 61 59 52 48 44 40 40 42 46 48 46 45 46 46 45 44 44 44 47 47 46 43 46 43 37 34 32 32 29 29 27 22 26 38
65 50 45 46 45 40 46 59 52 69 89 79 56 48 41 38 39 45 48 46 48 47 47 46 46 46 47 50 49 48 48 47 43 31 33 40 52 53 43 37 34 34 41 59
58 59 48 45 41 42 43 46 54 67 75 70 52 57 43 44 42 46 44 52 50 47 44 42 41 42 46 54 56 53 52 52 47 50 60 71 65 52 46 45 51 53 60 72
50 55 45 46 52 54 52 55 61 60 72 80 90 52 46 43 42 43 44 52 51 48 48 46 47 49 55 66 66 55 61 70 59 64 73 63 51 50 52 61 63 61 71 76
56 64 58 47 48 51 50 52 52 62 61 73 82 59 41 42 39 43 43 50 52 52 52 54 53 55 62 69 62 55 70 68 68 73 58 53 58 61 66 74 69 76 83 72
51 65 57 37 45 44 54 55 60 66 74 70 86 57 40 46 42 44 48 52 54 53 54 59 58 62 76 73 66 70 52 62 66 58 56 61 67 74 91 82 82 86 87 89
50 64 55 50 40 51 64 64 61 65 79 65 66 54 46 43 47 49 55 57 55 54 57 67 70 69 75 65 63 53 50 64 61 48 51 69 87 92 91 91 92 95 97 97
62 74 69 64 61 65 64 65 67 71 68 80 61 60 52 49 54 54 59 56 57 60 69 80 84 77 70 60 56 57 71 65 52 60 73 84 85 94 99 97 96 87 68 57
71 71 81 85 76 74 84 69 71 71 71 73 69 71 50 55 60 65 63 63 68 83 91 83 74 67 59 54 64 77 57 58 73 74 80 92 85 81 71 62 59 49 42 44
74 85 92 77 84 82 73 51 68 63 60 56 62 45 54 53 64 59 62 72 91 95 91 85 72 51 51 80 80 51 54 78 79 70 80 72 65 59 58 56 48 36 36 41
98 90 95 95 85 82 47 49 48 55 52 50 53 54 60 62 64 70 86 92 99 98 94 65 42 56 82 73 50 50 73 83 75 66 73 76 64 54 51 41 38 40 42 46
82 95 98 96 84 74 56 49 52 58 50 51 60 63 65 67 74 75 98 98 97 94 51 47 61 76 65 53 53 67 77 78 74 70 79 76 61 52 40 42 44 46 48 50
85 87 92 99 99 93 62 46 50 58 69 62 63 65 67 69 95 75 100 99 92 54 55 57 70 71 58 54 60 78 82 85 90 92 80 68 55 44 50 52 53 56 60 66
98 96 93 90 93 81 61 56 52 84 87 66 66 70 76 82 99 98 100 73 65 59 58 63 76 74 64 61 73 81 88 85 95 71 77 65 48 52 56 62 65 71 78 78
65 78 90 94 96 93 52 56 77 72 77 79 82 95 99 99 100 96 68 61 65 57 47 66 75 76 72 69 61 57 48 58 66 72 69 54 50 55 65 74 76 86 90 89
82 70 75 81 78 54 52 59 75 86 95 95 97 93 100 97 69 63 61 60 58 50 44 47 70 72 78 67 53 43 46 55 63 61 58 50 52 60 75 85 86 96 98 98
77 67 87 78 72 62 62 77 85 85 83 93 93 87 68 67 63 51 43 51 58 52 46 52 58 67 78 61 51 51 62 62 58 60 53 56 60 73 87 92 87 97 100 100
73 80 86 87 72 75 73 82 86 98 98 97 70 54 55 54 42 42 51 61 58 50 52 55 61 76 80 74 73 78 75 70 54 60 58 63 68 86 96 86 87 92 94 96
85 84 94 85 74 88 92 94 99 96 80 54 53 41 35 31 31 49 46 42 46 55 57 53 72 85 86 79 84 67 61 58 54 65 64 66 83 96 93 86 81 82 86 84

GFSCGP_850_rhum_006.txt.gz
RH
17 13 17 19 18 17 16 16 16 15 20 26 24 17 16 18 18 19 19 18 22 28 33 38 33 23 27 35 55 54 53 25 28 37 38 40 42 43 46 46 37 39 40 41
14 20 18 20 20 18 18 18 18 20 23 27 21 19 17 19 22 23 20 21 23 25 26 32 33 35 43 50 51 43 34 30 31 36 33 36 40 48 40 43 40 40 38 34
16 19 20 20 23 24 21 21 27 27 24 24 22 22 19 19 21 22 23 24 24 24 27 31 36 35 32 31 34 35 32 32 34 40 49 49 49 48 48 47 42 33 30 22
20 23 24 23 28 28 25 26 31 30 28 23 25 22 25 19 20 21 23 26 27 28 29 32 35 40 30 30 32 34 38 43 43 42 44 42 52 51 43 47 52 37 28 14
25 25 26 28 29 30 32 34 33 32 28 29 26 22 27 22 23 23 24 28 31 33 37 42 45 47 52 51 45 48 56 48 43 43 45 51 53 58 60 58 54 44 40 30
26 28 27 29 27 29 31 33 33 33 33 39 34 29 30 28 28 25 28 34 39 41 39 47 50 51 54 58 48 46 51 55 45 48 47 42 55 67 61 54 48 45 48 47
27 30 28 32 28 30 26 29 35 47 45 40 34 31 36 30 28 30 33 37 43 48 48 46 48 49 55 54 45 45 46 56 60 54 54 51 48 58 59 57 55 56 52 52
33 37 35 34 36 36 35 36 47 49 46 38 32 31 33 30 32 35 37 40 42 44 47 47 47 49 56 53 46 46 51 59 59 53 48 37 57 67 66 64 59 52 57 56
39 37 33 34 33 34 35 43 39 55 78 62 33 34 32 29 29 31 34 38 41 42 43 45 47 51 58 66 67 60 54 57 60 62 68 51 71 73 55 42 43 66 63 76
42 43 36 33 35 35 33 36 42 40 70 44 24 26 26 36 33 32 32 36 39 41 42 44 46 49 59 62 67 63 66 70 74 79 71 71 62 57 50 65 77 81 88 95
35 39 36 37 39 39 40 42 42 38 48 49 51 28 31 30 30 31 33 34 39 44 46 48 51 53 58 67 71 74 77 80 80 74 73 74 72 74 76 82 87 93 95 90
43 46 36 33 40 40 38 40 38 44 47 52 60 45 29 30 31 35 34 38 43 48 48 48 53 59 67 72 75 75 78 69 54 57 75 80 81 81 83 90 98 100 100 99
42 46 34 35 42 39 43 40 43 48 55 61 72 45 27 30 28 31 38 42 46 49 48 49 55 65 72 72 74 67 57 61 78 73 73 75 85 87 92 99 100 100 99 98
48 45 41 28 28 34 36 34 38 43 66 52 50 40 31 28 30 33 40 49 48 50 52 60 72 73 73 74 66 57 82 82 70 75 77 79 86 99 92 86 98 97 96 94
47 48 48 40 37 36 42 42 37 42 46 60 48 39 34 33 35 41 48 51 52 54 68 71 73 76 73 68 70 78 83 71 65 84 79 85 87 85 80 77 74 72 68 58
51 55 64 58 47 41 49 41 39 43 43 45 45 45 34 38 47 51 52 53 56 70 76 81 81 64 56 60 75 85 68 71 88 81 83 81 81 76 70 67 61 56 55 58
61 69 74 84 61 63 78 51 39 38 42 41 50 38 42 45 51 54 58 64 80 89 89 68 73 53 60 70 87 68 65 75 85 81 79 81 83 68 63 56 51 55 59 63
94 80 91 96 91 84 45 34 35 40 38 33 35 41 49 52 54 52 78 90 99 98 80 65 59 55 63 72 71 68 66 71 76 78 78 85 77 66 58 55 57 60 60 64
65 83 97 96 71 52 44 39 42 44 44 39 47 53 58 58 54 58 95 96 99 88 76 67 60 58 63 72 70 71 69 70 72 74 83 86 72 69 56 56 60 63 66 69
70 78 86 88 94 82 44 39 45 45 56 56 71 84 86 67 83 86 97 98 72 71 65 57 50 55 67 78 75 79 76 72 68 75 86 76 75 66 59 63 66 71 69 72
93 95 92 85 94 67 42 48 51 81 78 75 84 91 93 87 95 100 98 80 59 56 54 52 48 49 61 69 74 81 72 65 64 72 77 78 75 62 64 66 68 72 74 88
62 82 94 93 96 94 48 47 83 66 76 90 92 90 88 90 98 79 60 52 48 51 50 46 47 50 56 65 72 75 61 58 70 73 74 78 72 66 68 69 70 75 79 92
63 55 55 66 64 43 48 59 68 79 85 90 95 88 91 83 64 53 48 46 47 50 47 47 54 59 57 60 71 70 58 67 81 78 78 76 72 72 73 73 80 82 84 96
51 54 68 70 55 49 60 65 83 95 98 93 86 79 72 62 52 49 46 45 49 46 48 56 58 56 60 65 82 85 84 91 92 82 75 73 72 75 80 83 86 81 96 97
54 53 60 70 62 63 62 88 94 94 96 82 78 70 58 48 47 45 44 43 44 48 54 59 59 60 58 62 87 97 99 93 81 72 71 77 85 89 91 87 85 95 100 94
57 54 83 93 76 75 87 93 95 99 86 70 64 54 48 47 48 44 41 43 47 52 60 60 64 70 71 74 83 99 96 95 76 57 81 87 85 99 100 86 88 94 94 84

GFSCGP_850_rhum_009.txt.gz
RH
12 12 14 15 14 12 10 11 11 11 14 16 16 12 13 15 14 15 14 15 15 15 25 36 34 35 41 52 48 47 47 48 46 42 42 38 39 42 46 48 56 59 52 36
10 16 14 15 15 15 14 14 14 14 16 18 16 14 14 15 17 16 16 18 21 25 27 31 36 38 41 50 53 51 50 47 43 42 48 48 47 49 52 50 52 51 52 50
15 16 16 17 17 18 17 18 22 21 17 15 17 17 16 16 17 18 19 19 20 23 26 32 37 44 49 50 48 48 51 54 53 49 48 49 47 46 46 50 53 54 59 52
17 18 19 18 21 21 21 20 23 22 20 20 16 20 19 16 18 19 22 22 23 24 26 29 36 42 52 55 55 54 54 53 54 43 54 58 56 56 59 58 57 57 51 47
22 21 22 23 24 22 26 25 24 23 21 20 18 16 24 16 20 20 23 25 27 30 32 36 40 45 51 58 61 57 55 56 59 59 60 63 66 67 64 60 57 55 48 52
21 21 22 24 22 22 23 25 25 26 23 30 23 21 23 21 23 22 25 29 32 33 36 39 42 44 51 58 60 58 54 52 60 66 66 67 64 58 61 58 57 52 57 54
22 24 22 25 24 24 21 24 35 41 38 37 25 21 30 24 22 23 27 30 34 39 39 38 40 42 49 53 56 57 52 52 53 60 64 60 59 64 63 62 60 63 57 58
25 36 26 24 28 29 26 28 44 42 38 30 23 22 27 23 27 28 29 31 33 37 39 40 41 44 46 51 53 61 61 56 52 58 63 65 68 70 69 69 72 69 67 70
29 32 25 27 25 26 28 33 28 44 56 52 22 21 24 24 26 26 28 30 32 34 35 37 39 41 46 51 53 61 63 60 59 65 69 74 75 74 75 76 74 72 75 74
28 36 26 26 27 27 29 26 39 34 60 38 19 18 26 31 26 26 24 26 29 31 33 36 39 42 46 49 53 58 64 61 62 67 71 72 74 78 76 73 74 76 77 80
24 28 29 26 29 28 30 33 34 27 36 44 39 26 24 22 25 26 27 27 30 32 36 38 42 46 52 51 57 60 65 70 69 69 71 73 74 74 72 70 72 86 86 92
32 33 34 23 29 30 29 30 30 42 37 39 50 42 23 23 24 26 26 29 33 38 39 40 42 48 55 59 60 61 74 74 71 68 66 64 64 66 65 72 83 89 92 98
32 37 35 27 35 31 31 30 30 35 45 49 66 43 23 24 28 24 27 32 36 42 46 48 52 53 57 61 65 70 69 70 72 68 64 60 61 67 75 82 83 87 84 80
43 32 34 36 26 22 27 25 23 30 51 48 42 33 24 23 25 28 31 35 44 46 47 54 58 59 62 70 69 60 60 67 67 66 61 61 69 72 73 80 79 70 64 60
36 42 37 33 26 24 27 28 27 27 28 42 40 34 28 28 31 34 38 40 43 46 54 63 64 65 67 58 49 54 63 64 61 65 61 64 67 68 69 70 64 60 56 53
38 51 55 48 30 28 34 28 26 26 29 30 30 33 26 31 34 37 46 50 49 58 71 76 64 59 51 47 50 54 61 55 59 63 62 62 65 80 75 64 58 50 50 52
50 56 58 70 53 57 77 44 28 28 28 35 44 33 29 34 44 51 58 55 67 77 85 72 61 53 50 46 47 52 56 53 56 57 60 58 74 83 71 62 49 48 51 54
72 64 84 93 89 88 39 26 27 30 30 26 27 29 37 48 51 54 68 73 77 78 76 62 57 50 44 40 42 46 62 50 54 56 57 66 74 79 67 58 49 50 51 56
48 69 90 92 64 47 38 35 36 40 42 30 39 47 55 58 56 56 78 78 82 77 62 53 46 39 36 37 41 49 54 55 58 67 59 62 73 84 66 54 52 53 55 58
57 68 76 89 90 80 45 33 38 37 55 50 57 61 77 65 71 52 74 77 72 57 44 42 41 41 37 36 38 41 42 46 62 68 53 64 67 71 69 57 55 55 55 60
91 90 92 80 92 62 35 40 43 64 70 64 73 81 74 67 64 75 75 58 46 40 38 38 36 35 36 40 41 40 38 43 58 66 60 71 81 76 63 56 56 55 59 74
68 88 94 82 95 87 40 41 72 52 56 74 84 87 79 70 66 59 49 42 39 36 35 33 33 35 39 38 40 41 37 42 61 72 73 84 88 74 58 58 55 62 66 84
51 49 56 59 54 35 45 48 61 62 74 81 94 96 94 58 51 47 42 38 37 35 31 31 33 39 39 41 42 42 58 76 95 97 98 98 88 71 57 57 57 64 73 88
40 34 56 60 44 41 48 56 74 87 88 91 93 82 59 51 45 40 39 37 32 31 32 33 38 40 43 46 49 54 81 97 91 97 94 86 71 63 63 60 64 67 82 97
47 42 50 57 45 46 49 75 84 87 95 96 70 56 55 45 41 40 37 32 33 36 36 41 43 43 47 53 60 66 88 89 97 97 81 73 69 67 68 69 74 79 95 92
47 46 66 73 55 67 72 83 86 80 83 64 57 52 46 44 40 36 34 37 38 40 44 42 42 48 57 67 76 88 98 100 98 91 83 81 90 80 86 77 78 88 88 88

GFSCGP_850_rhum_012.txt.gz
RH
11 13 17 15 13 11 10 10 10 12 13 13 12 12 12 13 12 14 14 14 14 24 32 36 37 36 38 43 45 52 55 48 49 47 46 42 41 43 46 50 52 52 52 51
10 15 14 12 12 12 11 12 12 12 13 13 14 12 13 14 16 15 16 17 24 27 31 36 41 43 50 52 53 51 50 47 43 42 47 46 47 47 49 52 51 54 55 55
19 16 13 14 15 16 15 15 22 20 16 14 14 16 16 16 17 18 19 20 24 27 33 38 46 50 49 50 49 51 52 50 45 46 50 51 48 48 48 47 50 57 60 64
17 15 16 16 18 20 20 21 21 19 19 20 14 21 18 18 19 20 21 23 24 25 28 35 44 53 55 53 52 54 53 52 51 44 46 49 59 61 64 66 65 64 61 52
20 19 20 21 22 19 24 22 21 20 21 19 17 21 22 18 21 23 24 26 28 32 34 38 44 50 57 60 59 56 53 55 58 59 62 68 69 68 60 61 60 61 57 55
19 18 21 22 19 19 21 23 21 22 24 42 20 21 36 24 24 24 26 29 31 32 36 39 42 47 54 59 60 58 54 52 52 57 63 60 60 61 64 66 65 62 61 51
20 22 21 20 24 22 19 24 46 59 53 52 24 22 32 24 21 23 27 31 35 38 38 38 39 42 48 52 54 54 56 58 55 52 59 63 66 70 71 71 70 66 59 70
25 37 23 21 25 26 24 26 60 54 61 44 20 22 31 24 25 26 28 30 32 35 37 38 39 41 43 45 48 52 59 61 58 58 63 69 74 75 74 74 74 69 71 72
28 31 22 22 22 22 29 34 23 43 56 60 24 28 26 24 25 24 26 27 28 30 32 34 37 38 41 44 47 52 55 62 62 64 66 69 72 74 76 77 71 67 76 77
23 35 22 20 23 24 25 22 39 49 62 46 24 22 40 30 28 28 23 25 27 29 30 34 37 40 44 50 52 55 59 61 67 69 68 68 71 73 74 71 68 72 76 72
24 26 28 23 26 27 28 29 31 27 42 52 50 31 20 23 24 25 25 25 30 32 34 37 42 46 52 55 58 60 60 66 68 69 70 67 65 64 65 65 70 77 70 70
27 30 48 23 24 22 24 27 28 62 44 57 58 42 22 22 24 28 28 28 34 40 44 46 50 55 55 57 63 64 67 68 68 70 68 64 61 60 66 70 76 74 80 74
33 39 51 33 34 27 24 24 25 34 56 56 72 48 22 26 34 30 29 31 40 42 42 47 54 58 58 59 62 69 64 58 63 64 60 61 58 63 68 66 74 78 75 67
44 29 32 43 28 23 25 22 20 25 67 57 52 36 28 28 32 32 33 36 40 43 48 55 60 61 61 61 56 54 50 54 65 61 58 60 59 64 65 67 69 71 65 60
34 41 38 33 26 25 25 26 25 27 28 43 38 29 26 30 30 42 46 46 47 50 55 61 69 64 57 54 49 47 48 51 63 71 75 59 61 62 66 69 74 67 58 51
36 60 59 52 27 31 36 31 29 27 24 25 29 32 26 32 43 48 52 53 56 60 67 68 64 58 51 51 49 44 42 46 71 73 80 70 75 76 79 65 71 64 51 51
50 65 70 74 56 64 83 50 28 28 26 29 45 34 36 43 47 47 52 58 66 66 66 68 57 53 48 41 36 36 39 44 52 54 58 71 80 79 90 78 69 68 55 53
69 69 89 91 87 80 35 27 27 30 27 26 26 34 44 50 52 51 67 69 68 68 67 61 49 42 40 38 37 35 37 38 38 42 58 76 90 84 72 78 69 61 56 53
44 77 91 99 68 49 40 34 39 44 46 31 42 49 55 56 53 59 70 67 67 64 53 40 35 36 36 34 35 38 38 38 39 38 57 79 80 79 74 73 68 62 52 55
53 72 84 97 89 77 46 32 37 37 60 53 58 61 65 57 76 58 64 63 52 41 36 33 33 32 32 34 38 36 38 37 37 65 75 82 85 92 78 84 69 57 56 67
91 84 92 88 82 72 36 36 40 61 74 62 70 70 73 72 74 60 57 47 39 35 33 32 29 30 32 36 36 38 39 41 56 76 82 94 87 97 77 67 58 57 62 67
84 93 93 82 94 85 38 38 63 61 61 68 68 82 87 88 73 48 45 40 36 34 31 28 28 30 34 36 38 42 45 51 71 78 82 84 97 96 82 68 63 63 62 70
55 61 69 67 71 43 39 50 62 67 70 80 78 81 83 87 51 46 40 37 36 31 29 31 32 36 37 40 42 49 58 66 82 75 88 88 91 82 74 67 59 62 68 77
33 28 70 64 44 39 41 44 70 79 81 86 86 76 76 51 48 42 39 36 33 32 34 36 39 39 41 42 51 61 70 77 86 89 86 89 74 69 66 66 67 71 75 73
51 40 46 54 42 42 55 72 82 84 89 84 76 58 51 46 43 40 35 34 36 37 40 42 41 42 49 52 63 75 81 89 86 91 87 75 82 78 78 76 78 81 84 86
48 45 65 73 51 59 69 85 81 79 87 85 55 51 47 44 38 34 36 38 39 42 42 43 46 53 59 69 76 82 89 82 92 85 78 87 81 79 85 88 85 88 87 91

GFSCGP_850_rhum_015.txt.gz
RH
14 24 25 18 14 13 14 15 22 18 14 14 14 16 19 18 16 18 30 31 37 39 39 40 48 43 46 58 68 72 66 53 53 55 53 50 46 45 50 52 52 52 51 51
18 24 16 14 14 15 14 20 26 19 15 14 15 17 22 21 23 25 31 37 39 43 44 46 48 53 55 52 52 55 55 51 45 45 45 46 46 47 47 48 52 52 56 59
26 17 13 15 24 24 24 29 27 24 20 17 18 23 25 23 23 25 28 32 33 37 42 43 49 51 50 50 50 49 49 49 47 45 47 47 45 44 48 49 54 64 64 61
21 16 19 19 25 24 33 28 26 24 26 31 20 38 28 27 30 30 32 31 35 42 46 48 46 43 44 49 50 50 46 44 46 45 45 48 56 60 64 68 63 56 54 57
22 26 29 29 25 22 30 23 26 25 31 30 28 38 30 29 36 35 32 31 34 37 41 46 46 46 50 49 48 47 52 52 54 53 54 62 65 59 60 63 64 64 64 63
22 21 24 25 22 20 22 29 32 31 37 60 37 37 50 42 35 36 34 33 35 37 38 40 43 47 47 50 51 52 54 57 57 58 61 60 61 64 67 67 68 68 67 60
26 27 23 21 29 25 27 42 71 71 77 73 47 40 50 38 30 33 40 38 38 38 40 42 46 50 50 50 52 55 56 55 57 56 63 66 67 70 72 73 72 72 56 54
42 46 29 26 28 30 34 38 75 64 82 68 28 45 46 34 30 32 33 33 36 37 38 39 38 40 44 48 49 50 52 56 61 63 62 67 71 71 73 73 69 59 58 71
45 38 26 24 24 26 34 42 25 60 61 79 46 41 34 31 31 29 28 32 37 38 39 39 42 42 45 48 52 54 57 60 63 65 67 69 70 70 68 64 67 68 74 76
29 40 24 22 24 25 29 24 55 66 63 54 42 51 61 42 48 38 29 32 33 38 43 44 47 50 51 54 56 58 60 61 65 70 69 68 66 65 64 67 68 70 70 66
38 43 33 24 32 35 38 40 39 40 64 74 78 50 33 44 45 42 36 36 41 43 45 46 49 51 52 54 58 61 64 67 67 64 65 65 66 63 62 60 62 64 52 41
31 46 57 38 26 23 25 34 41 75 57 79 82 60 30 44 37 37 39 42 42 42 44 47 49 53 58 56 60 58 56 55 58 57 60 65 64 62 59 58 62 58 48 66
43 44 73 53 43 34 24 28 34 61 70 58 74 63 31 31 38 37 36 41 43 45 52 58 60 58 59 61 55 50 50 51 50 50 63 65 63 76 85 77 65 62 66 67
47 38 50 66 38 31 30 31 27 53 85 72 72 51 36 49 48 50 48 48 52 57 59 59 52 63 63 56 50 50 49 45 42 48 57 56 61 76 84 78 80 74 78 69
47 60 51 45 37 34 34 37 36 36 40 59 51 48 42 57 54 53 53 54 59 62 61 61 62 61 53 52 48 40 37 37 40 48 47 57 67 83 82 83 90 94 76 59
52 79 55 53 50 51 51 48 43 38 36 35 37 41 48 49 51 52 59 65 67 64 65 55 57 55 52 44 41 38 39 38 38 38 39 48 62 70 76 90 98 83 67 55
68 74 84 86 70 80 73 48 40 35 34 33 46 47 57 60 60 68 70 68 67 64 59 52 49 47 37 38 38 38 37 37 37 38 39 58 65 60 79 96 75 86 78 60
71 83 96 90 78 63 54 35 38 44 42 42 55 62 61 58 68 70 69 66 60 56 46 43 37 35 34 33 34 37 37 35 36 37 42 51 56 62 72 71 98 77 75 60
63 89 94 96 91 60 49 40 45 50 55 62 69 66 65 60 62 66 62 54 51 44 39 35 33 30 30 31 35 35 35 37 40 46 52 56 63 72 97 99 93 94 70 58
78 81 87 98 92 81 59 43 38 41 80 64 68 75 73 64 89 78 62 50 45 39 36 32 28 29 30 32 34 35 37 43 48 53 62 65 66 92 82 84 80 69 61 66
97 91 92 92 90 80 62 41 40 67 69 71 71 73 73 80 74 71 52 44 41 37 35 30 30 32 34 35 34 41 45 49 57 61 67 75 70 84 92 92 87 70 65 64
86 95 94 86 86 94 42 44 58 62 68 70 71 73 79 77 69 62 45 42 38 36 32 32 34 35 37 38 43 49 54 60 64 68 74 78 78 84 88 81 68 64 65 68
73 81 90 77 80 48 40 41 47 52 62 74 75 73 70 68 70 48 44 40 36 35 36 37 39 41 40 44 51 57 63 68 70 68 78 79 82 76 74 72 71 71 72 76
46 50 78 72 58 49 42 52 56 63 71 77 70 64 73 68 51 44 39 36 37 38 40 43 42 44 46 53 58 64 72 72 71 73 78 82 82 84 83 78 73 77 80 78
56 50 54 69 53 49 65 64 77 80 80 84 76 77 53 48 44 38 36 38 38 39 40 43 47 52 56 60 62 69 73 81 83 84 71 64 77 80 78 86 83 86 84 81
54 60 78 81 57 59 82 82 82 80 86 86 70 52 49 43 35 36 37 38 39 43 46 48 50 51 64 70 72 70 84 86 94 88 73 66 69 84 100 98 93 86 84 85

GFSCGP_850_rhum_018.txt.gz
RH
18 25 23 18 17 16 15 21 24 19 15 14 19 23 25 29 38 47 57 62 56 56 60 56 52 49 50 74 82 80 74 70 67 69 60 58 54 53 55 55 54 54 53 53
24 23 17 17 22 24 22 25 25 20 16 15 24 29 33 33 39 49 53 55 57 56 55 56 58 66 74 74 76 72 51 61 65 56 57 57 53 54 54 56 55 56 60 59
27 19 15 24 27 29 34 31 26 24 21 19 26 30 36 34 37 42 48 48 46 47 54 55 55 57 56 54 53 50 49 48 47 47 50 50 46 45 50 52 54 55 55 54
21 21 24 27 27 26 36 28 26 25 29 25 22 44 30 40 44 43 49 48 49 48 46 44 44 46 45 44 43 41 43 44 47 49 47 47 45 47 49 54 55 55 60 64
27 29 31 29 25 24 31 25 26 26 33 34 31 43 37 40 46 48 49 52 49 43 40 40 39 40 44 47 47 44 44 46 47 50 52 51 52 58 59 60 61 64 68 69
25 23 24 25 25 22 22 29 40 39 45 60 40 46 47 46 43 43 46 48 43 40 39 39 42 45 45 47 49 53 54 57 58 58 58 58 61 63 67 69 72 74 73 70
31 30 26 25 31 29 31 49 70 68 75 68 48 54 50 39 37 44 48 42 40 38 40 41 43 43 47 53 56 58 60 58 60 62 63 65 68 72 74 75 74 89 68 53
45 48 31 26 28 30 34 44 73 63 71 63 42 55 50 44 42 39 38 38 39 41 43 46 53 56 57 56 54 56 57 59 62 65 67 69 71 70 67 64 60 58 56 61
46 39 27 24 24 29 34 42 36 61 67 76 57 44 35 36 39 38 38 40 42 45 47 50 54 54 53 52 53 55 58 61 63 65 68 67 60 57 63 61 59 56 61 70
32 39 26 23 28 28 25 28 53 67 58 56 50 53 58 50 48 39 42 45 48 48 49 51 52 53 53 55 56 58 60 61 64 62 59 57 60 64 62 64 64 63 67 69
39 40 37 34 33 35 38 42 45 48 68 73 78 55 37 51 49 49 50 48 47 47 52 56 58 58 59 56 56 50 46 50 53 54 51 50 57 66 68 65 63 71 71 80
37 51 59 38 27 25 27 37 47 73 49 82 81 61 41 48 42 42 46 47 52 59 62 62 59 53 43 39 41 42 48 49 47 44 49 58 60 59 64 66 72 83 88 82
39 48 71 57 49 38 31 30 52 61 70 57 70 56 40 44 48 46 50 55 60 59 58 55 47 32 30 47 52 51 48 44 41 39 63 46 41 54 65 70 83 78 89 79
47 53 51 65 47 37 30 32 45 55 79 68 71 48 42 58 61 56 58 60 61 61 57 44 30 41 51 53 50 46 40 39 38 38 38 37 36 46 80 80 83 73 92 97
50 59 48 43 46 38 38 37 38 42 49 62 52 58 53 64 64 58 63 62 61 60 48 37 45 53 52 43 42 40 39 39 38 37 36 32 30 46 49 53 59 64 98 88
63 72 52 48 56 66 48 52 49 45 38 40 42 71 58 58 59 64 65 65 65 55 42 43 46 42 40 41 38 39 37 35 36 34 34 35 35 41 49 52 73 92 80 73
68 76 71 65 75 72 68 50 43 38 43 40 49 62 63 69 70 68 68 65 58 45 43 43 38 36 33 33 34 34 35 34 36 38 42 41 44 50 54 66 92 98 98 79
74 91 92 73 66 52 50 40 40 47 57 66 69 68 64 66 66 69 66 57 49 46 42 37 34 31 31 30 31 33 34 38 41 44 44 48 53 58 58 82 92 95 80 87
63 86 97 71 84 50 46 45 46 44 53 68 72 71 66 73 70 66 60 51 49 42 38 34 31 29 30 32 34 35 40 42 43 46 53 59 66 68 70 79 84 87 74 71
79 77 77 100 65 52 43 47 41 42 77 68 68 75 70 67 89 79 62 56 45 39 35 32 30 31 32 34 35 38 41 46 50 55 64 71 72 77 89 95 93 82 75 76
95 94 90 99 90 78 56 46 41 67 60 69 68 71 70 77 63 70 59 44 40 38 35 32 33 36 38 40 40 41 45 50 59 71 74 71 80 78 89 95 88 80 71 69
84 94 98 96 96 77 47 48 58 55 61 65 71 71 70 67 66 65 50 42 40 36 36 37 38 41 42 43 45 49 53 60 69 72 74 75 76 82 77 77 72 70 73 77
60 67 81 76 77 46 44 38 36 39 48 70 70 72 67 63 64 53 44 39 36 36 38 40 40 41 45 50 55 61 66 70 69 70 80 80 80 81 87 85 82 78 78 84
57 57 85 73 56 56 44 46 47 56 56 69 73 65 65 70 56 45 38 37 37 38 38 38 40 43 48 52 59 69 73 75 76 79 85 82 71 69 80 83 86 83 88 87
56 60 61 76 59 64 60 57 57 65 71 76 78 77 72 61 43 39 37 36 37 37 39 41 37 34 40 47 52 59 63 71 94 92 95 80 71 63 72 96 99 97 94 88
55 59 78 73 47 50 55 61 73 74 77 76 72 60 46 46 39 36 36 36 37 40 36 29 32 38 42 47 51 57 84 97 100 99 98 91 80 79 83 97 100 100 98 83

GFSCGP_850_rhum_021.txt.gz
RH
19 25 23 20 18 16 16 22 22 20 16 21 30 42 46 52 47 65 67 68 70 64 63 52 48 52 57 71 63 89 80 74 79 76 69 62 58 60 58 56 54 53 54 57
25 23 18 27 28 24 24 24 23 21 22 28 38 45 49 53 64 68 68 69 78 82 81 80 77 79 80 70 66 53 59 73 76 72 57 62 65 57 53 52 54 57 54 51
25 19 21 25 30 32 35 29 27 24 24 28 34 43 45 42 53 62 64 62 60 59 64 64 60 58 55 56 54 52 49 51 54 54 53 50 49 48 45 47 51 56 59 59
25 29 27 28 28 30 33 29 26 25 26 42 27 59 37 46 55 58 65 62 57 57 49 49 50 49 45 44 41 41 42 44 42 42 43 43 46 47 52 56 59 62 63 66
29 29 30 28 26 26 32 28 26 27 35 36 33 52 45 50 59 60 64 60 55 46 43 44 45 45 46 47 48 49 51 53 55 57 58 59 60 60 61 62 65 69 71 74
28 25 25 26 26 24 23 35 45 51 49 60 41 48 56 57 55 56 57 57 51 45 45 48 49 51 54 54 55 55 57 59 60 60 61 63 64 67 70 73 72 64 57 50
34 32 28 26 30 29 35 47 68 69 74 69 48 55 54 44 45 50 55 55 50 51 54 57 57 56 54 56 59 60 60 57 59 64 67 68 70 70 56 47 52 59 58 56
48 47 31 26 28 31 36 44 74 57 72 63 48 62 54 45 41 44 47 52 54 56 55 54 56 56 59 58 55 56 56 58 60 61 64 66 56 53 50 54 60 61 64 65
44 38 29 25 25 31 34 45 40 70 71 76 64 46 45 49 51 47 47 46 47 49 53 53 57 56 54 52 51 51 55 57 58 59 58 52 50 50 55 64 65 66 67 71
38 38 28 25 29 29 30 34 52 68 57 56 55 58 65 52 53 50 54 56 57 55 55 54 52 52 51 52 48 42 37 39 44 47 48 50 58 67 68 65 66 66 69 76
39 35 35 34 35 37 39 42 51 56 70 71 76 66 43 52 52 56 61 59 58 58 58 56 57 59 52 44 37 40 44 47 45 45 44 51 67 58 45 46 69 71 77 83
40 53 61 38 34 32 31 39 46 68 51 83 80 60 40 54 49 53 53 53 56 57 61 61 56 47 38 41 46 49 46 42 43 42 41 43 49 37 29 61 87 89 71 73
38 51 68 54 48 36 36 38 60 61 70 60 73 60 46 51 52 54 57 64 66 63 59 51 42 40 42 46 48 46 45 43 40 39 38 37 35 30 26 38 39 48 55 73
45 57 49 60 45 41 32 33 51 53 77 65 67 44 46 63 65 62 65 64 64 61 55 41 35 41 47 50 44 43 41 40 39 38 35 33 30 33 40 43 48 42 65 91
50 54 49 52 52 41 37 36 46 52 53 58 50 57 45 66 69 65 63 65 64 60 48 37 37 45 44 42 43 41 39 38 34 32 32 34 40 44 48 52 50 51 97 99
66 69 46 56 61 65 46 41 50 49 45 57 48 66 61 61 62 66 65 65 64 57 42 40 42 40 37 37 35 35 33 31 31 33 38 44 47 50 56 58 53 66 81 87
66 74 60 50 74 64 50 58 54 44 42 43 63 58 66 73 70 68 67 67 62 49 41 42 39 35 33 33 32 30 31 34 36 40 46 51 56 60 62 57 64 71 89 100
77 88 85 68 66 44 36 44 43 44 50 61 68 72 66 66 64 65 66 64 56 45 42 39 35 32 30 30 31 33 34 37 40 47 54 58 60 65 63 70 80 75 95 91
67 86 96 71 71 44 37 49 54 53 52 69 71 70 64 67 70 69 65 59 50 44 41 36 33 32 31 33 35 38 39 40 47 51 55 61 68 68 71 89 96 83 81 75
76 73 72 98 56 44 35 50 42 41 69 67 64 73 74 76 93 84 62 56 54 42 38 35 33 33 36 38 40 43 46 48 50 55 64 69 69 75 72 88 97 91 89 79
94 96 83 100 80 68 50 48 40 59 52 66 61 64 72 82 68 59 63 58 45 39 36 34 35 38 40 41 43 47 49 52 57 66 68 69 78 78 78 81 80 78 74 75
91 97 97 97 94 63 44 52 59 54 38 43 56 59 66 67 65 74 61 43 41 37 36 37 38 39 39 41 43 46 48 59 67 74 77 81 84 77 84 81 80 80 81 82
71 64 78 72 71 45 44 44 40 36 34 52 52 63 69 69 70 72 48 44 39 37 38 38 38 37 39 34 35 42 49 61 69 77 88 92 90 73 84 85 87 85 84 89
66 56 81 68 49 55 40 44 47 42 46 48 59 69 72 66 68 71 49 40 38 38 38 37 36 32 26 29 34 44 50 54 62 82 98 100 96 76 68 74 84 92 96 97
64 66 66 80 63 58 52 47 44 47 55 62 69 72 63 73 84 53 40 38 38 38 36 36 30 26 30 33 39 49 50 56 84 89 95 96 98 91 71 79 100 100 100 99
62 66 79 66 41 49 45 42 46 53 60 70 72 76 80 78 49 39 38 37 33 34 33 27 26 30 34 40 43 49 58 70 92 99 95 97 98 97 94 96 97 100 100 98

GFSCGP_850_rhum_024.txt.gz
RH
20 26 24 20 18 16 18 20 20 21 18 44 57 65 69 69 62 70 69 64 60 58 60 60 62 62 58 76 85 90 77 93 95 84 78 66 62 65 66 56 55 55 56 58
26 25 20 27 26 25 25 26 24 24 28 44 54 58 61 66 76 76 79 81 77 77 85 85 89 93 92 92 90 72 78 90 76 73 67 63 58 47 44 44 47 49 52 55
28 21 24 27 31 32 34 28 27 27 31 37 43 52 58 55 69 73 82 84 82 72 70 80 80 71 63 54 52 50 57 61 58 51 44 41 43 43 44 49 53 56 58 61
31 29 27 28 30 31 31 30 27 28 34 42 34 58 50 58 68 69 70 72 63 61 70 66 52 42 44 43 42 42 44 44 45 48 49 51 53 56 56 56 61 64 68 71
30 29 29 30 27 28 33 32 32 33 40 37 39 59 52 63 69 70 71 62 61 61 54 46 45 46 45 45 47 48 51 52 54 55 57 59 60 63 65 65 68 70 52 57
32 27 28 28 30 26 29 40 48 54 52 58 45 47 55 69 64 67 66 65 60 54 50 51 48 51 50 52 52 54 57 59 61 60 62 65 67 70 73 60 49 54 54 53
36 34 30 28 32 31 42 48 70 68 74 71 50 53 48 49 55 59 63 63 63 55 57 52 52 55 58 59 60 60 61 58 59 62 66 68 67 58 50 48 53 55 60 60
46 40 30 27 30 34 38 46 73 58 78 67 50 61 54 49 43 48 53 58 59 59 58 57 60 64 61 60 60 57 55 50 50 52 55 52 46 52 62 66 69 67 68 69
44 39 30 26 28 32 38 48 44 71 71 78 67 50 51 58 60 56 54 54 56 57 60 64 65 62 58 56 54 49 42 37 39 42 46 52 56 65 69 69 63 56 65 71
40 39 31 27 30 33 31 40 51 69 54 51 61 60 69 63 64 62 59 55 57 60 63 62 60 57 55 53 48 40 35 39 42 36 40 43 43 50 60 42 34 33 70 77
37 38 37 32 37 39 41 45 55 59 70 70 77 69 54 58 56 59 59 58 61 62 60 60 59 58 54 47 41 36 35 35 35 37 40 41 50 45 35 29 26 43 56 48
43 54 59 36 34 39 34 40 45 63 47 84 79 61 44 54 52 50 57 60 61 60 60 59 58 53 42 43 36 32 36 37 40 41 41 39 36 32 29 37 42 46 48 40
41 52 67 48 41 34 37 49 58 61 70 66 76 58 52 57 57 53 61 64 66 64 63 60 51 41 38 37 42 44 45 42 41 39 38 33 32 33 38 42 47 47 43 40
42 56 48 52 39 42 35 43 52 51 75 64 68 44 48 60 66 65 65 69 68 64 59 50 42 40 47 49 47 45 42 40 38 34 31 33 35 40 47 51 53 51 42 55
47 53 50 56 58 43 36 38 54 51 50 54 48 57 45 59 67 61 61 68 67 63 57 45 41 48 47 44 42 42 38 36 31 33 34 40 45 50 53 53 55 51 53 75
63 65 45 58 65 64 52 42 46 50 48 59 54 57 50 55 56 64 66 68 66 63 55 43 44 44 42 37 37 34 32 31 34 36 40 44 50 53 55 58 59 60 71 85
65 73 55 49 70 58 53 50 54 52 52 50 58 51 71 74 71 69 68 67 64 63 51 42 42 39 35 33 32 31 32 37 38 39 41 50 55 59 58 62 65 77 80 85
73 73 77 67 66 48 36 42 47 48 46 50 54 57 68 64 65 62 61 62 64 60 49 43 40 37 33 32 32 34 39 40 42 46 52 56 61 58 55 64 63 89 91 99
65 80 94 69 69 43 26 39 55 55 50 62 62 68 70 69 68 69 64 63 62 57 46 41 39 33 32 33 36 40 39 41 47 50 56 63 63 54 62 69 69 89 94 96
72 70 70 93 55 44 35 43 44 40 70 52 58 71 75 73 89 71 58 61 60 52 46 41 35 33 35 39 40 36 37 44 49 60 64 60 61 66 76 75 78 83 85 85
96 97 78 100 74 63 44 46 41 56 54 58 53 54 71 80 62 54 55 60 59 55 43 36 34 37 40 39 34 38 42 47 55 56 53 56 75 84 83 73 77 77 76 76
86 96 97 95 87 65 41 51 56 52 34 35 43 46 54 49 60 62 60 63 60 47 37 36 38 40 38 35 35 31 38 47 46 44 46 60 90 94 86 78 87 86 86 84
72 67 78 70 70 43 43 49 40 40 36 38 36 36 47 58 68 68 68 48 65 42 37 39 39 37 34 28 27 31 37 43 43 43 49 64 89 94 92 77 80 86 88 88
69 58 77 63 45 56 43 36 40 43 43 42 45 46 54 63 72 75 54 85 63 39 40 39 35 32 26 27 31 36 42 42 45 52 64 80 87 90 95 82 64 78 94 98
68 66 66 76 62 50 40 40 37 38 41 46 49 54 65 74 74 72 85 44 43 40 37 32 29 25 29 33 36 38 40 42 48 65 84 87 95 98 98 92 83 91 97 100
64 66 76 72 35 42 38 34 38 47 47 50 64 73 79 70 78 85 94 48 38 32 30 24 25 31 35 36 37 40 45 46 59 77 95 96 96 96 98 95 96 95 94 91

GFSCGP_850_rhum_027.txt.gz
RH
21 20 20 20 17 14 18 19 19 22 26 45 59 59 61 69 67 71 73 64 61 59 56 56 56 57 59 65 76 80 80 79 68 82 87 78 64 65 66 47 49 55 55 59
23 25 21 28 25 24 24 25 27 31 33 43 51 58 62 65 72 73 73 73 64 67 75 69 68 67 71 72 86 87 80 76 74 71 69 68 62 47 48 48 50 54 58 61
27 23 26 28 29 30 32 29 29 30 36 38 40 45 59 63 73 80 83 78 83 87 92 87 86 84 83 80 74 72 73 73 59 60 64 50 48 49 52 53 55 60 64 67
32 29 26 28 31 30 37 30 29 30 29 31 34 27 49 66 72 75 82 91 99 98 87 78 78 61 56 52 44 46 51 52 56 61 55 54 54 57 60 64 68 68 67 58
32 29 29 32 29 30 37 33 32 31 33 33 34 32 47 65 74 71 73 79 85 86 72 62 53 45 42 44 46 48 49 52 53 54 56 59 61 65 68 68 71 58 46 42
33 29 30 30 34 32 39 38 42 45 42 38 41 36 38 64 60 63 64 71 76 75 58 51 48 45 43 45 47 50 54 56 58 61 61 64 68 69 69 58 46 46 46 56
34 34 30 29 33 33 36 39 49 52 56 50 48 49 35 40 49 54 60 64 65 58 52 49 49 50 48 50 53 55 60 62 59 56 59 61 58 47 40 39 44 59 67 64
38 39 29 30 32 33 40 40 58 52 62 54 46 52 39 46 43 54 56 61 58 55 52 54 56 56 54 56 59 63 62 53 47 40 38 30 24 36 51 61 65 61 47 43
43 39 30 30 31 32 40 40 43 61 69 59 46 45 40 51 50 57 59 65 63 55 55 58 60 60 63 66 65 58 48 37 31 27 26 35 48 56 60 58 40 32 28 38
40 41 33 29 32 35 34 39 45 50 52 45 42 51 42 56 53 54 58 60 62 57 60 64 66 67 66 62 54 43 37 33 31 33 38 43 47 54 44 35 30 27 31 35
36 40 39 35 37 39 40 44 52 48 54 45 51 33 45 45 49 53 53 57 56 58 62 65 68 65 60 52 42 42 39 35 33 36 43 43 42 37 32 28 28 34 40 42
42 51 53 36 36 39 36 40 43 49 46 65 58 40 38 47 49 52 54 56 55 57 63 67 66 61 53 45 44 43 38 34 33 45 40 38 33 30 27 30 44 50 51 43
44 52 54 43 36 35 38 46 48 53 60 60 73 36 39 53 53 53 55 59 58 63 68 67 62 55 46 43 39 37 37 39 43 39 36 31 32 31 40 50 54 48 42 44
41 51 46 43 36 42 42 52 46 44 57 51 53 37 34 48 54 60 59 56 63 66 64 63 56 46 42 41 39 46 42 43 39 33 32 33 36 44 50 55 50 38 42 50
46 48 50 54 54 46 36 42 51 43 44 48 40 44 34 35 46 55 70 74 69 66 65 59 49 42 42 40 53 42 44 38 32 34 35 37 43 50 54 53 39 40 51 62
59 59 51 57 61 58 52 44 43 50 48 46 47 46 36 42 54 62 63 70 73 68 62 55 45 43 41 50 40 40 36 32 35 38 38 40 47 54 53 42 41 54 60 74
60 65 55 53 60 49 52 47 44 45 46 42 48 35 57 59 62 58 68 70 72 65 61 55 45 42 44 39 35 34 32 35 39 38 41 49 54 51 46 44 55 61 66 86
65 61 64 62 64 47 32 45 43 44 44 42 43 45 53 54 54 54 55 59 64 63 62 54 44 43 39 34 33 32 36 39 34 39 46 49 49 46 50 55 64 65 76 90
58 67 78 68 55 40 24 34 48 54 36 42 42 49 66 68 65 61 57 57 58 60 61 52 45 40 35 33 33 37 39 32 37 42 45 48 51 53 60 65 70 66 78 86
64 64 65 75 51 47 34 32 45 42 57 41 49 63 72 70 70 48 46 58 62 65 60 48 42 36 33 35 39 38 30 33 35 38 44 49 53 57 71 80 75 64 71 78
93 95 75 79 68 56 40 40 43 47 47 40 50 48 71 65 47 40 47 59 65 64 52 45 36 40 36 39 38 28 27 27 33 42 46 45 46 52 80 88 79 73 78 81
72 88 89 88 76 63 40 50 54 46 37 30 43 37 37 33 39 51 56 61 68 59 50 52 54 43 40 36 27 22 24 30 38 45 43 43 46 52 74 87 84 74 78 86
66 63 68 61 62 42 39 44 36 40 39 34 40 42 49 48 54 63 64 68 62 49 80 59 50 40 35 27 23 25 30 34 38 40 40 44 55 67 87 91 90 80 72 88
68 62 67 61 46 52 41 35 32 33 37 38 44 47 50 54 67 70 66 56 69 94 67 50 40 33 26 24 27 30 34 38 38 38 42 58 76 80 92 95 98 87 73 85
63 65 66 69 57 45 33 34 35 38 39 42 48 53 58 68 78 74 54 88 93 65 58 40 32 26 25 28 31 36 39 40 40 43 56 71 85 90 92 92 98 92 90 93
67 63 72 67 36 42 39 42 50 49 51 56 59 64 73 82 83 64 88 97 84 54 38 31 26 26 29 33 37 40 41 39 43 55 71 80 90 87 88 92 96 93 95 98

GFSCGP_850_rhum_033.txt.gz
RH
19 18 19 14 13 15 13 12 10 10 12 10 11 11 14 21 22 23 28 35 37 43 48 64 56 50 56 71 87 95 100 89 73 74 75 75 79 81 68 70 72 70 74 72
18 20 16 14 12 12 11 11 14 13 13 15 10 11 17 19 20 21 25 31 35 41 53 66 69 68 69 78 86 96 99 88 91 89 87 80 78 79 75 78 79 78 68 78
23 29 17 16 12 12 12 13 14 14 15 14 15 16 20 23 25 27 27 29 33 38 51 65 70 73 81 87 96 95 98 91 86 77 75 74 77 78 74 75 74 76 76 76
24 18 16 17 14 12 16 16 14 16 18 19 16 19 18 22 28 32 35 35 33 39 49 62 70 83 91 94 96 95 88 77 76 72 66 67 58 57 61 65 69 76 78 76
23 18 16 17 18 17 22 17 17 16 15 21 17 16 42 23 24 28 30 37 40 48 54 62 72 80 78 79 76 70 72 67 71 72 66 70 63 71 73 73 78 78 75 74
20 18 17 18 19 18 18 19 19 18 16 24 15 18 16 22 20 24 31 38 46 52 57 61 62 62 63 74 75 73 64 63 70 71 73 72 76 70 65 62 59 47 47 49
16 18 19 18 20 19 18 20 29 32 27 28 19 19 14 12 19 19 34 43 50 53 52 49 48 46 55 68 74 74 61 64 71 75 77 78 72 61 52 53 48 54 51 49
23 28 19 18 19 19 19 17 29 30 26 20 21 19 16 17 20 24 34 41 50 50 47 42 42 43 52 61 64 61 62 66 73 73 67 59 54 51 52 55 59 50 50 54
20 24 19 20 19 17 19 23 20 27 45 35 16 13 20 23 23 25 33 38 45 45 42 39 42 44 53 60 64 63 63 64 67 63 56 60 56 52 56 53 52 52 56 50
18 24 19 22 21 21 23 19 25 24 38 31 15 13 17 24 23 25 31 36 40 41 40 40 42 48 55 61 67 68 64 60 60 57 58 63 68 59 48 50 53 54 53 56
16 18 27 23 24 19 26 24 21 22 27 30 23 16 14 17 20 24 27 33 36 39 38 42 46 52 59 62 70 69 58 54 53 56 65 62 60 50 51 51 52 52 58 59
21 20 29 26 22 21 21 21 22 30 25 28 39 21 14 17 17 22 26 30 35 37 36 40 48 54 60 65 65 61 54 49 54 60 60 66 51 45 47 49 50 55 62 62
24 22 31 30 26 23 21 19 20 19 27 28 46 22 14 17 18 19 21 26 33 35 36 40 48 55 60 62 58 55 51 50 55 63 57 46 44 46 49 47 54 60 64 61
30 23 26 33 23 20 27 20 19 22 32 26 21 16 13 16 16 15 20 22 28 34 37 42 49 56 58 56 54 52 50 54 65 50 50 39 41 50 48 52 60 64 65 66
30 32 24 22 24 22 21 19 20 21 20 25 20 12 8 9 11 13 16 21 25 33 42 46 50 54 54 54 53 50 51 62 53 63 44 38 46 51 53 60 66 67 68 72
30 33 35 40 29 28 28 23 18 17 17 16 14 15 11 14 12 16 18 23 25 32 41 46 50 52 52 53 53 51 56 60 63 56 42 46 47 48 54 62 68 64 65 68
36 36 40 34 32 31 55 34 24 18 16 18 24 17 12 17 17 19 20 26 28 32 38 44 48 51 52 51 52 54 62 62 51 42 44 46 46 54 58 58 58 60 66 72
42 41 48 48 63 76 15 16 16 20 17 14 14 13 12 14 22 25 25 25 28 32 35 42 47 51 51 50 54 55 52 49 49 45 45 43 52 56 57 57 59 64 69 72
30 38 58 80 35 22 16 13 19 21 18 16 17 16 16 22 32 28 29 28 28 30 37 43 48 50 51 52 53 47 52 41 47 46 42 44 49 54 57 58 60 66 74 74
33 35 41 51 82 84 30 23 24 23 29 20 20 19 20 24 34 24 32 33 36 40 43 48 52 52 54 49 47 47 47 55 51 42 45 48 50 56 59 61 65 72 77 73
72 74 75 58 73 42 22 22 29 36 38 28 26 25 26 28 33 44 42 38 42 43 49 52 54 53 48 47 54 77 68 59 46 43 50 55 57 60 60 65 72 78 74 77
55 70 85 66 92 78 23 27 36 37 27 27 32 30 36 38 38 49 47 45 48 51 55 55 51 44 51 83 85 77 49 39 36 23 62 60 57 58 64 76 80 78 78 81
44 38 43 39 38 28 26 25 27 31 35 34 35 36 38 39 41 41 50 52 55 53 47 45 53 81 98 94 74 50 42 46 29 55 52 64 65 72 78 78 75 75 79 84
33 35 39 38 22 23 25 29 32 35 38 40 42 44 46 46 49 50 58 56 50 44 52 84 99 98 92 67 46 36 36 33 29 46 69 70 76 80 81 82 78 75 88 98
39 36 34 38 29 29 28 38 48 54 55 54 56 58 67 65 59 61 56 51 55 79 93 94 97 87 74 66 60 59 39 29 63 67 64 70 80 88 84 80 76 82 94 98
37 39 52 49 43 50 44 59 69 64 67 69 69 67 67 65 60 60 69 86 96 99 98 96 96 91 67 50 29 28 57 54 38 40 48 60 78 95 91 89 89 93 93 87

GFSCGP_850_rhum_036.txt.gz
RH
21 22 22 19 19 18 16 17 14 10 9 11 22 17 14 15 18 26 29 32 34 33 35 39 39 37 44 68 81 80 90 78 72 71 76 67 63 65 73 67 70 66 59 58
26 20 26 21 17 17 15 15 19 11 10 10 11 10 11 14 16 20 27 31 34 39 42 56 52 43 46 66 84 81 87 87 79 88 86 86 77 71 67 75 58 77 63 77
34 25 26 18 15 17 14 14 18 16 11 10 13 11 15 14 14 16 23 27 32 38 47 59 58 57 59 74 79 77 90 94 81 90 82 78 74 75 76 71 60 66 68 76
40 26 22 18 16 13 16 19 17 15 16 20 20 27 18 17 19 18 19 22 28 33 41 54 65 66 71 76 78 81 86 81 80 78 74 73 75 70 66 64 70 72 72 71
44 40 28 17 20 18 21 21 19 13 16 27 21 29 29 21 26 24 26 26 27 30 36 47 62 67 76 81 85 85 71 76 81 71 66 68 64 64 65 69 71 77 73 61
29 31 42 23 19 17 19 19 17 18 19 54 39 34 29 29 27 28 24 29 31 34 43 48 59 73 79 78 74 81 80 75 71 66 66 68 66 68 70 67 66 59 50 50
16 18 19 20 25 16 15 18 36 74 73 44 16 19 28 24 25 62 30 29 33 42 47 51 60 67 77 75 75 74 66 63 70 71 73 74 74 71 66 56 53 49 52 52
21 40 18 16 16 38 39 15 39 62 94 44 19 21 18 18 17 19 28 34 41 47 50 54 57 56 64 70 73 71 62 63 69 75 78 78 68 56 50 54 56 70 52 50
40 38 25 18 14 16 17 21 18 32 46 57 22 11 22 18 19 19 31 36 43 46 49 48 46 46 56 66 72 68 60 62 70 76 70 61 56 52 47 62 59 53 53 52
45 77 39 21 18 17 20 16 30 24 40 41 19 15 34 24 20 22 30 36 41 45 45 41 40 43 50 59 63 62 60 62 68 70 61 60 58 57 61 57 57 55 55 55
29 45 33 24 22 16 24 24 19 17 29 48 49 24 14 16 17 21 24 34 37 42 41 39 39 42 49 56 61 66 64 62 64 62 60 59 67 59 63 52 55 54 54 58
17 21 34 24 18 17 18 23 21 55 33 36 56 38 14 15 14 19 21 26 33 38 39 39 40 43 49 56 62 69 68 60 59 55 60 66 60 62 51 50 53 51 56 63
24 27 39 26 23 21 22 17 16 20 34 39 70 36 14 14 14 15 18 22 28 33 36 37 40 44 51 57 62 69 66 56 52 56 62 60 59 54 51 51 48 51 60 64
29 24 23 38 24 22 28 22 16 20 59 40 35 18 14 14 16 14 17 18 21 30 33 34 36 45 51 57 62 63 60 54 51 56 59 52 55 57 49 54 51 56 64 67
28 27 22 19 19 22 24 21 18 18 22 34 29 17 13 12 15 12 13 16 19 20 29 32 35 43 52 56 59 58 55 52 53 61 51 61 52 50 54 52 57 64 67 66
29 38 34 36 27 25 28 21 21 20 17 17 16 16 11 12 16 16 16 16 18 20 22 32 38 43 50 54 56 55 53 51 61 57 60 78 50 48 50 53 61 64 65 61
36 47 52 53 34 33 52 34 26 22 17 18 24 20 15 14 13 17 18 19 22 24 26 31 38 42 47 51 52 53 53 53 59 62 58 45 53 62 52 58 59 60 60 62
40 47 66 71 65 65 20 15 15 18 16 13 13 15 14 22 22 20 20 22 24 27 28 29 34 41 46 50 52 53 54 58 61 50 54 60 49 49 54 55 61 59 60 64
30 51 75 94 54 29 21 15 18 19 19 17 18 18 16 18 24 24 23 27 26 26 27 30 34 41 48 51 51 53 56 51 52 62 71 56 47 48 48 56 61 61 62 67
29 39 70 69 80 76 33 21 20 19 38 23 23 24 24 22 47 40 36 32 34 34 36 37 41 47 50 51 53 50 50 46 53 67 56 60 56 45 53 61 61 62 66 73
74 79 87 73 87 59 24 22 25 43 52 28 30 29 30 37 38 45 46 43 39 41 45 48 50 52 52 49 48 53 61 69 88 73 58 64 51 58 62 57 58 66 68 73
71 83 94 83 95 88 21 26 38 41 30 31 31 32 35 36 38 40 39 45 47 48 53 53 50 49 63 71 76 90 89 75 70 80 50 47 40 59 67 68 71 69 75 80
50 44 61 57 61 31 22 25 26 30 32 35 37 39 40 43 43 44 47 52 52 47 46 54 68 80 86 87 88 87 77 79 66 60 45 28 60 82 79 77 79 78 74 75
31 32 46 42 23 23 24 27 36 45 49 48 49 51 56 62 60 54 55 51 50 64 82 92 88 91 90 83 78 82 82 74 53 35 31 75 80 70 65 72 80 80 79 81
40 34 33 35 29 31 44 52 62 59 62 63 61 64 62 61 59 54 61 74 88 94 87 88 88 88 87 81 79 75 68 57 54 77 56 42 43 46 57 65 79 84 82 84
36 36 64 64 48 52 62 62 61 62 65 63 62 71 69 67 75 70 80 82 82 83 86 89 92 89 82 75 71 59 47 55 46 39 39 41 46 52 61 77 91 89 85 92

GFSCGP_850_rhum_039.txt.gz
RH
34 32 39 32 25 22 23 28 23 18 14 30 27 24 27 21 29 32 30 28 29 33 36 37 39 48 55 57 64 60 58 62 68 64 69 64 63 68 67 71 67 65 49 49
53 49 35 27 22 24 30 31 23 18 12 21 25 25 23 20 24 32 32 31 29 30 32 34 39 53 59 69 77 77 77 74 81 69 70 72 75 71 72 62 56 42 50 54
47 36 27 25 26 24 28 26 22 23 13 12 17 24 19 19 19 26 32 34 34 35 35 37 37 46 61 71 78 82 79 76 80 73 86 90 80 70 59 47 48 55 60 64
39 35 34 33 28 20 25 18 23 25 22 25 22 38 25 22 22 20 30 34 37 37 39 45 46 52 64 73 79 78 78 80 84 88 94 76 68 54 47 56 63 61 65 70
42 36 39 40 31 21 27 23 25 27 24 31 26 37 37 21 27 24 24 30 37 38 40 50 54 53 64 78 83 73 82 78 80 94 83 75 62 69 67 69 72 75 74 60
36 32 40 28 24 22 24 22 27 39 40 48 27 34 42 29 22 26 23 29 29 36 44 51 58 62 66 69 76 82 83 77 84 87 74 67 73 76 68 72 74 69 68 72
30 27 30 32 28 25 28 29 56 66 80 70 35 40 36 28 24 28 29 27 30 35 47 58 64 66 68 73 77 82 83 80 84 73 68 69 72 70 70 69 66 57 51 50
34 48 33 24 34 37 27 37 61 70 88 71 42 40 30 24 24 22 21 27 35 44 47 56 60 62 62 64 67 77 86 87 77 71 68 71 71 70 68 64 62 58 49 53
43 47 40 31 34 23 25 33 31 62 69 83 50 22 26 24 31 40 39 38 44 45 48 51 56 62 68 76 83 81 72 67 66 68 68 71 74 76 69 55 50 52 62 48
49 48 45 39 32 22 22 22 41 50 50 53 36 29 45 32 31 45 47 46 45 48 51 56 62 65 74 74 74 74 68 62 64 68 72 76 75 66 55 50 64 55 50 56
50 49 56 47 42 31 29 30 26 31 52 59 71 41 19 26 29 31 46 42 45 47 50 51 52 50 50 52 55 69 67 62 64 69 75 70 64 60 54 61 55 57 64 60
43 53 75 49 34 22 21 33 41 65 38 52 74 52 17 17 24 23 24 38 42 44 46 46 43 42 46 50 54 59 62 63 65 70 71 63 61 64 59 65 61 80 63 52
31 38 55 37 33 30 26 23 23 34 56 49 66 50 20 16 15 20 22 25 38 41 44 43 40 40 44 50 56 60 65 66 64 65 62 59 62 64 62 58 78 59 53 52
32 33 42 50 36 31 34 36 26 33 69 48 49 37 25 22 21 19 17 20 32 37 40 41 40 40 42 48 56 61 63 68 66 57 56 61 61 60 55 71 67 76 54 59
38 38 25 28 30 27 27 30 30 25 38 47 40 34 27 20 21 20 20 20 19 25 34 38 39 41 46 50 57 62 67 69 64 52 58 58 55 58 66 65 76 60 51 64
36 48 35 40 36 35 34 31 31 28 27 25 26 29 19 19 18 19 18 18 21 22 24 35 40 45 48 54 61 64 66 63 56 52 56 57 55 66 73 66 65 64 64 55
49 54 66 56 44 40 51 35 32 32 28 27 30 26 31 31 27 24 22 24 24 25 26 29 38 45 52 55 56 63 60 57 54 57 59 59 64 63 66 83 68 59 55 48
60 58 76 75 65 48 37 19 19 23 25 26 26 25 30 27 32 27 26 26 26 27 29 30 30 34 43 51 60 59 56 55 59 61 54 58 66 77 66 62 61 73 62 68
55 73 83 70 78 49 32 24 23 27 34 31 35 34 30 24 31 43 36 33 34 35 35 35 39 42 49 53 57 55 58 61 60 55 62 78 68 73 74 73 68 63 69 69
50 65 67 87 80 65 50 23 22 22 55 36 35 41 41 39 70 63 41 37 42 40 42 41 47 50 52 55 56 57 56 52 55 72 88 94 91 85 66 46 44 61 66 68
85 79 79 94 89 73 38 26 24 44 59 35 34 36 37 50 48 45 46 47 50 49 49 51 52 52 52 52 53 53 56 58 80 93 93 90 82 59 34 48 67 62 63 65
74 93 93 96 98 78 26 28 43 56 35 35 38 42 42 44 48 50 52 52 52 53 53 54 55 59 63 64 59 67 65 77 86 89 81 72 49 51 63 65 72 73 75 76
75 77 83 73 81 51 26 37 39 40 47 52 52 52 54 57 60 55 53 52 53 56 56 60 60 67 70 69 68 77 90 85 80 78 65 53 47 32 43 57 61 70 74 78
42 38 60 50 41 38 60 53 51 49 60 60 59 62 62 61 59 59 58 62 64 65 66 68 65 65 74 83 86 80 80 75 65 57 52 34 40 44 41 45 47 60 77 86
57 42 46 46 65 67 64 63 63 63 63 62 63 61 60 60 60 61 65 67 67 68 74 81 84 89 86 80 74 63 56 55 51 40 36 42 42 40 42 46 56 69 82 91
45 52 69 82 68 68 73 67 63 62 64 64 62 63 66 65 67 66 69 77 84 90 94 84 68 64 68 67 58 52 44 48 56 58 53 44 43 44 49 55 63 74 83 78

GFSCGP_850_rhum_042.txt.gz
RH
35 41 42 35 31 28 28 27 32 29 26 33 33 28 32 36 51 59 57 53 56 62 67 65 70 70 63 56 30 38 55 69 67 78 75 69 67 60 57 63 64 72 72 66
44 44 38 35 29 30 30 33 35 26 21 30 32 28 27 32 41 48 51 44 48 58 62 65 66 62 56 56 52 37 43 50 64 68 66 58 58 55 62 67 68 66 56 47
43 36 32 32 28 28 30 35 34 30 20 15 29 27 24 24 24 38 41 37 40 45 54 54 54 51 54 59 59 56 52 57 64 72 68 67 65 69 74 68 68 66 57 57
39 32 37 36 36 31 32 28 28 25 31 30 21 34 29 24 24 38 40 38 34 40 44 45 48 51 52 57 60 63 66 66 73 76 67 68 69 76 72 67 64 58 57 58
36 37 34 36 34 28 31 24 28 27 31 32 30 34 31 28 26 26 38 39 32 32 36 40 42 45 53 57 61 69 75 82 82 82 79 83 81 71 62 59 68 65 63 71
32 34 35 32 28 25 25 29 38 48 43 43 32 34 36 31 23 23 26 38 41 41 36 36 42 43 54 61 66 70 82 83 90 86 87 96 82 66 62 67 72 70 74 69
32 35 32 30 32 28 28 36 53 59 70 54 43 43 37 29 28 27 31 30 33 43 44 42 47 54 57 70 67 67 79 82 85 85 93 92 78 65 67 75 73 76 76 78
45 43 31 31 32 39 36 36 59 46 72 58 44 51 39 28 24 21 22 23 28 37 44 48 54 56 57 61 65 71 79 83 87 84 88 87 74 74 75 71 77 77 79 65
43 46 41 35 34 29 31 40 35 65 70 78 56 33 28 30 36 39 40 31 40 40 45 49 56 58 61 65 70 76 82 87 82 89 84 74 76 78 75 75 71 60 61 65
41 49 40 37 31 29 30 25 38 53 53 61 43 34 44 31 34 44 47 42 51 55 53 52 56 60 62 67 68 66 69 75 82 90 76 73 78 74 71 64 63 68 70 68
47 38 40 40 37 33 34 32 30 40 57 58 66 41 26 36 39 46 48 36 47 50 50 54 57 62 65 69 72 75 71 71 77 77 72 74 79 80 75 65 59 62 60 61
44 56 55 40 33 35 32 34 38 63 37 59 74 47 28 29 33 41 42 43 43 41 41 43 48 55 63 66 69 73 75 73 67 65 68 70 72 75 70 62 61 63 78 78
44 53 62 45 37 36 36 30 34 51 59 53 67 51 24 21 20 26 33 41 43 45 47 51 53 55 56 57 57 58 69 73 67 64 67 71 70 66 64 64 68 68 72 66
30 44 50 55 38 36 37 35 39 39 68 52 56 38 28 25 24 21 24 23 36 44 48 49 52 52 51 49 46 48 57 59 65 68 70 71 66 64 62 63 62 67 74 72
36 40 32 32 31 30 30 32 35 33 37 45 37 40 28 22 24 21 19 23 31 45 50 50 49 47 47 50 52 53 58 65 68 70 70 66 65 62 61 61 68 70 68 72
41 40 34 36 41 33 32 30 33 32 30 37 31 32 34 26 24 24 22 24 28 29 34 37 41 46 46 48 51 59 66 72 75 67 68 67 61 61 63 67 75 82 90 85
49 59 66 56 47 40 58 39 33 31 31 30 37 33 32 39 35 29 30 30 32 32 34 39 40 44 46 48 53 63 72 78 73 65 64 61 61 64 71 88 100 99 92 82
61 66 76 76 60 63 45 30 29 39 35 32 33 34 40 44 42 34 34 33 34 32 32 33 35 46 55 58 63 69 79 74 65 60 60 61 63 74 95 96 93 91 90 71
55 75 82 70 73 51 36 24 27 37 39 34 42 41 37 45 40 46 43 38 37 36 38 36 37 40 48 64 70 74 69 64 62 61 64 71 80 94 95 98 91 76 56 60
63 75 75 91 67 62 47 28 25 34 61 40 43 49 43 42 72 65 48 43 43 44 45 44 45 45 48 64 68 66 64 62 62 66 70 84 96 97 92 84 61 61 62 63
82 85 77 96 78 65 46 30 27 39 46 40 39 41 43 59 59 59 51 50 49 50 52 53 54 55 58 63 64 63 63 67 78 87 91 99 88 74 64 56 47 50 60 61
64 85 90 95 87 60 39 32 39 47 44 42 41 48 61 55 58 55 55 56 58 58 58 58 57 58 60 60 58 62 78 88 94 99 88 75 68 58 50 38 45 45 47 57
63 62 74 71 72 51 37 38 40 40 47 54 48 55 51 56 56 59 62 62 62 64 66 66 65 66 69 71 70 79 80 82 78 70 60 55 48 36 31 33 35 37 42 46
50 59 69 60 68 70 63 55 52 46 51 60 58 59 57 59 63 64 68 70 69 70 70 73 75 81 83 81 75 68 60 52 46 41 36 31 31 30 31 34 37 42 46 51
60 50 59 88 74 70 72 68 62 62 62 60 62 62 62 62 69 70 74 75 75 78 86 86 83 74 66 59 55 54 49 42 40 44 48 47 51 47 50 54 54 51 52 65
52 55 69 83 65 68 76 71 66 63 65 64 61 65 67 65 68 69 74 86 89 74 67 63 63 59 57 53 52 53 56 59 62 61 61 61 64 71 76 79 74 72 77 78

GFSCGP_850_rhum_045.txt.gz
RH
38 41 41 36 34 32 31 30 32 29 23 35 38 32 33 48 64 68 66 77 77 72 60 65 66 68 73 80 77 82 76 67 71 76 82 86 93 90 80 59 62 67 75 78
42 43 38 35 36 30 31 30 29 27 24 38 36 36 27 47 54 56 62 67 72 71 71 71 68 72 72 76 84 88 78 68 64 65 77 88 87 82 68 64 69 70 73 79
43 32 33 34 32 30 30 32 32 31 26 28 31 35 25 28 37 55 57 56 61 63 67 74 71 66 69 73 67 56 55 54 56 69 85 89 87 80 68 64 71 69 69 67
39 32 35 34 35 32 34 28 31 34 32 35 27 44 31 30 32 50 54 55 56 56 65 63 70 68 64 64 63 50 36 39 52 70 89 86 80 69 66 68 72 68 68 55
35 40 38 36 33 30 33 25 31 30 34 33 32 34 31 29 34 40 46 50 49 49 58 62 60 54 52 66 59 56 47 44 50 71 89 84 80 74 71 77 76 70 61 61
31 36 33 30 28 30 26 28 38 46 45 47 34 38 39 34 27 26 33 44 45 45 52 58 59 62 62 63 60 62 60 62 71 76 79 82 80 76 77 69 70 66 66 73
33 34 33 34 32 29 30 40 55 57 66 54 40 45 39 28 28 27 30 32 40 39 44 50 52 54 56 53 58 63 66 70 76 80 78 74 89 85 80 68 60 66 73 78
43 43 35 30 31 35 34 38 59 44 66 50 46 52 37 28 32 28 21 23 35 44 40 44 46 47 48 50 55 60 66 79 83 85 87 84 89 91 81 74 68 74 79 81
46 42 38 36 34 29 36 42 35 65 69 78 53 44 32 30 41 45 37 29 31 41 42 39 42 45 46 50 53 64 66 73 76 77 86 83 87 87 80 79 80 91 86 86
37 37 39 39 33 30 32 30 39 56 45 53 50 41 45 32 28 42 49 44 42 39 45 48 46 45 50 54 62 68 73 68 65 79 87 84 82 78 90 83 85 92 87 87
43 35 38 38 42 36 35 36 36 43 57 58 67 48 30 34 31 37 41 40 48 45 42 43 46 50 52 55 62 66 76 69 75 80 77 74 76 88 80 80 78 78 77 77
43 46 50 40 34 34 32 37 38 63 42 63 77 51 26 28 36 38 36 38 44 41 37 40 40 47 54 58 64 66 69 61 69 76 73 63 81 78 80 76 76 72 67 64
47 50 54 43 37 38 36 38 44 52 60 59 69 52 26 24 21 26 35 32 40 47 47 47 49 45 44 48 58 65 67 66 61 63 62 82 82 82 80 77 71 68 62 79
35 53 46 49 40 39 39 35 38 46 73 54 58 39 29 27 26 22 22 26 33 44 49 52 54 51 49 55 56 55 58 66 75 68 80 82 83 79 77 72 69 70 73 73
39 42 40 38 30 33 33 34 44 40 41 49 41 47 34 26 25 25 21 26 28 32 45 52 54 56 57 62 57 57 73 77 77 78 79 81 75 72 73 71 73 70 70 71
43 47 34 42 40 38 35 34 38 39 34 40 38 36 32 30 30 31 32 32 36 39 41 42 46 51 56 63 74 80 80 81 76 78 81 79 73 71 68 67 70 73 76 89
46 60 60 46 49 42 59 44 37 34 35 35 39 35 32 39 41 41 36 33 35 38 37 37 40 43 48 54 56 60 67 71 78 85 82 76 74 68 69 72 80 91 95 100
61 62 72 72 62 66 39 35 33 37 37 36 38 39 43 49 47 42 39 37 39 38 36 36 41 48 54 60 65 70 74 77 84 83 77 75 70 70 79 91 98 99 99 95
58 75 80 70 73 53 38 37 38 35 36 36 45 53 54 50 42 52 45 39 38 38 39 40 41 40 46 58 72 80 84 85 81 74 72 72 76 89 89 97 98 90 64 56
63 73 75 83 70 70 52 36 26 37 56 38 46 51 52 50 67 71 53 48 44 44 44 45 48 52 59 66 76 82 82 76 71 72 78 89 94 99 98 79 55 51 52 45
84 85 82 95 78 68 46 33 29 39 45 39 42 41 45 57 56 54 54 53 52 53 54 56 61 61 66 72 74 73 70 68 71 75 91 99 96 76 58 54 52 41 33 39
70 87 87 90 75 62 37 36 37 42 44 38 41 41 45 51 61 58 60 60 60 59 62 63 61 63 65 64 64 66 70 88 98 97 89 75 59 54 50 40 32 34 38 39
55 66 76 68 68 49 48 40 34 32 35 44 43 45 40 55 62 64 66 66 66 65 64 64 62 65 68 73 77 80 83 76 66 58 52 46 39 35 34 34 34 37 40 40
56 59 69 65 63 76 68 49 39 38 39 46 48 50 50 54 65 68 71 72 70 69 67 68 72 76 76 69 60 56 51 46 41 40 42 45 45 45 48 55 62 68 68 68
65 62 80 88 77 73 70 59 52 52 53 56 61 57 56 57 71 70 73 73 73 76 83 81 75 69 68 62 54 53 53 52 49 48 49 51 54 53 49 49 60 69 70 87
59 68 79 84 69 62 67 65 61 59 62 62 61 69 71 68 69 72 76 79 84 80 72 66 64 57 57 55 53 50 46 42 40 40 41 44 48 51 57 58 48 49 47 44

GFSCGP_850_rhum_048.txt.gz
RH
39 41 42 38 36 32 31 32 31 30 26 39 43 39 45 66 75 85 92 78 79 79 65 70 68 58 57 62 70 73 74 60 49 48 76 87 90 91 81 80 85 62 66 69
43 46 37 34 38 37 32 33 34 28 27 34 40 40 30 54 71 72 87 82 74 70 77 72 71 68 58 58 58 61 67 68 62 68 76 84 85 84 82 90 77 63 67 73
44 32 37 38 33 32 31 32 30 30 31 32 30 36 30 33 50 64 68 55 60 56 60 64 64 66 62 61 62 60 59 68 68 63 71 77 84 85 79 86 69 66 72 82
41 34 36 37 36 33 35 28 29 32 35 42 29 42 30 31 46 52 58 64 61 59 61 57 59 61 58 59 65 68 69 64 65 64 65 70 67 78 70 84 74 71 76 80
36 38 41 39 35 33 34 27 30 32 39 36 34 37 31 31 33 38 50 59 57 53 50 54 56 54 57 61 64 66 68 76 74 73 70 68 77 85 94 85 75 79 79 78
32 36 35 34 30 31 27 31 40 50 46 49 36 39 42 34 30 30 32 49 54 53 53 51 54 58 59 60 65 67 66 68 74 71 71 68 70 71 94 86 84 86 79 80
35 36 34 35 34 31 32 41 55 57 66 55 43 50 47 31 29 29 34 31 35 48 49 49 53 54 56 57 58 65 69 66 59 54 63 65 73 76 97 88 88 82 78 77
46 42 36 34 33 37 35 40 61 44 64 47 45 52 35 29 36 35 31 24 26 37 45 47 45 47 51 54 54 58 61 62 61 60 64 69 85 89 98 95 93 77 71 72
49 40 36 36 34 30 38 44 38 67 70 79 53 42 28 31 34 43 39 33 27 25 36 40 44 47 49 49 50 52 51 60 62 66 72 80 78 98 99 83 90 82 74 77
36 35 40 36 34 32 32 37 44 57 51 52 48 44 41 33 31 46 44 39 40 38 38 40 40 43 47 47 50 53 49 51 58 66 74 81 87 82 73 66 68 78 79 76
41 32 33 39 40 39 41 41 43 46 57 55 66 49 34 29 32 33 41 38 37 38 33 35 38 40 39 43 49 47 49 53 63 73 79 82 76 70 61 65 68 75 77 88
40 43 43 38 34 33 34 40 44 64 45 66 76 54 29 28 31 32 32 35 35 38 40 38 38 38 39 43 44 47 53 62 72 79 72 66 70 70 72 67 86 94 95 95
45 45 46 40 38 39 39 41 45 55 62 62 71 51 28 30 26 22 28 30 36 39 43 46 45 43 43 45 49 54 60 58 58 61 63 65 67 68 76 89 92 92 87 83
31 52 42 41 38 41 45 41 50 51 74 59 60 42 32 30 30 25 19 21 28 37 43 46 49 52 58 63 63 57 54 56 58 62 67 76 84 90 88 90 83 80 76 77
41 43 45 38 32 38 37 40 49 46 46 51 44 49 38 33 30 28 24 27 29 30 39 47 51 58 61 68 64 62 61 64 68 68 82 99 95 92 92 78 78 71 73 92
47 45 35 43 41 39 39 37 48 42 39 42 40 40 35 32 34 37 38 45 52 54 50 47 49 55 58 60 64 73 81 83 83 90 97 98 95 88 78 75 75 84 84 94
49 59 59 48 49 42 60 45 42 40 40 40 48 40 38 40 43 44 43 44 47 48 46 41 40 41 43 50 56 64 75 85 90 94 94 92 80 76 78 80 87 96 98 96
62 58 68 73 63 60 39 39 36 42 39 36 37 38 41 46 57 51 48 48 44 42 40 41 42 42 46 52 63 73 82 87 90 93 92 83 79 77 82 93 98 100 100 100
62 71 78 70 73 51 38 38 41 38 36 41 43 59 57 56 51 60 52 46 44 43 43 41 41 41 47 59 71 83 85 89 93 91 84 80 81 87 95 99 98 100 86 54
62 69 67 81 68 66 49 38 31 32 47 45 52 65 62 58 51 70 60 55 52 49 48 48 53 57 65 71 85 89 89 88 83 80 81 82 88 93 98 94 56 55 52 46
84 84 75 93 77 71 52 35 28 42 48 41 46 51 54 56 49 59 60 58 56 56 58 62 66 65 71 80 84 82 80 78 77 79 85 91 98 94 68 55 50 42 35 33
73 84 87 86 81 73 38 37 42 42 32 34 41 43 49 46 60 60 60 58 60 61 65 66 65 68 72 72 70 72 75 93 98 95 92 78 58 48 40 36 35 37 37 38
64 66 74 69 71 51 39 36 30 29 32 38 37 41 39 44 60 63 63 63 64 64 65 66 65 70 75 80 81 79 76 69 59 49 42 37 38 41 47 47 47 48 52 60
58 58 66 62 60 68 58 46 40 32 32 34 35 36 38 41 59 64 66 67 66 67 68 70 71 72 72 68 64 58 49 42 39 39 40 40 41 39 41 41 43 46 49 50
66 64 76 73 79 76 69 58 45 39 38 40 42 40 43 47 65 66 70 71 72 72 75 76 73 69 62 53 46 44 42 40 37 36 36 35 35 32 24 15 10 8 8 12
67 69 74 65 57 48 48 46 51 44 45 45 44 57 60 58 62 70 73 73 74 78 79 73 65 57 57 50 43 38 34 34 34 33 27 19 11 8 7 7 6 8 9 10

GFSCGP_850_rhum_051.txt.gz
RH
39 35 35 34 35 31 30 32 28 27 30 29 35 38 36 80 83 84 84 87 94 71 84 63 53 52 53 58 70 75 76 72 68 53 43 44 56 53 60 80 76 73 71 59
40 43 35 34 37 36 34 33 32 28 27 32 31 29 32 64 72 74 79 80 82 83 89 79 66 59 56 56 60 65 74 75 61 47 38 49 54 64 78 79 82 74 74 62
41 32 37 37 36 36 32 33 31 30 28 31 30 28 33 36 61 74 74 75 75 79 63 74 74 70 64 57 55 59 64 68 73 55 46 49 72 82 88 84 75 81 72 66
39 36 38 40 38 33 36 30 31 31 30 31 28 32 29 30 40 53 66 71 72 58 62 62 64 67 68 65 60 58 59 61 73 76 66 64 66 75 68 67 79 85 71 70
36 41 42 40 37 33 32 30 32 32 34 35 33 31 27 30 30 34 46 61 62 57 48 48 48 51 59 58 56 57 61 65 69 79 82 73 71 75 78 82 100 86 76 76
33 36 35 33 32 33 31 34 38 42 40 45 35 32 30 26 25 25 25 40 57 48 40 41 44 52 52 55 58 57 61 64 72 76 73 75 73 71 72 75 95 93 81 82
37 36 35 34 34 32 32 35 44 46 50 47 43 43 34 28 27 27 30 30 37 44 46 40 43 46 50 52 55 56 58 61 67 67 65 70 66 76 81 86 99 96 86 87
35 36 36 36 33 34 38 35 50 46 49 40 43 41 23 28 28 38 37 32 29 35 43 46 40 41 46 48 52 56 58 60 59 62 65 70 63 72 85 100 100 97 94 90
48 38 33 37 34 30 38 41 37 56 67 61 41 34 24 27 29 39 40 31 28 28 33 38 49 47 47 48 47 48 55 57 57 59 64 71 67 64 69 79 100 99 99 94
39 37 41 37 36 37 35 35 44 50 53 53 39 40 26 26 30 31 38 39 30 32 33 35 38 42 46 49 51 54 58 57 55 50 53 68 68 74 78 91 93 100 100 99
38 33 36 40 39 36 40 40 45 40 46 44 49 36 32 25 28 32 36 36 31 28 30 34 36 38 41 44 46 48 53 55 55 54 53 64 74 81 87 86 93 99 100 100
39 45 50 38 35 33 36 40 40 53 46 58 56 42 26 29 26 30 33 34 33 31 32 33 33 36 40 43 46 46 50 50 50 54 59 70 72 65 72 80 72 81 99 100
43 43 42 34 35 40 40 40 41 48 55 56 66 41 26 29 27 24 28 28 34 37 34 34 36 38 37 37 39 45 47 51 59 62 67 64 65 69 73 74 94 100 99 100
30 46 41 38 32 38 48 44 44 44 58 51 48 38 30 28 29 25 23 22 22 33 45 53 54 52 50 53 51 52 58 59 62 67 72 77 89 98 100 100 95 100 100 100
41 43 45 37 31 37 38 39 47 42 43 48 39 42 31 30 28 28 29 29 33 38 48 55 60 60 61 65 68 71 76 83 87 95 98 99 99 99 100 97 94 89 83 87
48 44 48 44 41 39 40 38 42 43 40 42 38 40 31 31 33 39 44 54 59 58 56 56 60 63 65 67 67 70 76 85 91 94 100 99 99 95 94 90 87 83 81 88
53 59 56 49 48 42 58 46 43 43 41 38 46 38 35 35 39 46 56 57 62 61 55 49 47 47 49 54 60 66 73 81 91 97 99 100 99 94 87 83 80 85 94 99
59 58 62 68 62 64 37 39 36 39 38 36 36 33 34 38 61 56 58 54 56 58 52 47 44 44 48 54 62 71 84 92 96 98 95 89 85 83 85 98 99 100 99 99
53 65 71 74 60 48 36 36 39 39 28 34 34 35 49 63 61 67 58 52 50 48 46 46 47 49 56 65 74 80 86 92 94 91 87 85 87 86 88 96 97 98 88 53
64 63 64 71 63 64 46 35 34 30 41 36 37 49 58 60 52 50 59 56 55 55 56 57 62 68 66 74 84 83 89 90 88 87 86 87 87 88 88 98 86 58 52 46
74 72 67 75 72 59 45 36 29 45 38 36 42 51 57 50 44 49 58 61 60 63 65 68 71 68 74 85 86 83 85 84 85 86 84 85 93 96 87 56 44 35 32 30
68 74 80 75 77 59 43 37 42 40 29 27 43 51 58 45 55 57 62 64 67 66 69 69 68 73 79 80 76 76 78 86 89 92 85 71 54 44 38 36 36 38 41 43
72 61 65 58 60 51 36 32 26 25 25 30 38 47 47 51 63 63 65 67 67 67 67 69 68 72 76 76 76 74 75 71 63 50 41 39 40 40 39 39 37 32 24 12
66 62 61 56 52 52 42 35 34 31 29 28 37 40 42 44 61 66 67 68 68 69 69 70 70 73 77 77 72 66 54 46 42 40 37 35 34 30 24 12 7 6 7 7
66 65 66 64 59 71 56 43 35 37 36 35 43 42 44 40 60 60 66 68 69 70 72 72 70 69 65 59 52 48 46 45 36 31 29 24 14 8 6 6 6 7 8 10
65 63 68 66 43 43 35 30 38 41 37 39 38 47 51 45 51 64 68 70 72 74 75 73 69 64 57 51 44 40 37 34 28 21 13 9 7 6 6 7 7 8 10 12

GFSCGP_850_rhum_054.txt.gz
RH
27 24 23 17 20 21 20 20 18 19 22 22 21 20 18 40 53 47 53 68 82 72 78 78 81 82 83 83 88 88 88 83 92 92 85 73 57 75 62 67 78 71 71 69
29 26 21 23 25 28 25 22 19 20 22 24 18 18 20 30 44 48 46 52 57 67 74 74 77 75 76 80 86 86 84 92 94 90 86 78 73 79 67 68 68 72 74 70
23 23 26 26 26 29 26 23 21 20 20 19 20 18 21 26 37 43 48 45 47 54 65 72 70 75 80 77 86 89 90 92 96 92 90 85 86 89 60 50 53 73 73 72
22 20 27 27 27 24 25 21 23 23 23 24 20 26 18 20 28 35 41 48 47 45 54 67 74 73 74 76 75 76 77 84 93 97 86 81 72 74 74 58 68 69 72 83
25 27 30 30 26 24 24 24 25 24 24 25 22 23 17 20 19 20 28 37 45 47 48 55 66 72 77 78 78 79 79 81 89 94 96 93 82 73 82 86 71 73 78 88
19 26 25 21 24 24 24 26 27 28 25 33 23 23 19 16 16 16 17 23 35 42 47 46 53 65 72 80 85 87 84 83 89 94 76 90 90 87 93 75 71 78 86 92
23 24 22 25 25 26 26 28 36 40 38 38 28 27 19 15 17 18 20 22 22 33 44 49 49 57 66 74 87 83 78 85 86 87 76 74 78 81 90 90 67 82 87 88
28 29 24 23 23 24 26 26 35 44 42 32 30 29 18 19 19 20 27 29 29 26 34 42 48 52 60 69 86 70 62 76 82 71 59 64 66 69 76 79 78 86 84 94
26 22 22 25 24 23 30 32 24 36 50 44 25 20 15 17 19 21 23 29 26 28 33 36 39 48 56 65 80 81 86 86 86 74 74 64 61 66 76 74 75 82 96 98
23 26 26 30 28 28 27 23 34 32 45 42 26 24 16 18 16 17 17 19 28 33 34 37 41 46 56 63 72 88 87 85 92 95 72 65 66 75 91 81 77 80 91 99
19 22 35 33 33 26 32 31 30 27 31 36 35 25 17 16 16 18 22 25 28 36 39 43 45 49 57 65 72 81 80 83 88 94 97 96 96 87 85 89 91 80 82 96
20 24 30 27 27 26 23 26 28 38 39 37 42 31 14 16 18 20 22 25 31 39 45 48 55 59 62 65 71 76 79 82 85 95 99 99 85 78 88 89 87 83 90 100
26 28 33 30 30 29 27 25 24 27 34 32 50 31 18 19 20 19 20 23 30 41 44 48 52 58 65 70 74 77 79 82 88 92 87 71 75 82 82 85 98 99 100 100
25 22 26 31 22 19 30 26 24 28 37 29 30 23 19 18 18 17 21 23 24 35 47 49 55 61 69 72 79 85 76 58 62 69 74 82 94 98 99 99 99 99 100 100
26 28 25 20 17 16 18 18 22 26 26 28 25 22 20 17 18 18 24 28 31 34 47 57 59 68 77 88 76 79 72 78 84 94 100 99 99 98 99 98 99 100 99 100
30 28 30 29 22 22 22 19 18 21 20 25 24 24 19 20 22 24 28 35 41 52 60 65 68 77 88 91 86 86 86 91 92 98 100 99 98 95 93 91 91 90 92 95
40 33 36 34 30 30 50 34 24 22 26 26 26 22 18 22 23 24 33 42 51 62 70 76 81 86 84 68 69 72 78 86 90 94 99 98 93 92 91 90 90 90 88 92
45 42 40 42 64 78 24 25 21 23 22 21 22 21 19 20 27 40 46 52 61 67 74 78 76 70 66 65 69 75 83 87 89 92 92 93 92 92 96 85 84 87 89 97
42 43 52 74 48 30 31 30 29 30 25 19 21 19 19 34 43 50 58 57 64 70 73 75 74 67 71 73 76 76 83 87 88 89 89 93 92 86 86 86 86 89 98 100
49 49 52 59 52 74 27 21 23 24 33 18 18 21 23 38 40 26 61 67 69 70 72 75 78 80 79 82 84 85 90 93 98 100 100 99 97 87 89 94 96 82 72 59
67 64 70 59 63 39 27 25 26 36 33 22 21 23 33 38 31 46 62 70 69 73 75 79 81 81 85 88 89 91 97 100 99 97 86 84 86 92 87 64 48 43 55 37
57 64 80 58 83 70 31 30 29 24 30 27 31 31 38 43 59 62 65 68 73 76 80 83 85 89 92 93 93 92 91 90 84 85 89 81 58 44 38 35 33 34 33 26
60 47 48 46 39 31 33 23 26 31 24 34 32 37 42 61 60 64 67 71 72 74 77 83 88 88 85 82 81 80 83 84 78 64 48 39 36 32 29 28 20 24 24 26
49 52 58 52 30 34 36 29 37 36 33 36 36 43 57 56 62 66 69 70 70 72 75 79 83 84 84 82 79 74 72 58 46 40 37 32 28 22 12 10 10 32 16 15
35 51 48 46 39 40 45 41 34 44 42 36 42 50 53 57 62 66 68 70 69 72 78 79 83 86 81 75 68 57 49 49 42 32 26 19 11 8 14 17 8 9 13 8
44 44 60 53 33 42 28 35 43 46 49 41 47 57 59 58 61 66 68 70 72 76 78 84 86 77 68 59 51 47 40 36 28 21 13 10 8 7 12 33 54 20 10 11

GFSCGP_850_rhum_057.txt.gz
RH
20 20 19 14 13 14 15 15 15 28 32 21 18 16 16 24 30 31 39 46 51 61 64 74 71 66 62 71 78 83 87 84 78 77 78 76 74 72 76 75 90 85 77 87
20 24 15 15 17 18 16 17 15 13 15 17 16 17 20 18 28 30 34 49 51 48 61 65 69 70 68 69 72 76 76 74 72 66 67 64 66 67 79 84 89 85 82 94
22 17 16 19 19 21 19 19 16 16 17 16 16 17 19 14 24 28 31 35 42 53 56 60 65 66 69 70 72 69 71 72 73 67 65 65 64 60 66 75 86 68 72 70
19 15 19 20 21 19 22 15 16 19 18 20 21 25 25 16 19 25 28 29 34 38 51 58 62 63 67 69 73 74 72 70 72 74 67 66 64 61 64 77 86 81 48 54
19 17 22 23 20 18 19 19 19 18 19 19 21 19 20 14 14 16 21 26 29 33 41 48 53 56 62 65 69 74 74 71 69 71 72 71 71 65 64 75 86 84 52 63
16 15 16 17 17 19 16 21 21 21 22 29 20 23 27 24 13 13 13 21 26 30 32 39 47 52 55 62 68 72 74 69 67 70 77 79 75 78 65 66 92 95 94 75
19 19 17 18 21 20 21 23 35 44 33 33 20 21 18 22 12 12 13 14 19 26 32 33 38 49 54 59 66 70 71 68 69 71 76 82 86 87 86 76 89 95 96 100
24 24 19 18 19 20 24 22 35 51 46 33 25 24 17 13 13 13 14 17 20 20 26 32 34 40 49 56 66 72 71 72 70 76 82 88 91 93 96 96 94 98 100 100
21 21 13 14 15 15 20 28 19 30 34 39 23 17 14 12 14 14 15 18 20 22 21 27 33 36 42 52 60 71 76 75 75 78 89 86 63 96 99 97 100 100 100 98
16 23 15 16 16 17 20 21 30 29 51 48 23 20 18 15 14 13 13 15 21 23 22 25 28 34 39 46 55 71 82 79 80 88 91 98 98 99 96 99 99 98 98 82
16 20 22 23 26 22 25 28 25 23 27 47 38 21 15 14 13 13 13 15 17 24 28 29 31 31 36 42 52 69 77 76 80 83 85 95 99 94 93 97 100 100 96 98
17 20 29 28 17 15 20 23 24 35 36 33 33 33 14 13 13 14 14 15 20 25 28 34 36 37 41 48 54 62 72 75 74 77 84 96 99 100 100 100 100 100 99 99
19 22 31 26 23 21 22 23 22 24 26 44 66 33 14 13 14 14 14 16 20 25 29 37 46 48 49 53 57 63 70 71 72 78 86 98 100 98 100 100 100 98 99 100
22 21 27 32 23 20 24 21 20 23 38 32 27 21 17 14 15 14 15 16 18 25 28 27 35 45 54 61 66 73 81 85 92 91 94 100 100 100 98 97 96 99 100 100
24 27 22 19 17 15 16 19 19 21 21 28 23 20 16 14 14 13 15 18 19 19 26 29 34 44 58 69 77 99 90 90 83 87 98 99 99 99 98 99 98 98 100 99
23 31 24 23 18 17 17 14 14 14 15 16 17 17 13 12 14 16 19 20 22 22 26 36 42 55 69 82 87 100 92 92 100 100 98 98 97 96 98 95 95 98 97 99
28 32 30 37 21 20 34 20 16 15 15 16 21 17 13 14 14 16 17 22 26 35 41 47 54 69 80 88 95 99 100 94 96 98 98 98 97 92 92 94 97 92 88 86
40 35 35 48 61 63 25 16 16 18 16 14 15 14 14 13 13 19 22 25 37 46 55 62 70 76 81 83 86 90 90 92 92 92 92 91 94 96 99 95 94 87 85 89
35 44 51 61 47 30 20 22 21 20 19 14 15 15 14 15 25 32 35 36 46 54 60 64 69 73 76 77 78 79 81 85 87 89 92 98 99 93 98 99 99 98 98 97
37 40 59 56 54 57 27 19 16 16 32 16 14 15 15 22 33 20 39 47 54 58 61 65 69 70 73 74 74 76 80 81 85 91 98 99 100 100 100 98 97 90 80 70
70 64 77 65 56 34 19 17 15 37 34 15 15 15 17 22 23 34 45 55 56 57 62 67 68 68 70 72 75 76 83 91 96 95 96 94 90 89 88 82 73 66 65 72
69 65 82 64 67 68 25 23 28 24 19 19 19 18 21 25 44 47 52 53 56 60 67 65 67 71 74 76 78 85 86 86 87 86 83 82 77 67 69 69 64 58 55 55
50 44 53 42 40 28 30 25 23 20 19 23 23 22 25 40 46 50 51 54 58 62 62 66 71 76 79 79 79 76 79 80 82 80 76 70 61 53 47 46 44 41 48 50
34 33 43 38 32 29 27 30 31 27 25 26 27 26 31 45 47 50 52 56 58 59 63 67 74 74 73 72 70 75 78 77 74 68 63 54 46 37 32 36 35 46 46 31
34 34 38 34 25 26 27 33 37 32 31 32 32 30 35 44 47 50 53 56 55 58 63 68 68 70 70 71 75 75 72 66 60 54 46 40 23 35 39 34 29 16 8 6
22 26 43 43 24 36 34 32 32 34 33 39 36 35 43 43 47 51 54 56 56 58 64 67 72 76 78 78 73 70 65 55 48 43 39 24 16 18 41 44 42 26 20 11

GFSCGP_850_rhum_060.txt.gz
RH
19 22 23 18 16 15 15 16 16 23 19 21 24 17 22 27 46 27 39 39 49 60 62 62 70 74 78 78 81 77 75 74 69 72 71 82 89 84 59 73 69 75 69 69
21 27 18 14 13 17 17 14 14 14 18 22 17 15 15 37 50 26 30 40 45 50 62 66 60 66 66 67 80 80 72 65 72 78 66 86 75 61 52 64 71 77 73 74
25 19 16 15 17 19 17 18 16 17 23 17 17 17 15 17 21 22 29 42 39 48 59 69 64 64 67 66 75 84 72 74 75 88 71 72 66 60 62 71 71 81 70 65
20 16 17 18 20 16 22 15 15 15 21 21 18 28 23 19 19 21 24 34 43 48 56 65 67 67 67 72 74 77 75 75 72 69 66 64 67 68 67 64 72 74 64 68
22 18 18 21 18 16 20 17 19 18 18 20 18 30 27 19 21 20 24 25 40 46 50 59 64 68 69 69 71 70 71 71 73 66 68 67 63 61 60 61 70 80 80 72
17 14 14 15 16 15 16 18 20 20 21 33 21 25 21 23 24 18 21 24 28 38 47 52 61 65 66 67 72 72 70 71 71 69 64 67 70 68 64 65 67 76 75 70
19 17 13 14 18 18 20 22 36 57 47 42 18 19 25 32 28 18 18 18 23 32 36 45 53 58 61 64 66 72 72 74 70 70 72 74 66 76 71 66 67 78 82 72
27 30 17 16 19 21 22 23 38 49 79 52 39 29 18 20 20 14 12 12 19 23 31 35 41 49 52 59 65 66 72 71 73 70 69 70 75 73 76 77 76 79 78 72
28 26 14 16 16 17 20 30 21 32 54 65 41 32 16 14 13 13 13 15 17 18 23 31 33 42 48 52 59 66 70 73 71 68 68 70 69 51 84 82 88 94 89 100
22 29 19 14 14 16 18 14 33 30 58 55 28 20 32 17 15 12 13 16 21 20 20 21 30 34 45 50 55 60 64 68 70 70 70 71 61 74 77 81 93 76 96 99
20 25 24 15 18 19 19 23 28 27 31 47 53 39 43 21 14 13 14 14 16 21 24 23 24 30 36 44 52 58 65 70 73 74 75 77 80 89 83 77 76 77 93 88
21 24 31 23 16 16 18 23 24 40 37 40 48 38 17 18 16 15 14 13 17 20 24 28 29 29 35 38 46 60 71 74 75 75 78 81 88 88 65 74 94 95 100 99
22 28 36 28 23 19 21 21 26 26 27 40 73 44 16 15 14 14 14 14 18 22 25 31 36 35 35 39 45 64 68 73 72 71 70 82 67 76 94 98 98 100 100 100
26 28 31 40 39 24 25 21 23 32 53 40 48 38 24 16 17 14 14 14 15 20 24 32 40 43 44 47 51 58 67 70 71 77 72 70 85 93 98 100 100 100 100 99
30 37 31 24 20 19 21 21 19 20 33 54 37 23 18 16 17 17 17 16 17 17 22 25 35 46 53 58 61 66 74 73 74 79 79 94 98 100 100 100 99 98 97 100
28 36 32 36 22 20 25 21 17 17 17 18 19 21 14 12 13 12 17 18 18 17 18 24 33 46 58 68 78 81 79 89 90 90 98 99 98 98 96 98 100 98 98 99
36 36 39 47 28 25 35 23 18 17 16 17 22 18 14 14 14 15 14 17 19 20 22 25 34 51 66 83 87 94 93 100 98 95 98 97 99 100 100 99 100 98 90 83
44 39 40 59 62 57 27 19 16 18 16 13 13 13 12 13 13 15 17 17 22 29 35 38 48 64 74 90 98 97 95 100 100 99 100 99 97 97 99 96 94 88 81 86
40 48 87 69 57 37 27 22 22 22 22 16 16 14 12 12 19 27 25 25 28 38 46 52 66 78 85 88 94 92 95 94 93 92 93 94 94 92 99 100 98 100 99 94
52 52 68 81 69 66 39 24 16 19 35 18 16 18 17 18 36 23 27 32 41 49 57 64 71 76 78 81 82 82 84 86 88 90 94 90 95 99 98 99 93 94 92 82
79 86 89 77 86 54 26 22 18 39 39 20 17 17 18 23 24 25 28 43 49 54 59 65 70 71 73 74 76 79 81 84 88 88 92 97 99 98 96 94 85 72 62 67
76 87 93 78 89 85 27 23 30 29 21 20 19 18 17 26 28 31 40 50 52 55 59 65 66 68 69 72 73 77 81 84 89 90 89 88 87 83 79 70 65 63 61 54
52 50 68 65 56 37 30 26 23 24 30 26 23 20 20 30 37 41 47 51 51 54 61 62 65 68 70 72 75 81 85 87 84 81 80 75 69 66 65 62 49 47 42 38
37 39 49 51 40 42 44 35 30 29 30 28 27 26 25 32 41 46 49 49 53 56 60 61 66 71 73 75 78 78 80 81 80 77 72 64 54 44 42 40 39 37 35 29
34 33 44 46 36 35 31 27 32 31 31 32 30 30 29 36 42 46 48 51 54 57 57 62 70 74 76 75 72 76 78 78 73 68 60 54 41 35 40 36 30 19 15 8
27 28 44 53 32 36 33 24 24 27 28 29 32 34 32 33 44 46 49 52 55 55 59 66 72 72 70 69 73 75 74 67 62 54 48 38 27 36 41 29 26 18 15 12

GFSCGP_850_rhum_063.txt.gz
RH
21 30 33 30 27 24 24 22 22 26 27 35 39 37 59 61 68 69 65 59 70 83 73 78 80 79 80 82 84 87 86 88 80 89 91 75 64 64 62 64 52 69 69 71
30 33 25 21 21 22 22 23 22 22 25 25 28 30 42 62 64 57 54 66 68 70 78 74 68 62 78 78 84 83 81 80 87 71 65 63 69 60 57 54 66 72 74 75
33 27 22 23 22 23 23 23 24 23 24 22 27 30 45 46 42 47 47 50 57 64 77 77 73 59 69 67 60 66 67 67 64 64 70 76 84 83 78 61 69 70 72 68
31 24 24 23 25 21 26 20 21 22 26 36 22 41 25 35 39 39 43 48 51 66 60 70 76 69 51 51 56 57 59 57 60 68 68 72 83 81 66 47 46 54 60 64
30 27 27 27 23 20 23 23 22 25 31 30 28 42 36 27 28 32 47 46 49 59 63 61 65 68 64 51 51 56 56 59 67 74 82 84 70 64 51 56 61 60 65 68
25 19 21 22 18 20 19 23 25 25 32 46 31 38 39 32 26 24 33 47 42 54 65 62 59 62 66 64 63 54 54 55 56 66 77 83 71 65 66 67 65 64 69 70
28 25 20 17 21 21 23 28 52 65 66 62 35 44 29 30 26 26 32 50 38 33 61 65 66 62 69 72 70 70 66 57 64 70 66 67 72 70 66 65 62 62 65 66
39 42 24 18 20 25 28 32 62 57 80 67 40 53 29 28 22 22 19 29 30 51 56 62 62 62 63 66 73 73 71 67 68 72 71 65 60 68 74 72 70 67 67 67
37 34 19 18 18 20 29 35 29 44 55 72 57 35 32 26 26 19 14 15 36 48 52 55 57 58 58 59 63 68 69 69 70 73 75 73 72 71 68 72 71 70 72 75
30 39 23 20 17 22 22 22 41 49 70 77 51 45 48 37 21 15 17 22 22 34 44 51 53 52 53 51 51 57 59 61 63 68 70 71 75 72 72 73 80 76 90 85
24 33 37 23 26 25 30 28 29 40 49 66 64 54 44 38 29 17 23 17 21 22 22 34 46 45 42 48 52 52 57 58 63 65 65 69 70 68 70 69 82 75 65 80
24 34 39 33 23 18 22 26 30 60 52 56 66 55 29 31 26 19 16 16 18 21 24 24 31 40 51 48 52 53 51 55 64 67 71 73 73 76 79 89 93 72 94 84
25 29 46 42 29 23 24 24 27 31 46 57 71 60 30 28 25 18 17 19 20 23 26 27 27 31 40 52 56 59 68 76 72 84 73 73 70 69 77 72 100 100 98 99
23 34 33 44 40 32 32 27 26 34 61 54 61 47 34 33 29 22 14 15 19 20 27 28 33 33 37 48 54 61 70 67 70 79 64 68 69 67 89 95 98 100 100 99
31 32 31 34 27 29 30 31 27 29 37 53 49 48 38 33 24 22 17 16 20 20 28 32 34 39 41 47 53 60 63 71 82 60 64 72 84 99 97 96 99 98 97 99
37 44 35 37 32 30 31 28 31 28 25 42 44 46 26 23 17 17 19 18 17 19 24 33 39 46 44 47 58 69 71 70 70 66 74 77 91 100 98 98 97 96 98 96
72 53 52 50 36 34 49 36 29 29 27 28 45 34 24 21 19 19 18 18 19 18 19 28 42 49 49 40 51 66 77 87 88 84 92 100 99 96 94 97 98 98 98 97
86 51 64 76 58 62 34 25 25 28 24 21 18 17 18 17 14 16 15 18 19 18 18 22 42 49 52 54 59 65 78 93 99 98 98 98 95 97 100 100 100 100 98 84
82 73 87 73 61 44 36 27 28 31 31 20 19 18 18 14 22 25 21 19 21 22 24 27 43 53 60 63 67 72 87 89 99 98 99 100 98 93 91 94 96 87 76 76
89 75 87 95 81 69 45 34 27 26 40 24 22 24 24 23 40 37 24 21 26 28 31 37 51 68 75 82 82 87 84 88 99 96 93 93 90 92 100 100 100 97 84 87
98 94 99 98 99 84 46 30 25 46 45 26 22 23 23 33 33 20 25 25 25 31 43 54 65 71 83 87 86 83 82 89 89 86 87 92 96 96 100 98 88 89 89 82
82 93 99 99 97 95 44 40 38 39 28 27 21 24 24 20 22 24 26 28 34 38 48 55 66 76 81 83 82 80 82 83 83 87 92 93 96 97 90 88 87 89 80 73
83 71 81 70 81 57 43 44 32 48 44 32 31 25 27 33 33 29 31 34 37 41 54 63 68 73 77 79 78 77 83 85 89 89 89 92 95 93 92 84 71 67 65 60
44 48 63 65 55 51 40 39 40 46 55 42 34 30 32 34 31 38 38 41 46 52 59 65 69 72 74 75 77 78 84 88 89 91 93 90 85 78 75 70 63 53 41 34
52 50 58 67 51 44 41 34 37 37 45 30 27 30 30 32 31 35 39 42 46 51 58 64 67 70 72 74 76 80 83 88 91 85 83 76 69 67 63 58 45 41 39 34
39 40 73 85 61 48 38 32 40 40 38 37 37 33 35 33 36 37 38 42 47 54 60 63 67 70 74 77 80 83 85 85 81 78 72 62 54 47 42 36 33 39 35 21

GFSCGP_850_rhum_066.txt.gz
RH
24 30 31 34 33 28 29 32 33 27 30 36 41 48 56 60 62 59 48 62 89 78 74 78 76 78 93 98 98 98 99 88 83 74 79 80 71 69 59 52 48 71 65 55
32 35 26 27 29 31 30 30 30 24 24 34 31 33 39 61 62 63 61 69 83 80 79 77 79 77 75 90 99 92 87 83 78 69 71 74 68 64 57 53 65 73 75 75
39 31 25 27 28 30 29 30 30 26 22 26 28 32 52 54 57 58 58 60 76 72 70 74 74 71 73 77 84 89 87 82 77 71 71 76 71 73 57 59 64 65 58 62
39 28 29 30 29 28 35 25 25 27 31 39 26 42 39 54 53 52 52 64 71 72 70 70 68 59 66 63 72 77 81 82 78 73 84 81 73 70 65 54 57 51 45 51
42 34 33 32 30 26 30 26 26 26 31 32 32 38 35 39 46 50 51 57 67 69 67 71 64 52 40 58 63 70 77 77 74 75 62 62 62 56 53 52 51 41 47 61
33 25 27 28 26 26 23 24 28 33 38 51 37 40 39 34 30 34 45 49 61 69 71 67 66 59 42 45 52 58 63 64 62 59 62 64 64 65 59 50 47 43 40 51
31 30 25 23 28 25 27 32 50 59 57 59 35 47 46 30 26 30 47 50 52 66 71 70 71 64 58 44 45 48 51 52 55 61 65 61 62 62 59 54 52 52 58 64
38 48 30 25 27 29 32 35 60 56 71 57 47 55 41 27 27 25 43 47 52 68 68 66 64 60 60 55 49 48 46 44 47 54 61 64 66 74 76 71 65 66 65 63
46 42 25 24 22 23 31 41 32 50 59 71 56 44 32 30 25 24 35 45 51 60 65 63 66 62 59 60 55 56 52 46 44 47 51 63 67 78 81 80 76 69 70 68
34 44 29 24 22 23 25 28 43 57 63 70 58 52 50 31 23 20 24 42 47 52 49 54 64 63 62 59 57 61 60 59 53 49 48 63 66 69 70 72 74 78 75 74
28 38 38 29 29 29 31 34 33 44 61 73 73 57 44 38 24 27 23 25 23 35 42 46 60 58 61 61 72 61 64 66 65 63 59 62 68 70 75 80 82 95 98 82
29 36 43 34 28 22 23 30 36 52 56 65 72 52 31 39 34 25 22 23 24 24 26 32 43 48 60 63 68 69 68 76 84 85 84 82 81 84 80 81 86 86 69 85
36 42 51 40 34 27 31 29 28 39 52 52 72 59 32 35 32 25 21 18 19 23 27 30 32 43 58 61 62 66 72 81 84 80 79 89 89 87 83 86 93 75 68 66
50 49 39 45 35 34 33 31 27 31 66 50 64 43 36 36 32 30 25 20 19 21 22 28 34 34 39 47 55 63 66 73 77 64 58 89 88 83 69 70 72 77 79 90
68 59 40 32 28 29 33 34 29 33 39 55 48 54 41 38 32 32 20 18 23 24 24 25 32 33 36 37 46 57 61 65 72 70 50 55 67 78 96 90 86 100 99 99
76 82 47 46 35 27 29 28 34 34 33 38 39 42 31 25 25 30 23 23 18 22 24 25 28 29 32 32 39 55 60 67 72 67 61 62 65 100 100 100 100 100 100 100
85 92 92 72 43 34 50 40 37 34 33 39 54 44 31 28 33 30 23 20 18 17 20 27 31 27 29 27 26 39 59 70 79 77 72 85 99 98 99 99 100 100 97 96
83 89 97 96 59 69 41 30 30 34 28 26 29 33 32 29 25 23 21 18 16 14 18 23 30 30 33 34 40 53 61 71 79 95 100 100 98 100 99 100 98 97 97 98
73 89 100 100 70 51 46 33 33 32 35 28 25 22 20 19 20 25 19 15 15 16 17 19 23 32 40 46 55 68 76 82 88 96 99 98 98 100 100 99 98 99 99 99
87 87 87 100 97 71 45 34 28 28 52 28 24 26 26 28 40 39 20 17 18 20 20 21 27 37 48 58 65 75 81 92 100 100 99 96 100 100 100 100 99 100 96 83
98 99 96 98 98 86 62 48 32 49 43 33 30 27 27 35 32 16 22 22 20 21 21 22 27 36 50 59 71 83 93 96 97 97 98 99 100 100 100 93 89 86 82 80
93 95 99 100 99 92 49 46 50 52 40 35 38 39 34 24 22 22 23 22 21 21 23 27 30 46 63 75 80 86 89 89 93 100 100 100 100 96 100 94 93 87 83 84
80 71 89 84 76 57 46 55 49 51 52 51 43 37 38 37 24 25 26 26 27 22 24 29 36 50 65 74 81 85 87 87 92 97 97 95 96 99 100 98 88 88 90 85
50 55 66 67 50 53 44 41 28 37 38 37 42 37 35 41 32 34 30 30 34 39 40 42 52 64 69 78 81 83 79 83 89 92 95 99 100 100 100 94 91 93 88 76
42 47 47 67 56 48 46 42 37 36 34 35 37 38 42 34 36 37 32 34 34 43 50 51 57 67 73 78 81 82 80 80 87 93 98 100 100 99 100 89 76 73 71 70
52 58 78 74 53 52 49 30 26 34 35 34 39 41 43 39 36 34 38 40 44 50 57 62 64 68 74 78 80 81 82 82 88 96 99 98 96 92 81 72 66 60 57 52

GFSCGP_850_rhum_069.txt.gz
RH
30 37 41 33 33 29 30 32 36 31 26 33 44 43 41 53 65 64 64 75 75 72 83 83 70 71 98 95 98 100 100 99 100 95 94 99 87 82 73 65 62 63 62 56
35 39 30 27 31 33 35 37 38 31 26 37 39 42 41 63 65 60 59 60 58 69 81 80 78 65 90 98 95 100 100 99 89 91 100 88 76 79 64 56 68 74 59 51
41 34 28 28 31 32 35 38 37 35 28 36 32 36 34 49 57 58 52 52 53 57 69 77 73 52 71 92 99 95 99 99 83 78 94 86 88 78 69 55 55 51 47 52
40 29 32 32 32 32 36 32 30 32 36 42 30 45 32 43 62 66 59 58 54 53 63 70 68 59 52 66 82 94 98 96 88 80 71 74 77 82 64 57 50 48 54 59
40 40 37 38 33 30 33 32 34 36 37 35 34 42 35 40 53 56 57 52 51 46 54 60 61 61 44 57 65 76 90 91 84 78 73 79 78 69 65 63 57 54 54 62
31 29 34 34 30 30 28 31 31 40 42 53 40 42 43 39 38 39 47 49 46 46 47 56 61 65 56 54 59 68 77 82 84 74 68 69 73 72 69 68 69 55 54 55
30 34 27 26 32 31 33 36 56 60 55 51 38 47 41 32 29 28 34 45 40 43 52 55 64 60 62 50 49 53 64 67 71 76 72 69 73 78 70 65 61 54 51 51
39 46 31 30 31 34 37 39 63 57 67 54 47 63 46 34 31 25 25 27 35 50 53 48 47 60 58 55 40 38 44 57 64 66 63 64 62 55 49 48 50 50 49 42
45 39 28 26 26 28 36 44 32 46 62 74 59 46 34 29 31 29 40 40 47 48 53 45 46 54 59 57 47 33 34 38 46 45 53 58 57 57 61 61 57 54 53 61
37 47 34 28 26 28 31 32 46 59 65 72 58 56 52 36 31 24 35 56 49 47 51 54 52 53 58 58 57 47 38 36 40 44 47 53 57 61 60 61 67 72 80 83
29 41 42 31 37 35 36 35 38 46 64 67 75 62 46 41 38 27 26 38 49 49 46 50 52 52 57 64 63 60 50 44 42 51 53 59 63 65 66 65 69 79 84 84
36 44 45 37 28 26 28 34 39 58 52 70 72 51 34 39 38 35 29 22 26 41 39 42 42 50 63 62 63 61 62 56 52 48 47 46 47 49 54 62 68 74 77 83
54 58 54 46 38 30 34 32 33 45 53 54 66 54 35 37 36 32 30 22 24 28 36 34 47 51 50 52 59 65 66 65 63 60 59 58 62 48 52 61 68 80 79 78
63 62 71 64 45 34 39 32 31 35 56 49 48 42 33 33 35 32 28 22 21 18 24 37 37 41 40 42 50 60 57 66 70 70 68 67 66 70 69 85 86 79 100 97
79 85 73 70 56 40 34 33 32 33 36 46 36 47 37 35 33 31 21 25 25 20 21 28 27 29 32 38 44 56 62 65 69 76 77 77 78 80 85 89 86 76 90 96
78 88 92 83 53 42 39 31 35 36 34 36 37 45 41 33 29 32 28 24 25 21 17 26 30 28 28 27 31 38 51 56 66 74 78 81 80 88 95 95 89 77 74 78
83 90 98 96 76 68 68 44 32 29 36 36 46 41 34 36 36 34 28 25 24 22 21 20 27 31 24 24 23 23 34 49 64 73 75 80 85 91 74 87 94 85 96 99
93 91 95 98 84 96 60 38 31 34 29 34 35 34 34 34 25 24 23 24 22 20 19 19 18 25 29 29 27 31 37 47 59 68 75 84 90 89 88 85 93 100 100 100
79 90 99 97 86 71 48 43 38 40 37 32 34 31 27 22 23 22 18 17 15 16 17 16 15 18 24 33 33 38 40 49 59 66 73 80 94 94 92 98 99 100 100 100
85 81 85 99 97 87 39 45 32 38 54 34 27 31 32 28 39 40 17 17 16 13 14 17 18 19 25 31 40 46 49 55 63 69 77 98 99 98 98 99 100 100 100 100
98 99 97 98 96 85 62 48 48 80 62 41 39 35 27 34 34 22 19 19 19 17 17 18 20 21 26 36 47 57 64 67 71 84 99 98 99 99 100 100 100 100 99 100
92 96 96 98 100 87 59 69 91 67 55 51 48 47 45 42 29 26 22 24 25 23 26 24 23 24 26 37 50 63 77 84 91 100 99 100 99 100 100 100 99 100 100 100
80 76 84 85 77 55 44 60 43 64 64 54 50 46 44 42 34 36 35 30 37 32 23 19 19 22 30 46 60 75 87 94 99 100 100 100 100 100 100 99 100 100 99 94
54 59 70 79 56 57 40 35 42 46 48 38 46 46 45 41 42 36 38 36 42 54 32 24 30 43 49 67 81 93 94 94 98 100 100 100 100 100 100 100 100 100 99 96
58 54 57 54 47 48 46 39 38 36 38 39 44 42 39 41 38 40 40 38 38 40 45 48 47 54 63 71 85 91 93 89 92 100 100 100 100 100 99 100 100 100 100 98
88 92 94 80 77 92 50 36 30 31 34 39 39 38 38 43 42 42 38 39 44 41 47 58 66 68 69 76 85 88 88 85 88 98 100 100 100 100 100 99 99 100 97 90

GFSCGP_850_rhum_072.txt.gz
RH
40 48 50 45 37 30 32 34 36 34 28 27 31 39 35 40 65 68 65 75 78 77 80 90 85 91 91 88 89 99 99 100 100 100 91 97 96 92 91 94 70 64 66 61
39 48 36 35 35 33 33 35 38 34 28 32 33 39 34 49 58 56 59 59 62 80 87 89 79 79 97 91 88 99 98 100 100 100 100 100 100 100 98 89 78 64 67 65
42 37 32 31 36 36 39 36 38 36 33 32 38 43 35 32 53 54 54 48 52 59 75 83 79 77 75 92 96 96 98 99 100 99 100 96 89 96 84 78 70 67 66 65
40 29 33 34 34 32 38 34 33 35 38 48 36 56 35 28 40 60 59 52 49 49 60 70 74 73 58 67 84 94 98 99 98 89 94 92 91 90 79 76 74 67 73 67
44 41 37 41 36 31 31 34 37 36 43 41 38 48 40 35 36 33 48 49 44 43 49 60 66 64 60 55 60 74 85 88 95 81 93 99 91 73 73 70 66 65 73 72
34 33 35 31 29 31 31 34 36 43 50 64 47 46 48 38 34 30 36 32 32 37 41 55 62 64 65 52 55 59 72 87 88 80 78 96 84 71 73 67 62 59 56 56
34 35 30 29 38 36 34 42 59 63 66 65 42 50 37 32 29 31 32 25 24 32 38 43 54 58 64 61 47 52 57 70 83 79 75 70 77 79 77 65 61 58 54 53
40 44 34 33 33 38 44 46 68 60 69 52 50 58 45 37 32 30 28 24 24 29 36 39 40 46 49 60 51 42 49 56 64 69 68 66 68 71 73 71 64 61 63 64
47 42 26 30 31 28 40 50 38 47 61 74 56 46 34 31 31 30 32 30 28 31 32 34 40 41 44 49 60 44 39 50 60 69 69 68 64 66 71 70 67 65 65 66
38 46 35 29 28 29 34 37 49 63 61 69 58 56 46 35 32 36 29 45 34 35 40 35 40 40 40 44 55 61 44 36 46 58 69 71 71 68 69 70 70 63 56 58
34 42 42 34 38 39 39 40 40 49 63 60 62 59 49 36 34 35 31 23 35 40 32 25 29 42 50 47 48 59 62 49 41 45 50 58 59 63 62 58 57 57 58 56
42 47 50 35 31 30 32 38 40 53 52 74 66 46 33 38 38 39 33 28 22 24 32 34 38 44 53 50 53 55 62 62 54 38 35 35 35 39 36 36 42 46 51 61
67 72 69 54 38 34 37 36 37 48 54 48 66 51 36 35 33 31 34 22 23 21 25 32 41 42 42 48 51 54 58 60 61 56 44 38 36 34 35 43 46 56 57 59
50 68 70 83 71 67 62 44 35 38 56 52 47 39 31 31 36 31 24 22 22 21 21 24 28 30 32 38 47 43 52 58 61 64 60 52 45 42 42 45 53 58 62 58
61 82 85 80 72 65 66 60 46 40 38 45 39 39 37 34 30 28 19 20 25 21 23 20 20 22 24 30 36 37 42 48 58 64 65 64 58 53 52 52 53 60 75 84
78 75 90 87 73 66 67 60 47 42 38 38 40 40 32 30 28 30 26 22 23 24 20 20 19 21 21 26 28 31 30 33 46 59 60 66 69 68 65 64 66 67 70 83
79 88 95 84 79 66 71 58 48 46 39 39 44 42 32 36 40 38 28 25 24 22 22 22 20 20 20 21 23 26 26 32 35 39 53 65 71 74 78 79 77 77 83 93
80 86 95 96 84 92 49 55 38 53 47 38 35 36 32 33 27 26 25 25 22 22 21 20 21 21 20 23 26 26 31 35 35 42 54 61 66 74 78 83 89 96 99 98
78 91 99 97 93 67 47 33 44 49 48 35 44 37 33 25 26 25 19 19 18 18 17 18 21 19 18 18 29 31 34 36 40 44 52 54 59 69 77 88 98 100 100 100
80 80 89 100 100 91 44 36 42 39 49 45 56 50 40 32 44 42 20 22 19 18 18 19 19 22 19 18 28 38 40 39 42 46 51 58 67 79 100 100 98 98 99 98
98 99 94 98 96 82 63 64 53 78 55 78 69 61 62 46 38 29 27 23 22 18 18 18 22 21 23 23 27 43 46 47 51 60 72 92 99 98 99 98 99 100 100 100
90 95 97 94 97 94 54 70 72 73 53 50 48 61 55 50 45 44 41 39 23 23 23 20 29 35 30 32 42 48 52 54 66 90 100 100 100 100 99 100 99 100 100 100
84 77 88 85 81 59 50 46 44 39 36 31 36 34 64 48 46 42 44 46 44 45 50 35 30 48 56 56 55 51 58 71 85 99 99 98 99 100 100 100 100 100 100 100
58 65 81 74 44 55 40 44 46 41 41 37 35 52 52 50 41 42 45 44 43 48 52 48 65 60 43 68 74 75 79 86 97 100 99 100 100 100 100 100 100 100 100 100
59 59 64 61 52 62 42 46 64 63 54 52 49 49 54 46 42 40 45 44 44 38 53 55 61 73 66 68 76 90 98 100 100 100 100 99 100 100 100 100 100 100 100 100
91 77 86 78 97 97 92 84 89 77 71 50 46 52 44 51 51 47 43 42 40 37 60 53 67 76 78 87 88 94 98 100 90 90 93 98 99 100 100 100 99 100 100 100

GFSCGP_850_rhum_075.txt.gz
RH
48 42 48 40 32 25 26 29 25 26 26 26 22 23 22 25 51 51 58 68 87 86 87 89 86 83 77 93 99 100 99 99 99 100 96 100 98 100 83 84 57 74 71 74
43 49 38 36 35 31 29 30 28 26 27 28 24 24 21 26 32 36 41 58 72 80 83 87 84 86 81 88 98 100 99 100 100 98 93 90 92 96 91 93 72 70 70 76
38 36 35 36 38 37 34 34 30 26 29 26 30 26 26 23 37 44 49 51 54 63 71 79 76 81 91 91 91 97 99 98 100 100 96 98 92 93 96 99 76 68 75 71
35 29 37 34 34 35 41 31 29 30 30 26 33 33 30 24 23 30 31 53 56 57 62 69 72 68 72 69 76 89 100 98 100 100 96 88 92 95 96 91 81 84 85 78
39 40 37 39 34 30 30 31 30 29 31 34 28 35 31 30 25 21 21 32 44 45 50 58 59 55 59 60 64 80 96 100 99 100 99 98 100 96 95 91 88 82 84 77
34 34 31 28 31 28 29 32 36 42 41 52 37 36 32 28 25 23 23 26 30 45 53 52 54 59 60 59 62 66 81 93 94 99 100 100 91 98 95 89 80 77 75 74
38 33 32 31 33 33 31 37 45 56 58 47 39 42 32 26 24 24 24 23 26 34 52 53 58 56 57 58 48 58 70 78 84 94 89 89 89 85 90 81 82 79 75 68
34 44 32 31 34 38 40 38 48 45 57 43 43 44 30 27 28 29 30 29 29 29 40 48 44 47 48 50 49 42 55 67 78 79 78 84 90 84 82 75 76 71 67 67
35 31 27 32 30 30 43 48 35 46 58 58 42 38 28 24 24 25 28 27 32 33 37 47 48 43 44 45 49 40 34 47 62 69 71 71 84 90 85 74 72 74 70 66
38 41 33 29 29 30 33 34 47 50 52 50 44 46 32 29 23 26 27 27 26 37 38 50 50 39 42 46 50 54 39 30 39 54 58 58 59 68 78 78 73 72 70 66
35 41 40 36 34 35 37 39 42 40 50 44 45 42 40 32 28 30 33 30 25 25 37 43 60 57 41 44 49 55 57 42 33 37 47 52 52 55 60 60 62 64 68 65
57 47 46 34 30 29 33 36 38 50 49 62 56 39 30 35 31 35 31 25 21 22 24 39 43 48 44 44 49 48 56 59 51 35 31 41 50 48 44 37 35 41 47 49
52 64 57 46 38 41 43 37 36 45 48 48 60 41 30 35 34 29 32 23 20 18 21 27 42 43 45 46 48 53 52 53 62 56 47 36 37 49 45 44 44 44 44 44
52 68 89 68 73 68 74 61 55 48 55 45 46 38 31 27 33 26 28 20 18 18 20 24 28 31 34 37 40 47 50 56 58 64 63 56 44 35 35 40 46 50 44 44
53 61 58 66 48 51 57 62 56 60 52 52 40 35 31 28 27 26 24 22 21 20 22 20 21 21 26 27 26 29 41 54 56 58 66 64 62 55 44 41 42 43 48 46
54 75 77 78 54 45 60 57 42 52 49 44 40 39 28 25 26 30 26 26 26 20 19 19 20 20 21 21 22 23 23 30 46 52 49 57 63 65 63 57 50 48 50 53
61 84 88 76 70 68 64 46 49 40 41 43 48 38 29 29 31 34 29 27 28 23 20 21 21 20 20 18 21 22 22 24 31 35 42 52 60 64 66 66 67 66 63 64
62 67 94 90 87 81 39 41 45 47 42 37 38 34 35 31 30 28 25 25 22 21 19 18 20 21 20 21 20 23 28 23 25 32 37 45 53 63 70 73 72 76 80 83
62 67 98 94 85 56 38 29 36 47 38 61 53 57 52 50 40 32 26 23 21 20 20 20 21 18 17 20 22 23 30 28 30 30 34 40 50 68 73 78 81 87 99 100
74 74 98 98 89 81 43 40 53 39 56 60 62 65 66 49 59 45 44 38 32 28 27 25 22 19 19 17 20 24 26 32 28 30 43 48 52 58 69 78 98 100 100 100
86 99 95 87 91 70 56 48 58 60 50 54 56 55 62 58 54 54 47 48 47 40 28 29 27 22 23 21 21 26 38 42 46 40 42 60 77 83 96 100 98 99 99 100
75 75 81 82 85 81 51 59 56 46 54 53 40 41 54 50 50 46 45 44 45 42 47 38 36 32 33 30 35 44 56 60 57 67 75 82 98 100 98 99 98 100 100 100
77 74 76 72 64 54 59 52 42 44 52 52 54 49 47 54 53 56 49 42 43 44 50 69 70 60 60 55 49 52 65 74 66 73 80 97 99 99 99 98 99 100 100 100
64 63 70 70 51 52 49 49 82 81 88 84 72 58 55 65 67 54 51 51 50 44 43 62 84 77 73 88 81 81 73 78 92 99 100 99 100 99 99 100 100 100 100 99
51 59 62 64 50 66 46 82 97 82 79 74 65 72 70 70 67 59 60 53 51 49 47 58 73 85 91 97 100 99 97 100 94 99 100 100 99 100 100 99 99 100 100 100
70 64 72 58 89 93 86 94 99 91 98 94 80 72 75 70 68 71 68 63 55 69 42 69 66 77 98 98 99 100 100 99 99 100 100 100 100 100 100 100 99 100 100 99

GFSCGP_850_rhum_081.txt.gz
RH
16 21 19 17 18 17 18 16 16 13 11 13 14 12 10 10 9 10 13 14 20 26 33 48 60 67 72 79 87 98 95 86 94 99 99 100 100 100 94 88 85 80 75 70
17 28 16 14 15 19 20 20 18 15 12 15 14 13 10 9 8 9 11 12 17 21 30 47 63 70 78 84 90 100 97 100 99 100 100 99 99 99 82 78 76 80 76 71
24 22 20 18 19 22 23 24 21 20 15 14 16 17 14 11 10 9 10 12 13 18 26 44 63 71 82 84 91 100 88 100 99 98 100 100 100 96 86 83 78 69 61 60
29 23 24 26 24 21 31 20 19 19 20 24 15 22 14 10 9 8 12 13 14 16 24 37 60 71 75 81 90 93 85 99 100 99 100 99 97 95 80 75 76 74 71 72
46 28 27 25 24 21 27 19 18 18 22 24 20 22 17 12 12 11 11 11 12 17 21 34 52 66 71 78 88 90 81 99 100 98 97 98 100 90 82 82 80 72 68 65
31 32 27 26 19 20 21 20 21 20 22 32 23 22 20 14 13 12 11 11 12 16 21 32 46 59 64 72 85 93 91 97 96 100 99 93 98 96 93 93 77 56 43 48
48 31 29 28 25 21 23 24 34 37 37 38 20 23 21 13 12 12 13 12 12 15 23 29 42 54 60 70 86 90 96 100 97 98 99 97 97 95 83 81 61 47 38 49
66 59 26 28 28 28 26 26 32 43 44 35 20 26 19 13 12 12 13 13 14 18 22 26 36 49 57 66 79 83 92 97 99 98 100 99 99 96 98 83 64 50 47 58
56 42 25 26 26 30 36 33 22 42 36 39 31 22 18 15 14 13 14 15 14 15 18 26 32 48 54 63 73 80 82 86 98 98 97 98 100 99 98 97 75 62 62 66
32 46 22 22 25 30 32 28 42 38 54 51 32 26 25 19 17 14 16 16 17 17 19 25 31 44 52 60 70 79 77 75 84 97 98 98 99 98 100 97 90 81 68 68
27 34 54 18 25 31 34 34 44 41 37 48 50 35 19 18 17 16 16 17 18 21 24 25 32 38 49 57 67 78 80 68 72 83 93 97 98 97 99 96 92 90 96 92
28 36 39 31 18 19 23 27 31 51 50 39 39 42 17 19 23 21 19 17 17 18 21 30 32 38 46 55 64 73 79 70 67 73 81 89 91 94 94 92 93 88 90 91
34 33 40 64 34 24 25 23 24 27 30 50 75 38 17 19 17 18 18 18 17 16 18 24 35 40 44 51 58 64 76 74 69 68 77 85 89 89 89 90 91 92 91 94
40 46 44 45 37 34 30 28 24 28 43 37 36 32 24 21 19 19 18 18 18 18 17 17 25 36 42 46 52 60 68 79 77 70 72 81 89 86 89 90 91 94 93 93
38 52 48 45 44 36 39 38 34 35 34 43 36 33 24 21 19 17 18 19 20 19 19 17 17 23 35 43 48 54 61 73 79 77 73 75 83 86 89 89 90 91 92 91
32 40 38 43 34 34 33 29 30 30 30 30 28 28 20 20 20 21 20 20 20 20 20 19 20 19 21 36 46 51 57 64 76 81 79 77 80 85 90 90 91 90 90 91
43 42 34 49 36 40 49 33 28 25 23 25 31 26 20 21 22 23 24 23 20 21 22 24 26 24 22 21 35 47 54 60 68 77 79 81 82 86 87 88 91 91 90 92
47 42 42 53 49 60 30 20 22 25 22 23 26 22 23 24 26 26 33 38 39 37 36 35 33 31 28 28 28 32 46 57 64 70 74 76 81 84 86 88 90 91 92 90
40 46 50 58 44 30 22 20 21 24 24 28 28 26 27 29 30 30 38 41 42 40 39 39 40 45 46 41 34 33 37 45 57 67 69 69 74 79 83 88 91 91 92 94
39 44 52 54 59 49 25 23 22 23 33 30 30 30 29 28 34 30 36 39 42 43 42 44 52 55 56 57 57 42 35 36 46 56 66 67 69 76 81 85 90 93 94 96
61 64 69 60 57 37 36 26 30 45 44 36 34 35 38 40 36 38 36 35 40 42 43 46 58 66 80 84 79 68 59 47 42 45 55 65 69 74 79 77 87 93 97 99
63 79 77 64 79 69 24 26 41 50 42 43 43 43 47 48 45 41 35 37 43 43 42 48 61 81 95 86 93 88 75 69 59 54 58 68 70 74 80 84 89 95 93 92
74 42 49 42 40 35 45 54 53 54 51 52 52 49 53 54 56 54 50 46 48 48 54 64 68 86 96 99 98 100 97 98 88 80 77 79 82 89 94 97 100 100 100 100
34 41 53 72 42 43 60 58 58 58 58 59 58 58 60 63 62 61 60 64 62 60 69 82 82 98 99 99 100 100 100 100 98 100 100 100 100 100 100 100 99 100 100 100
32 44 32 36 38 31 40 56 69 63 62 64 67 67 67 68 67 68 66 73 75 74 82 92 80 94 98 98 100 100 100 98 100 100 100 100 100 100 100 100 100 100 100 100
31 47 45 55 64 61 51 63 79 66 70 73 74 72 74 75 74 76 76 87 94 96 99 100 100 97 98 99 99 100 98 100 100 100 100 100 100 100 100 100 99 100 100 99

GFSCGP_850_rhum_087.txt.gz
RH
21 22 30 32 33 34 33 36 33 26 18 19 19 19 15 12 13 18 17 16 16 19 24 30 37 46 56 63 67 71 75 82 93 100 98 98 99 98 99 94 98 98 97 99
34 33 22 21 23 28 35 48 53 31 23 22 22 22 17 14 15 15 17 17 16 15 24 32 39 48 54 58 64 72 78 79 94 100 100 99 97 98 100 99 100 100 100 100
53 40 37 34 28 36 46 39 40 34 26 24 29 25 22 16 15 13 12 14 13 14 25 36 42 49 57 61 68 72 75 74 92 100 100 100 97 100 100 100 100 100 100 100
73 61 63 55 50 39 50 35 31 45 64 76 36 49 26 19 17 15 13 12 10 10 22 35 43 52 57 61 67 70 72 72 83 100 100 96 88 98 97 99 99 99 100 91
64 63 75 81 56 55 50 43 48 66 68 57 48 49 31 21 21 19 15 13 11 10 21 40 42 44 56 61 66 69 74 81 88 97 99 96 99 94 92 94 100 96 90 89
54 42 52 70 61 57 56 79 70 65 70 94 65 54 38 25 20 18 16 14 12 10 27 26 37 47 60 65 68 69 72 84 100 98 99 99 100 93 91 95 94 97 89 90
48 45 45 44 62 56 80 89 100 99 99 88 44 52 40 24 18 18 17 14 10 10 22 43 52 58 64 67 70 74 74 81 99 98 98 99 98 95 84 88 91 86 94 93
57 78 42 40 55 68 65 88 95 85 92 78 38 44 30 19 16 15 13 14 13 14 21 42 48 55 58 63 67 70 70 64 98 97 98 98 96 94 88 85 83 83 78 71
56 60 42 45 54 44 78 88 57 88 73 100 72 48 22 18 17 17 16 14 15 19 30 42 46 46 54 56 56 63 70 58 95 98 97 98 96 95 90 88 82 72 72 69
35 54 39 38 43 48 69 73 79 98 92 96 63 53 42 29 22 20 22 25 21 20 24 34 34 45 48 46 47 59 67 59 59 99 98 98 95 95 95 93 88 75 68 69
35 47 47 40 62 60 65 96 92 80 77 99 98 82 59 48 31 33 28 24 21 21 24 25 40 42 47 50 53 57 63 65 68 80 98 97 97 98 94 94 90 81 77 70
43 55 60 45 34 46 69 80 82 99 82 80 98 91 60 62 41 28 26 20 20 21 26 27 32 42 49 51 56 60 64 68 62 84 81 98 98 99 95 89 86 84 81 78
41 68 81 57 45 37 51 67 70 72 86 98 97 83 69 60 47 38 29 21 19 19 19 19 37 43 47 52 54 58 61 64 64 70 83 84 98 98 99 96 90 88 85 88
39 58 65 86 91 96 86 68 66 91 99 78 97 81 62 63 56 48 34 22 23 29 33 30 29 45 53 47 49 53 60 63 65 68 81 85 82 81 95 99 96 93 94 87
44 66 60 50 44 83 87 95 83 89 78 96 64 72 64 67 62 47 33 34 38 38 36 37 40 38 35 52 66 58 55 60 63 66 66 75 82 80 80 80 88 95 98 95
38 58 55 56 39 38 70 61 68 74 86 79 75 75 68 46 42 37 44 42 43 43 43 43 41 50 56 56 45 60 66 57 60 64 64 62 68 81 85 84 82 85 89 91
54 56 62 69 47 45 65 51 62 61 59 54 82 65 35 42 52 47 47 44 43 42 42 48 48 53 61 60 54 48 58 69 65 60 64 67 66 66 78 89 93 91 91 91
58 63 58 74 57 78 48 34 32 33 42 40 56 51 49 53 46 40 36 35 36 40 42 48 49 49 50 54 50 52 55 59 74 81 68 62 70 72 72 79 85 91 98 99
52 63 79 83 75 49 34 27 29 29 55 55 57 59 50 46 46 44 40 39 36 49 51 74 63 54 53 42 47 53 64 73 63 80 89 91 90 79 78 76 74 80 93 95
50 61 77 83 81 76 43 29 28 31 72 50 54 60 54 54 78 65 59 61 67 81 79 74 67 60 43 46 52 57 65 80 79 71 70 77 79 86 86 81 78 78 84 90
72 76 84 84 93 71 37 33 30 54 78 57 53 54 54 62 67 60 62 62 64 68 74 79 76 76 65 59 65 68 76 74 87 87 83 76 73 72 88 88 86 84 85 90
73 84 93 87 86 81 46 40 61 72 60 56 58 59 63 63 62 65 66 69 67 65 64 67 63 64 71 86 98 99 98 93 83 84 89 89 76 93 95 90 91 91 87 88
93 66 80 68 69 87 82 72 70 61 63 66 66 65 65 67 67 71 73 74 76 76 75 73 69 78 97 98 98 98 98 100 89 82 79 82 94 98 99 99 100 100 100 99
95 72 67 67 89 90 96 86 66 71 68 67 67 70 71 73 72 76 74 79 79 79 76 82 91 97 99 98 98 99 99 97 98 86 78 73 70 68 75 99 100 99 100 100
96 86 83 93 94 95 99 99 88 73 68 70 72 76 78 79 79 79 80 84 90 93 99 100 99 98 99 98 98 97 94 97 100 100 92 86 87 85 87 77 85 95 95 98
72 98 100 99 100 97 99 92 85 83 84 79 77 82 85 86 88 87 84 91 94 99 99 98 99 99 99 99 98 98 98 99 100 100 100 100 98 99 98 100 95 92 97 95

GFSCGP_850_rhum_090.txt.gz
RH
24 22 28 27 31 38 40 42 45 41 36 42 35 30 25 20 19 17 15 13 13 13 12 25 30 36 44 50 54 59 62 74 83 83 86 97 99 100 100 98 96 97 100 100
37 40 24 23 27 30 35 43 50 43 34 36 41 41 34 31 26 17 16 18 14 13 18 29 36 40 46 44 54 60 63 69 73 87 85 99 98 100 100 90 99 100 100 100
48 42 33 31 32 31 41 46 44 44 40 40 57 54 40 31 25 18 15 14 15 16 18 31 44 42 47 48 51 59 59 61 77 79 99 98 99 99 100 99 100 98 96 99
60 59 64 70 67 54 52 40 40 38 77 81 49 76 51 41 34 26 18 15 14 15 18 26 46 48 46 47 55 58 61 68 77 73 100 99 98 97 99 95 97 99 100 100
59 71 72 77 76 59 57 38 42 52 78 80 67 87 60 39 36 27 21 17 14 14 15 32 44 39 44 49 55 61 67 70 69 68 99 99 99 99 99 99 98 100 100 100
51 51 65 64 56 63 52 56 67 64 83 96 62 73 64 46 34 26 20 16 15 14 15 21 33 44 48 55 58 62 68 66 62 58 100 99 100 89 96 100 99 99 100 100
52 54 51 58 68 64 76 94 100 99 98 80 48 60 57 35 28 22 20 17 16 16 20 49 56 52 50 56 60 64 68 65 58 50 98 99 98 94 85 89 94 98 99 99
63 54 47 50 57 71 72 95 100 86 95 77 48 56 45 33 27 23 19 18 16 18 26 50 44 43 47 55 59 64 66 63 56 45 83 100 99 99 93 89 87 91 86 90
55 62 45 46 47 53 82 100 79 98 96 94 73 55 36 29 30 26 19 17 21 25 42 55 53 47 49 52 55 58 64 61 53 42 70 98 96 87 91 89 85 89 92 83
37 52 40 57 58 62 67 86 98 100 95 96 71 62 74 62 55 28 28 32 30 39 50 56 54 45 45 47 54 60 62 54 46 44 67 92 98 94 94 87 87 87 90 83
42 45 52 42 59 75 88 98 97 90 86 96 93 92 77 78 65 54 44 30 31 46 58 60 56 46 47 51 55 59 67 63 57 47 51 85 98 98 98 94 90 85 84 84
41 61 65 52 34 47 64 93 95 100 90 88 100 84 88 78 66 53 48 36 29 31 31 48 54 55 55 51 57 58 59 62 59 50 42 66 96 98 98 97 90 87 84 82
38 58 91 66 55 53 85 70 82 91 96 97 96 87 81 79 74 71 64 39 39 40 41 54 65 68 67 60 56 55 57 58 61 62 48 51 85 97 99 99 98 92 86 82
41 56 76 96 81 87 98 87 93 90 100 87 90 77 72 88 87 82 72 54 42 46 49 50 60 68 74 78 77 78 79 74 67 65 61 53 59 66 86 98 99 93 90 89
51 68 61 59 51 75 77 80 83 98 94 99 80 78 66 76 85 88 82 50 47 52 52 57 57 57 62 72 81 81 76 76 78 74 69 65 60 58 65 72 92 99 97 92
51 60 55 61 48 54 46 69 76 83 94 92 92 81 63 71 85 87 83 60 49 54 66 60 57 58 60 57 59 72 81 90 85 83 75 73 70 71 70 74 76 76 84 96
55 66 68 72 51 43 59 55 74 56 75 74 93 74 65 67 70 76 68 46 47 61 76 63 59 57 53 52 56 62 68 66 74 85 87 92 92 92 90 91 86 81 82 84
60 62 66 82 58 59 43 35 39 69 63 56 57 65 58 67 69 72 83 81 81 84 76 75 71 63 59 61 58 70 75 75 92 100 100 99 95 96 92 95 93 92 90 88
64 68 81 83 78 55 36 29 41 62 72 62 70 64 66 77 67 73 80 96 100 94 89 80 72 61 57 48 58 61 66 76 79 84 94 95 98 98 96 98 96 94 99 95
58 65 78 86 87 81 49 39 35 46 90 60 61 69 62 58 90 84 75 75 78 81 78 74 69 60 51 57 60 58 65 70 75 83 90 87 86 88 85 93 93 100 97 90
85 88 83 82 92 77 54 62 48 62 83 63 64 66 70 79 80 76 75 77 74 72 70 67 64 61 63 70 74 63 74 75 91 91 81 79 87 89 96 98 100 100 100 100
81 94 88 89 90 88 79 64 85 77 68 70 73 72 74 75 76 81 85 77 78 78 79 79 77 79 82 78 76 84 92 99 93 85 75 70 68 73 82 94 94 97 100 100
98 86 86 75 74 88 80 82 78 75 81 81 78 75 71 75 77 77 78 79 81 83 87 94 96 98 99 99 97 94 98 98 100 96 87 78 71 68 70 76 90 97 98 99
100 92 90 85 96 87 98 95 90 89 88 79 79 81 77 81 81 84 84 87 90 96 98 100 100 100 99 99 98 98 96 93 95 100 98 88 81 81 79 77 79 78 76 76
99 96 100 100 97 98 100 100 100 94 82 85 83 83 84 82 88 88 90 92 94 96 100 99 98 100 100 100 97 96 94 92 93 98 100 99 92 92 90 84 84 87 89 93
96 100 100 98 98 99 99 100 99 97 95 89 89 88 89 88 90 91 92 97 95 91 94 97 98 98 98 98 98 94 94 93 94 99 99 99 100 100 97 93 91 96 99 100

GFSCGP_850_rhum_093.txt.gz
RH
26 33 35 27 39 38 42 46 50 42 34 43 42 46 42 36 37 36 32 27 22 18 15 14 17 25 32 42 50 54 60 65 72 74 77 84 83 90 88 95 96 100 94 98
39 38 27 23 27 32 38 45 44 44 40 38 49 51 40 36 41 33 31 26 23 19 17 16 20 28 32 39 46 54 62 63 70 74 71 74 77 95 99 97 97 91 98 99
54 43 36 29 26 30 31 38 43 45 42 46 52 45 36 27 29 29 29 28 24 19 19 22 25 26 35 43 43 46 56 61 70 71 78 81 82 97 97 99 98 94 94 99
46 50 61 67 66 57 70 41 43 45 63 63 58 58 36 33 39 36 32 28 24 21 23 23 26 30 32 39 46 46 55 62 70 73 77 60 67 77 82 95 97 99 99 100
62 75 74 73 69 66 68 51 52 48 77 89 78 88 42 43 45 38 33 26 23 19 18 23 22 23 29 40 44 48 56 64 69 74 74 56 75 81 85 95 99 100 98 96
52 58 61 58 60 65 60 62 62 74 81 89 63 76 56 44 43 37 30 27 24 21 17 16 17 35 40 46 49 52 59 66 68 75 66 62 77 78 81 90 98 99 97 99
54 60 56 64 72 66 76 81 97 98 96 86 54 72 58 42 35 33 30 25 23 20 19 20 30 45 48 50 49 56 59 64 67 75 62 65 81 79 79 79 98 99 99 99
70 50 59 58 61 76 92 77 91 88 93 85 49 65 53 37 32 32 29 26 24 21 19 19 21 38 41 47 49 56 58 64 66 73 62 71 98 92 80 83 78 79 97 99
59 56 45 54 52 58 81 89 80 100 100 99 75 60 45 59 59 52 44 41 31 23 20 23 28 39 44 49 47 50 55 63 69 68 59 65 100 98 85 85 79 81 83 97
41 51 49 57 59 60 77 81 99 100 97 96 75 68 76 87 83 67 59 40 38 41 32 40 49 46 43 56 50 54 58 62 66 69 58 54 80 97 86 91 85 82 87 92
43 46 50 64 73 83 83 91 96 97 100 98 91 87 83 93 87 82 75 59 48 46 64 72 72 71 66 62 55 55 60 64 66 67 62 52 67 79 85 85 88 86 87 93
39 61 70 57 41 59 77 79 91 100 98 93 92 85 90 89 80 72 74 68 54 59 64 75 84 81 71 66 59 58 60 62 66 69 68 57 65 79 83 87 85 87 88 89
42 64 83 69 66 72 85 86 92 89 98 98 98 83 77 88 82 73 72 76 62 69 75 79 83 86 86 83 78 71 71 74 78 80 78 72 68 85 90 93 94 89 88 86
43 60 73 91 87 69 93 80 82 96 100 95 91 83 81 87 88 78 73 82 70 73 84 84 85 89 87 85 83 81 80 79 78 80 81 78 67 66 74 85 91 88 92 90
55 64 63 65 68 61 75 79 74 84 94 100 86 76 77 77 86 88 84 93 81 79 80 84 86 89 92 94 95 91 91 84 80 78 80 84 82 80 82 87 91 96 92 94
55 60 58 64 56 62 69 47 43 65 74 86 93 94 61 82 91 91 93 96 85 88 92 86 89 72 77 84 82 84 93 98 95 91 90 93 90 90 90 92 92 89 89 95
59 64 71 75 56 53 55 51 50 67 64 77 97 72 64 82 86 85 94 97 100 100 95 91 81 66 69 83 91 86 87 74 70 100 100 100 100 98 96 95 96 98 98 96
66 68 74 86 58 70 39 29 68 66 80 74 68 76 79 82 88 99 100 100 100 100 96 95 86 77 72 77 80 85 82 84 96 100 100 100 100 99 100 99 97 96 99 100
66 72 80 84 73 48 42 44 55 60 61 70 81 81 78 89 91 99 100 99 100 99 99 93 82 80 72 67 77 78 79 82 84 93 95 92 96 96 99 100 100 100 99 99
75 69 78 91 85 76 52 59 58 64 91 69 80 84 81 71 93 91 100 100 91 94 93 91 88 87 81 83 79 65 59 61 66 73 75 79 82 86 90 94 100 100 100 100
89 91 90 87 82 74 51 77 66 75 80 72 76 88 94 92 92 94 93 95 86 74 85 88 85 81 89 89 85 80 86 82 92 82 73 67 65 68 75 84 91 97 98 100
80 97 98 92 93 89 83 75 80 83 80 81 83 88 91 90 90 91 86 84 85 88 80 86 97 98 95 92 91 93 95 99 99 92 85 76 70 64 63 70 85 93 95 98
94 85 96 79 76 86 92 92 96 92 91 91 86 84 82 86 90 92 94 99 100 100 100 100 100 100 100 100 98 97 100 99 98 100 96 85 79 74 73 73 74 78 86 93
95 98 100 95 94 94 100 100 100 99 100 96 91 87 91 92 90 92 94 96 98 100 100 98 98 99 99 99 98 97 96 94 99 93 98 94 85 82 81 78 76 76 79 83
99 98 100 100 99 99 99 100 100 98 99 98 98 96 94 96 99 94 96 98 98 98 98 97 97 97 98 96 95 94 93 93 92 95 99 99 96 92 86 79 78 78 80 87
98 100 99 99 99 99 99 100 100 99 98 94 88 88 93 95 97 100 100 100 98 95 96 96 98 99 97 96 96 95 96 98 100 100 100 100 100 100 93 95 94 90 90 96

GFSCGP_850_rhum_096.txt.gz
RH
32 41 42 33 38 32 40 48 51 44 37 43 48 50 45 42 38 43 37 30 26 22 20 21 19 17 16 30 33 42 56 54 60 61 66 76 85 90 87 84 87 92 96 99
37 42 35 31 28 32 34 42 46 42 39 42 47 45 38 39 36 31 34 30 26 23 22 20 20 17 15 22 30 40 54 54 58 60 63 70 73 77 85 85 83 86 99 88
51 42 37 26 28 31 33 35 36 40 38 42 51 37 27 27 27 28 31 28 26 26 23 21 20 18 17 19 25 36 48 54 59 62 69 74 80 84 92 90 87 88 89 100
48 40 54 52 44 40 56 43 41 46 52 69 60 63 35 30 28 27 27 30 28 27 22 21 20 22 18 20 27 41 47 54 60 64 68 71 67 66 71 79 82 94 89 86
55 77 72 69 66 60 66 60 59 58 62 90 80 79 47 39 44 40 33 31 31 28 23 19 20 19 20 37 31 44 46 54 59 63 68 68 73 72 74 86 98 99 96 91
55 61 58 57 65 65 64 64 64 75 83 97 67 72 55 43 36 37 34 32 33 28 24 19 20 24 24 39 56 52 47 54 58 65 68 68 68 66 78 90 92 99 99 99
62 64 60 62 72 68 73 73 91 86 92 78 57 68 57 43 37 40 41 34 30 27 23 19 20 19 26 31 47 58 51 56 57 64 67 68 60 69 73 86 91 98 96 100
70 57 70 62 60 72 86 71 90 90 91 86 65 77 65 57 65 66 67 53 45 41 29 24 21 18 19 30 45 58 54 55 59 62 66 69 61 70 74 83 86 99 98 99
63 48 49 58 56 59 84 92 73 98 77 97 79 63 49 72 75 72 68 70 70 64 51 33 23 22 22 32 41 54 55 53 60 60 66 69 58 70 73 85 91 93 100 98
43 57 52 65 57 63 74 79 100 98 97 98 80 76 77 90 91 79 71 68 74 71 61 50 25 27 35 45 62 75 60 54 58 59 67 68 57 68 76 86 86 89 88 99
42 50 57 64 71 82 84 81 96 98 100 99 94 83 89 90 90 83 73 66 76 81 68 64 51 56 62 70 95 91 68 62 61 64 66 68 62 68 81 88 88 87 89 88
46 66 68 59 53 64 72 79 74 100 95 100 98 85 90 91 83 72 72 68 79 92 91 84 84 84 94 95 99 99 84 70 71 72 70 65 62 65 80 89 90 91 89 90
48 75 76 79 68 62 81 80 84 97 94 88 98 78 79 84 76 69 75 75 89 98 100 100 98 95 94 100 100 99 92 80 80 82 77 74 71 65 70 78 86 90 93 95
47 66 66 81 78 72 82 81 76 96 100 95 94 88 64 87 82 79 78 87 90 97 100 100 100 100 100 99 93 90 87 86 86 87 90 84 83 81 74 74 76 80 91 95
54 62 63 61 62 72 76 77 74 80 84 95 82 90 75 72 84 82 83 95 92 98 100 100 100 100 100 100 100 100 99 95 93 98 97 92 89 89 84 85 84 83 80 81
58 64 60 65 55 65 72 60 52 50 52 61 82 80 61 65 90 89 96 98 96 99 100 100 100 100 100 98 100 100 100 97 91 100 100 100 100 98 94 91 90 92 93 91
60 65 72 72 57 61 58 49 76 72 71 77 94 76 64 71 81 89 98 100 100 99 99 99 100 100 100 98 100 100 81 93 94 99 99 100 100 100 100 100 99 98 97 96
66 69 75 87 66 73 37 35 63 65 74 74 68 67 84 96 100 100 100 100 100 100 100 95 96 92 94 99 100 100 98 98 99 99 99 99 100 100 100 100 100 100 100 100
66 72 80 84 78 56 50 57 71 78 72 78 85 85 91 98 93 99 100 100 100 100 100 100 99 94 81 88 99 91 98 100 99 100 97 95 96 99 98 100 100 100 100 100
78 71 76 90 88 81 47 73 71 73 86 82 82 89 93 92 97 100 100 99 100 100 100 98 96 99 90 96 96 83 74 72 69 71 70 74 84 91 96 99 100 100 100 100
89 92 94 93 86 81 70 80 68 79 92 87 93 92 94 96 100 100 99 97 99 99 96 100 98 98 99 99 100 99 100 99 96 84 75 68 65 63 62 69 83 93 98 99
76 94 97 80 95 94 90 78 87 89 90 94 95 99 100 100 100 98 98 98 100 99 99 99 99 99 100 99 98 100 99 100 100 100 89 79 72 69 69 70 75 85 95 100
91 98 97 83 80 94 99 98 98 92 95 100 98 100 100 98 98 98 100 100 98 100 100 99 98 98 98 100 99 98 99 99 100 100 100 90 84 81 78 75 72 72 76 79
83 92 100 100 99 97 100 100 99 100 99 100 99 99 98 98 97 100 99 97 97 100 100 99 98 98 98 97 97 97 96 96 95 95 99 100 90 88 84 77 73 72 71 76
93 90 98 100 98 99 98 99 99 98 99 97 98 98 97 98 98 97 99 100 100 100 100 99 100 99 95 94 91 92 93 94 93 93 94 99 95 89 91 84 84 84 87 85
98 99 98 99 99 99 98 98 98 97 97 98 96 93 91 95 99 100 100 100 100 100 97 97 100 99 97 95 93 91 91 92 97 99 99 99 98 96 92 90 94 97 100 100

GFSCGP_850_rhum_099.txt.gz
RH
36 38 40 34 30 29 34 41 43 39 32 36 36 35 30 32 30 32 33 31 30 24 20 19 19 20 20 18 18 37 50 50 61 56 56 63 66 86 93 83 90 95 99 94
36 43 35 30 30 30 31 33 35 34 32 34 34 34 28 30 30 28 28 27 30 27 22 20 19 20 20 18 17 22 43 49 58 57 57 61 57 74 83 86 85 87 90 97
44 43 31 31 32 33 32 33 34 32 28 35 37 34 25 20 21 23 24 28 26 27 26 20 19 19 20 20 17 16 27 41 58 59 61 63 62 74 80 83 89 99 95 96
50 38 34 31 32 29 37 30 27 34 44 48 49 50 27 27 26 24 24 24 30 30 26 23 20 19 18 19 20 23 33 40 53 60 59 60 55 54 57 66 79 87 92 92
49 59 60 50 46 34 44 49 44 48 55 64 58 57 32 24 22 29 32 36 36 31 31 30 24 17 17 21 22 28 38 46 50 59 58 62 62 60 68 73 85 89 90 89
52 62 53 49 65 58 58 58 61 67 65 73 56 47 37 36 36 44 49 61 56 40 37 36 29 26 22 23 31 35 36 42 56 59 57 62 64 60 67 70 79 84 96 100
62 66 60 58 71 67 62 57 70 76 88 56 48 61 46 39 50 64 63 63 67 68 65 42 36 27 26 25 37 45 31 39 53 61 60 64 69 60 67 72 76 76 93 98
63 72 65 60 52 65 66 59 59 55 73 70 60 63 46 65 65 62 59 62 65 72 74 63 36 29 30 33 50 44 30 45 53 60 61 69 70 64 61 75 76 77 99 98
55 55 54 56 57 54 78 72 67 86 75 78 54 48 44 64 63 61 57 61 69 80 82 60 39 29 39 33 42 31 33 58 52 60 64 73 70 65 58 75 80 85 98 98
45 69 57 60 54 66 64 66 87 85 88 84 61 60 53 63 71 65 59 61 78 89 96 65 46 33 33 45 58 58 64 74 66 68 66 74 71 65 62 82 84 83 99 98
43 51 72 63 63 73 80 81 85 79 92 91 77 64 70 72 72 74 63 70 85 96 100 95 69 52 49 49 83 85 97 100 94 75 68 76 75 66 65 82 87 90 89 100
52 59 68 66 59 56 63 70 67 80 94 85 97 59 73 69 65 65 64 84 90 95 100 100 99 94 93 100 100 99 99 98 100 79 77 83 78 68 63 81 86 90 92 93
55 65 88 95 67 56 67 72 75 100 97 89 88 56 60 51 62 61 70 86 92 96 99 100 100 99 99 99 100 100 100 99 100 86 78 82 80 69 64 78 86 88 90 90
54 64 59 66 68 64 74 75 69 78 96 74 78 63 55 54 63 59 81 96 93 96 100 100 100 100 100 100 100 100 100 100 97 87 85 81 79 77 67 76 87 90 89 90
56 64 59 57 56 65 63 62 57 57 60 80 55 58 44 56 63 79 92 89 98 98 100 100 100 99 100 100 100 100 100 100 100 100 97 90 92 94 93 78 82 86 87 88
54 65 59 59 50 58 57 48 41 46 53 56 52 52 42 53 61 91 95 93 97 100 100 100 100 100 100 100 100 100 100 100 100 100 100 100 100 100 100 98 87 89 90 88
61 62 59 52 58 55 46 44 39 59 61 64 72 59 54 68 93 98 99 100 100 100 99 100 100 100 99 100 100 100 99 100 100 100 100 100 99 100 99 100 100 100 96 98
66 64 66 65 61 55 34 34 44 48 51 66 69 74 86 96 100 100 100 100 99 100 100 100 100 100 97 100 100 91 97 100 100 99 100 98 100 100 100 99 99 99 99 100
60 66 74 69 65 48 44 70 65 69 50 78 92 86 89 98 98 99 100 100 99 100 100 100 100 97 98 80 78 88 91 100 98 97 98 100 100 100 100 100 100 100 99 100
70 68 66 76 72 72 59 66 70 71 66 80 92 90 83 82 99 100 99 98 98 98 99 100 100 98 92 94 96 92 93 81 76 78 80 86 90 96 99 100 100 100 100 100
80 84 84 85 73 63 82 75 74 44 78 96 97 100 98 96 100 99 99 98 97 98 100 100 100 99 100 98 93 92 98 98 98 91 86 79 74 71 72 81 88 100 100 99
73 80 87 76 82 82 87 72 84 91 99 100 100 100 99 98 98 98 98 97 97 98 98 100 100 99 100 100 99 99 98 100 100 100 88 81 78 76 78 78 79 83 95 100
94 98 94 85 96 99 100 99 100 100 99 99 98 100 99 98 97 98 98 95 100 100 100 100 100 100 99 99 99 100 100 100 100 99 98 89 84 81 78 74 72 72 76 79
92 82 89 87 100 99 99 99 99 98 98 98 98 98 98 98 97 97 98 95 95 100 97 100 99 97 97 97 99 100 100 100 100 98 98 98 87 85 83 75 72 69 69 70
88 80 95 98 94 98 98 98 98 97 98 97 97 97 96 97 98 97 98 98 97 96 96 96 96 98 96 95 94 93 98 100 100 100 98 93 90 90 87 81 78 76 81 84
88 91 90 97 98 97 98 98 98 96 97 97 95 94 96 98 100 100 99 100 100 100 98 93 92 92 94 93 91 93 94 98 99 98 97 98 98 97 93 93 95 97 100 98

GFSCGP_850_rhum_105.txt.gz
RH
17 21 19 16 22 23 22 21 21 18 15 18 21 20 16 14 14 15 16 16 16 17 16 16 15 14 14 19 30 43 57 87 95 52 77 82 96 62 54 47 66 97 98 97
14 18 12 12 15 23 24 26 23 16 13 19 21 20 15 13 13 14 15 16 17 17 17 16 16 17 17 21 28 43 54 75 92 50 70 78 91 65 66 54 74 75 96 92
14 13 9 11 15 22 27 27 24 16 14 14 17 18 14 11 11 12 12 13 14 15 16 16 17 18 19 20 26 36 51 63 84 90 91 89 97 90 69 71 73 70 86 91
17 10 14 14 17 20 30 23 19 16 20 24 13 19 13 12 12 12 12 14 16 17 17 17 17 18 20 21 22 30 43 54 72 94 83 86 84 96 74 83 65 96 94 92
24 15 16 18 19 17 24 16 17 19 23 21 16 21 16 12 13 17 22 32 34 35 36 35 34 29 21 20 22 26 36 49 62 86 78 83 87 92 92 96 94 89 94 98
23 19 19 17 17 23 18 22 24 23 23 34 23 19 16 15 18 21 29 32 35 38 41 41 39 37 28 24 22 25 38 47 57 82 82 83 93 83 82 87 98 92 88 99
33 39 22 19 26 24 23 32 52 55 47 39 16 20 15 23 30 31 32 31 36 40 47 53 55 46 35 29 25 25 41 47 56 79 83 88 92 83 83 89 89 88 97 99
44 87 39 31 28 31 34 35 39 49 40 28 23 26 19 24 32 32 30 37 38 44 52 62 72 66 45 36 29 27 34 51 54 78 84 88 89 86 86 89 80 79 94 100
43 76 51 35 28 36 53 47 28 56 44 46 32 23 32 30 35 37 35 34 41 47 61 75 85 87 71 44 31 30 49 56 56 81 89 89 92 91 86 89 82 81 88 97
37 60 45 37 34 34 42 30 53 49 50 41 18 20 55 52 37 33 33 34 49 52 66 89 95 88 78 49 36 56 66 61 74 94 96 94 99 94 91 93 88 90 97 100
38 44 52 42 43 40 48 52 52 45 51 55 32 51 40 35 30 33 33 57 58 62 71 93 100 96 89 66 56 70 75 72 94 95 99 100 95 96 96 95 94 98 86 100
25 39 62 64 28 26 28 35 39 50 55 44 52 52 32 27 25 30 51 65 64 67 75 91 100 99 94 97 88 83 92 99 98 98 100 97 97 97 99 96 96 100 98 99
29 46 66 87 46 43 47 36 42 58 54 57 54 58 25 24 26 49 68 68 71 74 79 86 94 98 99 99 100 92 100 100 99 100 98 96 99 98 99 95 96 98 99 100
42 45 51 55 42 41 52 49 43 45 58 51 42 33 44 56 69 72 84 86 84 88 91 92 88 96 99 100 100 100 99 100 99 100 100 100 100 97 100 92 96 96 99 100
46 63 66 50 41 40 44 46 44 49 40 46 39 45 64 66 81 88 91 93 94 96 99 100 99 88 98 100 100 99 100 100 100 100 100 99 100 99 95 93 98 97 96 98
51 40 34 39 33 35 39 30 24 23 27 33 31 68 55 64 75 89 99 100 98 100 100 99 100 89 97 100 100 100 100 100 100 100 100 100 100 99 98 98 99 98 99 99
66 40 39 47 27 26 33 31 29 28 56 60 90 82 59 74 91 97 99 98 98 99 99 100 100 100 98 100 100 100 100 100 100 100 100 100 100 100 100 100 100 100 100 99
36 38 30 39 36 40 39 30 29 47 59 63 77 89 95 95 100 98 98 98 98 98 98 99 100 100 100 99 100 100 100 100 100 100 100 100 100 100 100 100 100 100 100 99
36 33 39 37 33 39 50 42 44 45 87 59 69 90 96 100 94 98 98 99 98 98 98 98 99 100 100 99 100 99 99 99 100 97 98 100 100 100 100 100 100 100 100 100
34 34 35 40 37 65 79 48 42 38 92 75 73 79 83 84 100 94 99 98 98 98 99 98 99 100 100 100 100 99 99 100 94 97 97 100 100 99 100 100 100 100 99 100
43 45 50 49 44 69 93 72 54 77 99 94 84 82 84 90 98 98 99 98 98 98 97 97 98 98 100 100 100 96 98 98 100 100 100 99 100 100 99 100 99 98 100 99
59 75 60 52 53 86 98 58 85 99 98 99 99 95 95 99 100 98 97 97 98 96 97 90 95 98 96 99 99 99 96 99 100 99 97 95 94 91 94 97 98 100 100 100
76 71 79 91 96 98 100 97 99 97 96 99 99 99 99 100 99 98 99 100 94 87 89 91 86 92 100 100 100 99 100 99 98 98 99 100 89 83 84 89 89 89 96 99
69 52 80 90 90 87 90 92 98 97 98 100 100 96 90 88 89 90 88 86 85 85 86 84 84 86 93 100 99 100 100 100 100 100 98 99 98 94 95 92 89 80 83 91
60 62 92 93 86 83 86 94 98 100 97 88 80 79 77 76 76 76 78 80 82 85 86 89 90 90 93 100 100 100 100 100 100 100 100 100 98 93 91 93 92 90 89 86
62 76 81 96 96 89 92 98 97 96 93 84 72 68 71 72 72 74 78 83 82 86 89 88 93 95 100 100 100 99 100 100 100 100 100 100 100 100 100 97 91 90 91 92

GFSCGP_850_rhum_108.txt.gz
RH
31 26 21 18 19 23 22 23 23 20 16 18 19 17 15 14 15 14 14 14 14 14 14 14 14 14 12 11 13 20 55 47 44 68 92 93 89 88 88 87 74 54 52 77
33 32 17 13 13 17 19 25 26 24 21 19 21 21 17 16 15 14 14 15 16 16 16 16 16 16 14 12 13 22 54 54 48 67 83 93 92 83 75 68 59 51 58 82
32 24 17 13 13 14 16 23 32 33 24 17 17 21 19 16 14 13 12 13 14 16 17 17 17 16 17 16 16 20 35 66 57 63 84 94 88 86 83 65 56 49 64 85
26 20 19 14 14 12 18 16 24 27 30 26 16 25 17 14 14 12 11 11 12 13 17 17 16 16 17 20 20 21 23 41 68 67 83 83 83 79 74 67 61 59 53 61
28 32 22 15 13 10 15 18 26 27 28 26 21 22 17 13 12 12 16 28 31 32 33 33 33 31 29 26 22 24 27 36 57 61 69 75 88 85 73 78 75 72 62 59
19 19 28 11 13 11 13 24 29 28 30 40 28 23 17 14 13 18 27 29 31 38 45 49 51 50 43 34 29 26 27 30 43 68 59 79 88 90 91 86 87 73 75 76
22 40 59 11 15 15 19 29 65 73 77 60 23 22 19 26 24 26 29 36 42 48 53 57 63 63 70 62 61 28 26 33 38 58 58 71 86 86 90 86 89 76 59 70
37 76 55 22 21 20 24 32 70 54 57 44 25 35 21 24 27 28 34 38 45 50 56 64 73 81 84 80 72 59 29 27 36 48 64 69 86 89 82 85 89 76 50 43
94 80 53 35 18 24 31 44 36 64 50 60 38 42 48 32 31 34 35 41 48 52 61 73 82 91 90 81 66 56 46 29 36 46 65 77 86 92 83 84 86 83 79 70
63 96 78 46 46 30 41 35 70 76 95 95 54 62 76 67 46 36 49 52 55 60 66 78 88 93 99 88 77 46 37 30 38 48 64 77 89 87 84 87 85 80 82 84
88 97 61 44 73 70 88 77 63 55 53 83 54 98 75 67 55 58 56 58 62 67 70 78 92 98 100 96 97 70 59 50 54 54 74 85 89 79 88 87 85 82 84 82
50 76 68 58 34 33 67 74 66 70 46 52 92 100 82 71 60 59 66 70 76 79 82 82 93 94 100 95 100 98 98 74 71 77 80 84 84 86 95 90 90 88 83 73
50 70 84 85 60 46 56 40 37 55 66 57 64 96 66 61 69 75 79 82 84 89 95 96 96 98 96 98 99 99 100 97 90 92 88 88 87 93 98 92 95 95 80 93
51 56 57 94 73 47 58 52 43 40 64 50 62 97 69 78 85 85 89 90 92 95 98 100 99 100 96 97 100 99 100 99 94 92 93 97 97 97 100 93 94 97 99 98
74 97 99 92 56 38 55 47 40 47 36 47 67 88 80 81 88 93 97 95 98 100 100 100 100 100 100 89 97 100 100 100 100 100 100 100 100 100 100 98 97 98 99 99
59 74 56 97 67 60 84 31 24 48 58 67 93 99 72 77 82 91 96 99 100 98 99 100 100 99 100 99 91 100 100 100 100 100 100 100 100 100 100 100 95 94 97 98
66 50 56 46 30 36 49 40 58 57 62 73 96 95 80 90 92 98 100 99 98 98 99 99 100 100 99 100 96 99 100 100 100 100 100 100 100 100 100 100 96 99 100 100
61 45 42 47 37 84 62 46 52 66 66 60 79 95 95 97 99 99 98 98 98 98 98 98 99 100 100 100 100 99 100 100 100 100 100 100 100 100 100 100 100 100 98 100
36 43 50 51 46 59 58 62 69 74 91 72 73 70 98 99 100 100 98 98 98 98 98 98 100 100 100 100 100 100 99 97 97 99 100 97 98 100 100 100 100 100 100 100
30 39 50 49 46 80 84 67 57 51 96 84 71 76 76 90 97 96 98 97 97 98 94 96 100 100 100 100 100 99 99 96 97 99 100 99 99 98 97 96 100 100 100 100
58 62 65 57 65 84 80 64 57 78 99 98 89 87 92 94 98 98 98 97 97 97 96 84 94 100 100 100 100 98 99 98 100 100 100 99 100 100 97 97 99 100 99 100
66 88 75 75 82 89 84 63 80 98 99 99 99 96 96 100 99 97 97 96 92 91 86 84 83 95 100 100 98 97 96 97 100 100 100 99 100 100 99 98 98 98 100 100
84 72 74 85 95 92 92 96 99 95 98 98 93 91 97 95 94 90 85 80 76 77 79 79 82 88 99 100 100 100 100 99 96 98 99 100 100 100 100 99 100 97 92 95
61 52 82 88 91 85 89 89 91 90 91 86 82 79 77 76 75 75 75 75 75 76 80 83 85 90 98 100 100 100 100 100 100 99 95 96 98 99 99 100 99 97 98 96
59 59 83 88 84 82 87 92 91 93 82 72 67 66 67 66 67 69 74 74 77 81 83 89 93 97 100 100 100 100 100 100 100 100 100 100 96 93 94 94 96 95 97 99
61 75 85 91 99 87 93 92 91 88 78 70 66 63 65 68 69 72 78 80 79 84 89 94 99 100 100 100 100 100 100 100 100 99 98 99 100 100 96 92 92 93 94 93

GFSCGP_850_rhum_111.txt.gz
RH
28 52 49 35 24 22 30 37 38 29 23 24 26 24 22 19 16 16 16 15 15 15 14 15 14 14 14 14 12 12 35 47 60 66 74 71 80 85 85 72 70 57 46 39
24 42 40 29 23 21 23 26 28 24 20 22 30 47 33 19 17 16 16 15 15 15 15 16 17 15 15 15 13 17 28 40 57 60 60 58 60 92 89 83 75 61 54 43
38 23 32 33 27 22 20 23 24 25 20 27 49 50 35 25 17 18 17 15 14 14 14 14 16 16 16 16 14 13 26 37 53 57 70 80 89 91 94 90 76 64 58 51
35 21 22 30 31 22 22 15 17 20 23 64 57 56 23 23 20 16 16 14 15 23 24 26 27 30 32 26 25 33 24 43 53 52 58 65 62 60 89 93 89 80 69 60
75 30 25 30 34 19 18 16 17 27 72 67 60 45 28 20 18 16 15 31 38 49 51 53 52 50 49 39 40 35 64 54 58 56 46 48 68 64 65 93 95 87 72 74
56 28 21 29 38 47 17 22 54 53 57 86 41 38 37 22 18 36 44 52 58 57 54 49 46 47 48 51 54 47 35 54 54 54 52 32 50 57 66 92 92 85 74 85
52 37 21 34 51 48 25 48 82 78 95 78 38 38 35 34 34 45 55 59 63 63 58 49 43 40 40 40 50 55 55 38 61 51 49 31 50 57 58 84 89 82 79 79
60 54 35 44 53 49 32 48 83 77 90 63 31 43 32 22 51 58 57 61 68 71 67 62 57 55 59 63 66 68 66 55 40 61 52 43 53 70 65 77 85 77 73 73
76 39 53 50 52 38 36 46 48 81 65 80 45 73 51 54 50 61 60 66 69 74 76 72 71 84 87 93 93 87 68 55 49 41 49 53 57 68 71 82 88 84 77 75
82 80 81 55 52 50 34 31 62 95 92 95 54 91 86 92 89 77 77 78 82 85 85 87 86 84 88 95 100 100 88 55 45 38 46 50 52 65 67 79 81 85 86 81
74 85 95 75 65 56 75 68 80 85 90 97 92 100 95 99 94 94 80 85 91 96 98 97 95 86 89 94 100 99 96 79 54 41 50 54 52 62 69 75 79 85 85 81
79 99 99 89 77 61 81 71 67 95 98 92 100 99 96 95 88 80 83 85 89 95 97 99 99 98 92 93 98 100 100 98 95 96 64 58 62 66 71 77 85 88 86 87
80 96 90 79 92 78 91 79 74 75 95 98 98 99 91 74 81 84 89 92 96 98 98 99 98 99 100 97 98 98 99 100 100 91 94 73 72 72 76 82 93 89 83 91
73 80 97 98 99 76 82 68 64 93 96 98 99 99 93 90 92 89 95 98 100 100 100 99 99 100 99 100 98 98 100 100 99 99 92 99 94 80 80 77 97 94 91 96
76 98 94 93 77 94 100 97 96 86 67 98 99 96 97 93 92 94 95 100 100 100 99 100 100 100 100 99 100 98 98 100 100 100 99 99 98 100 92 92 99 98 98 92
71 99 96 99 80 77 95 64 66 75 95 99 93 99 99 98 93 92 96 96 100 98 99 99 100 100 99 100 100 100 96 98 100 100 100 100 100 99 100 97 100 95 97 96
71 77 90 94 70 60 91 76 75 81 80 84 96 100 95 91 95 99 100 100 98 98 99 97 99 99 100 99 100 100 100 96 99 100 100 100 100 100 100 100 100 100 100 100
61 69 58 69 55 93 95 65 68 86 89 79 86 96 90 96 100 100 99 98 98 99 99 97 98 99 100 100 100 100 99 100 97 99 100 97 98 100 100 100 100 100 100 100
56 62 69 79 94 92 71 69 85 82 97 86 86 91 98 100 98 98 100 98 98 99 100 91 96 99 100 100 100 100 100 100 98 98 99 99 92 96 98 100 100 100 100 100
51 61 73 72 79 96 82 75 69 69 96 96 86 92 96 99 95 95 100 97 97 97 99 94 87 96 98 100 100 99 97 100 99 99 99 100 96 98 98 100 97 97 100 98
77 89 87 90 95 84 88 75 63 79 99 99 99 99 95 93 97 99 95 92 90 88 91 95 89 92 100 100 100 100 99 98 99 100 100 100 99 100 100 100 99 98 100 97
88 93 99 88 87 89 91 73 85 99 99 99 99 100 100 99 96 90 80 76 78 80 82 86 93 90 94 100 99 100 100 100 100 100 100 100 98 98 100 99 100 100 100 100
94 85 92 92 94 99 100 100 100 97 97 98 93 93 87 90 82 77 75 76 79 83 87 92 95 93 93 100 100 100 100 100 100 96 95 98 100 99 100 99 99 98 100 100
77 69 91 94 97 96 99 99 97 93 91 77 72 70 72 70 74 75 76 80 84 90 92 93 93 93 98 100 100 100 99 100 100 100 98 94 94 97 98 98 98 99 98 98
77 76 84 97 91 90 92 95 98 89 75 66 65 66 68 70 75 78 80 83 87 92 92 91 94 96 99 100 100 100 100 99 98 99 100 100 96 93 92 92 94 96 96 97
78 89 96 99 99 91 97 97 94 78 68 67 67 69 71 74 79 81 88 91 94 97 91 87 91 93 95 98 98 96 100 100 98 95 97 98 99 95 96 93 91 96 99 100

GFSCGP_850_rhum_114.txt.gz
RH
23 30 38 46 36 29 29 29 32 33 29 30 32 29 25 23 20 21 21 19 18 17 16 14 14 14 14 14 14 15 16 23 48 64 61 70 64 61 73 75 63 66 60 52
49 41 26 21 35 40 34 33 29 24 24 25 28 52 47 40 37 25 19 19 18 18 16 15 14 14 14 14 15 15 15 17 30 57 58 67 66 65 68 77 71 71 69 58
75 60 31 24 25 43 43 36 29 25 19 18 28 55 51 41 33 28 24 18 16 16 15 22 23 26 26 25 22 19 20 15 23 44 65 56 58 59 66 83 81 74 80 71
82 68 59 44 34 27 77 34 25 23 26 38 56 87 57 36 27 28 21 19 24 30 46 53 48 43 44 45 46 35 51 64 46 47 65 60 58 50 42 45 64 70 82 74
57 54 61 75 30 25 54 54 31 22 26 52 52 94 65 29 24 25 41 69 76 74 64 63 56 54 52 51 53 57 84 96 90 76 66 55 64 53 46 45 52 72 81 81
65 46 50 50 32 28 38 54 45 65 80 81 60 78 45 44 44 52 69 75 79 76 67 62 55 47 45 47 50 52 54 72 86 83 68 63 58 62 63 59 61 68 87 87
57 53 42 33 33 34 56 70 87 76 90 75 47 71 52 59 72 74 78 80 84 83 73 57 47 42 40 38 42 51 54 55 64 77 71 65 58 54 51 59 65 66 87 92
89 69 36 32 33 41 48 54 68 71 87 73 40 54 43 83 80 79 83 88 90 91 87 76 65 60 55 58 61 59 61 66 66 60 67 68 65 58 57 56 55 60 78 78
89 55 49 46 52 60 63 65 48 76 87 82 52 76 79 75 85 85 86 92 96 99 100 93 77 74 69 75 87 95 97 86 77 66 55 58 63 76 63 54 51 56 74 83
73 80 58 57 65 55 73 46 70 90 84 94 73 96 97 98 98 94 88 91 95 98 100 100 94 84 79 85 93 96 99 98 100 77 54 46 43 63 61 61 56 50 58 82
78 78 62 78 68 71 61 63 80 70 93 99 95 97 100 100 100 100 98 97 98 98 100 100 100 99 96 94 93 98 100 99 100 97 58 53 49 65 64 58 59 57 60 77
76 98 93 96 86 67 81 68 66 82 89 93 98 98 100 100 100 100 100 100 100 99 100 100 98 99 100 100 95 97 98 100 100 100 98 92 59 70 64 62 62 62 70 78
80 99 91 96 94 83 79 72 59 95 100 99 97 99 100 97 100 99 99 99 100 100 100 98 98 100 98 100 99 99 98 100 100 99 100 99 100 100 94 71 68 71 76 90
78 80 92 94 87 95 99 70 72 91 98 94 97 98 97 92 89 93 98 100 100 100 100 100 99 100 100 99 99 100 100 100 100 100 99 98 100 93 85 79 73 73 76 94
78 92 98 94 98 95 100 100 99 98 98 93 98 94 95 92 91 96 95 99 100 100 100 100 99 100 100 99 99 99 99 100 100 99 100 100 97 100 98 91 78 78 86 95
69 92 100 99 97 89 96 95 97 99 98 95 88 97 94 97 94 93 98 99 100 99 100 100 100 99 99 100 100 100 100 100 100 99 100 100 100 99 100 100 100 100 100 99
71 78 95 97 98 85 84 97 94 93 95 94 99 99 94 85 89 97 99 100 99 98 100 98 100 100 100 99 100 99 99 100 100 99 98 100 98 100 100 100 100 100 100 100
67 72 72 97 87 86 99 94 76 87 96 90 96 94 93 94 98 99 99 100 100 100 96 91 98 99 99 100 97 100 99 100 99 99 100 98 99 98 100 100 100 100 100 100
59 74 81 96 90 95 75 83 90 85 97 99 93 98 97 99 93 97 100 99 100 100 94 87 94 100 99 97 98 95 96 98 99 99 100 100 98 98 97 98 93 98 100 100
60 66 85 92 85 95 94 80 75 72 94 98 95 91 90 95 93 94 93 88 82 90 96 86 83 93 93 97 99 93 93 95 99 99 100 99 100 98 99 99 100 99 92 100
85 90 92 91 88 90 89 80 74 81 99 99 98 93 95 91 95 89 84 81 83 87 95 87 83 87 99 99 98 95 96 99 99 100 100 99 99 100 100 100 98 97 98 100
92 98 92 85 82 89 97 75 92 99 98 99 100 99 97 96 92 78 79 83 86 91 92 90 83 88 97 99 96 97 96 100 100 94 95 98 100 99 100 100 100 100 100 99
94 87 91 93 94 99 100 100 98 93 91 79 82 90 93 84 78 78 82 85 89 89 88 88 85 87 96 100 97 95 99 96 100 98 91 94 99 100 100 99 100 100 99 100
80 76 93 92 98 96 99 98 92 81 72 69 70 74 78 76 77 80 82 86 88 87 85 86 83 87 90 95 100 98 96 96 96 98 97 91 85 88 94 99 99 97 96 96
85 79 90 96 96 98 98 98 86 72 69 66 68 71 76 75 81 81 88 92 91 88 85 85 86 90 93 92 90 92 94 96 96 98 94 92 92 89 85 87 92 96 100 100
83 94 97 98 90 93 99 98 76 69 70 71 69 73 79 78 81 82 89 93 90 85 84 82 84 87 93 93 92 89 89 92 94 94 96 99 95 91 90 91 91 95 98 97

GFSCGP_850_rhum_117.txt.gz
RH
29 35 40 36 42 38 40 44 44 33 26 28 25 28 27 24 33 29 22 20 21 20 17 17 16 16 15 15 15 14 14 14 20 51 59 65 56 56 66 64 59 54 53 51
62 56 42 34 32 31 34 52 51 39 31 31 27 24 22 23 27 31 36 30 21 20 18 20 20 20 19 20 19 18 18 16 16 20 28 56 56 56 60 69 78 72 61 57
72 48 42 46 41 40 33 33 44 57 42 29 26 26 19 18 28 33 36 34 29 24 27 27 30 30 32 30 30 27 20 21 20 21 29 62 74 75 58 58 64 73 69 69
66 50 65 71 63 46 56 36 34 59 63 55 42 56 51 43 39 34 29 66 66 73 68 50 46 60 61 63 56 43 30 35 44 59 77 78 52 56 48 45 49 57 69 68
58 52 57 54 54 49 62 34 38 56 72 48 32 71 51 48 40 67 81 85 88 89 85 77 69 73 67 69 66 73 79 67 74 98 91 70 65 62 61 53 52 56 64 67
56 45 54 55 46 47 40 54 60 65 63 71 36 58 67 92 92 86 82 88 92 91 90 87 85 80 70 64 60 64 76 90 99 99 99 98 71 70 53 54 58 57 57 66
65 65 58 51 66 50 50 62 88 81 90 82 49 67 60 94 92 93 93 94 98 100 100 99 96 87 84 75 59 53 56 66 83 98 100 100 91 66 63 53 61 82 55 57
94 81 48 36 57 42 47 63 82 70 74 68 55 86 100 95 94 87 92 95 97 98 99 100 100 99 94 91 83 72 56 51 59 70 87 98 100 92 72 54 48 66 49 48
95 75 41 52 57 44 60 65 44 67 64 91 67 100 94 94 96 100 96 98 99 100 100 100 100 100 99 95 95 92 96 99 98 71 66 63 75 84 72 70 64 57 53 50
74 96 57 59 55 62 57 65 78 83 71 83 90 86 97 95 100 100 99 98 100 100 100 100 100 100 100 100 98 96 95 99 98 99 89 64 58 56 68 67 59 59 62 57
83 85 69 63 60 66 77 85 75 61 70 96 96 97 100 99 100 99 100 100 99 100 100 100 100 100 100 99 96 95 96 98 99 99 98 90 62 54 47 58 62 56 63 61
81 99 98 87 79 76 83 67 63 76 73 91 93 98 100 100 100 97 98 99 98 99 100 100 100 100 100 100 100 100 97 98 99 100 100 98 99 89 92 64 58 62 60 64
76 97 93 77 80 67 80 75 87 87 95 98 97 99 100 100 99 99 99 99 99 98 100 99 99 100 99 99 98 99 98 99 100 100 100 100 100 100 100 100 79 67 67 66
83 100 99 96 99 99 100 72 82 79 93 96 97 97 95 94 93 93 99 99 99 100 100 100 99 99 99 100 98 99 100 100 100 100 100 100 99 99 100 100 100 95 78 75
87 98 97 96 100 89 98 90 99 92 96 94 97 94 96 94 94 97 100 99 99 100 100 99 100 100 100 98 98 99 100 100 100 100 99 99 100 99 100 100 100 100 99 82
70 98 100 98 80 78 95 97 98 94 87 93 78 92 94 97 98 95 99 99 99 100 100 100 100 100 99 100 100 100 100 100 100 97 99 100 100 99 100 99 100 100 100 100
77 79 94 97 87 84 83 98 96 93 96 90 84 93 93 92 92 97 98 98 100 100 99 100 100 100 100 99 100 99 99 97 96 99 100 95 98 99 99 99 100 100 100 100
83 81 77 97 89 88 98 91 92 91 95 95 88 93 94 94 98 97 98 100 100 98 90 91 98 99 99 98 94 95 93 95 94 94 98 99 99 100 100 92 95 99 98 100
67 81 98 95 90 96 87 85 92 89 99 97 96 95 97 99 98 97 97 97 99 94 90 86 94 98 99 98 96 97 89 89 93 97 97 99 99 100 100 99 99 99 96 93
66 69 88 93 82 93 94 86 96 78 92 96 91 91 87 97 93 95 91 90 96 100 93 85 88 98 97 97 96 90 95 93 92 97 100 100 99 100 100 99 99 100 99 100
85 87 92 89 92 89 88 97 100 90 95 99 96 92 87 90 98 93 86 90 93 92 87 85 91 98 99 96 93 92 92 100 98 90 93 93 95 99 100 100 99 99 100 100
89 92 92 85 81 90 97 78 85 98 99 98 97 95 99 99 84 84 86 88 88 86 86 85 88 92 96 95 92 91 94 98 100 88 84 87 93 96 98 99 100 100 99 99
92 86 90 93 93 98 99 100 99 92 77 85 97 98 81 82 84 85 89 90 89 86 88 88 89 88 89 91 92 92 96 95 93 87 87 86 82 84 90 91 92 94 96 98
84 77 93 92 98 96 99 83 89 71 73 78 85 83 77 82 85 88 90 91 87 84 84 85 87 88 89 88 88 90 90 92 94 92 89 89 86 85 83 86 88 90 92 95
90 83 93 95 96 98 99 86 74 69 68 70 74 76 79 79 86 86 87 86 83 80 77 78 82 90 92 90 86 84 85 82 86 89 93 91 89 88 90 91 92 96 100 100
84 96 98 97 86 90 99 83 76 76 72 71 71 76 81 80 81 81 81 86 82 76 71 71 75 77 82 84 83 82 83 84 85 85 88 92 93 91 89 93 96 97 100 99

GFSCGP_850_rhum_120.txt.gz
RH
30 40 46 38 38 34 39 45 49 39 34 39 43 38 30 25 23 20 29 26 25 28 22 21 20 20 18 21 43 50 53 46 50 56 60 58 54 50 49 42 41 40 39 48
62 59 42 40 39 38 39 42 43 35 33 36 42 47 33 26 22 19 20 19 26 27 27 28 25 22 19 18 17 26 52 50 40 42 36 51 53 57 58 54 55 53 51 56
66 44 46 49 54 56 51 52 47 40 31 31 46 57 40 26 22 17 15 32 51 51 56 56 56 43 28 24 22 19 18 17 25 33 44 74 78 77 72 65 63 67 61 57
67 55 56 67 75 63 73 44 44 46 48 74 57 85 50 31 29 83 86 92 97 97 92 80 81 80 53 47 44 36 25 19 22 40 47 59 65 66 52 58 63 68 68 51
64 58 62 62 53 56 59 51 52 55 56 58 66 84 43 41 87 87 82 96 100 100 100 97 90 94 59 66 78 64 57 45 42 73 95 56 63 64 57 60 57 58 56 64
58 46 52 56 49 51 50 58 59 61 68 84 59 59 63 98 99 94 92 96 99 100 100 100 100 99 93 90 92 86 99 100 99 89 94 98 99 88 76 72 66 65 59 56
72 62 58 53 66 59 59 69 86 87 94 80 46 50 96 100 98 98 96 98 100 100 100 99 99 100 100 98 90 79 88 98 100 99 99 99 100 100 78 74 72 68 64 58
98 82 45 50 64 62 61 67 77 74 74 89 62 83 100 100 98 100 100 100 100 100 100 100 100 99 100 100 99 89 87 89 86 96 98 100 99 100 97 84 80 73 64 54
92 87 48 52 48 49 46 69 44 59 64 75 85 99 82 82 92 99 98 99 99 100 100 100 100 100 100 100 100 100 98 96 90 88 85 84 95 98 98 98 99 73 67 58
88 96 61 58 60 59 52 58 81 81 92 83 94 95 94 92 97 97 97 98 99 99 100 100 100 100 100 100 100 100 100 99 99 96 96 92 81 78 77 89 90 81 75 64
93 100 73 66 77 68 82 82 82 75 75 96 95 96 100 98 100 98 98 99 99 99 99 99 100 100 100 100 100 100 99 100 100 100 98 98 98 95 76 68 64 83 76 65
70 99 98 71 58 70 86 72 71 86 68 92 94 98 100 100 99 98 98 99 98 99 98 98 100 99 100 100 100 100 99 99 100 100 100 100 98 98 99 100 99 100 100 88
89 99 97 75 74 73 84 76 82 79 84 96 95 99 99 97 96 99 98 99 99 97 97 98 99 100 100 100 100 100 100 99 99 99 100 100 99 99 100 100 99 98 100 99
91 99 94 96 96 99 97 84 78 74 93 97 96 96 96 94 94 96 98 98 98 98 98 99 99 100 99 100 98 98 98 98 97 99 99 99 99 100 100 99 98 100 99 100
90 99 100 96 96 95 98 99 85 90 96 92 97 94 96 96 96 98 98 97 97 99 97 98 100 100 100 98 98 96 97 97 98 98 98 99 100 99 100 100 99 99 100 100
76 99 100 96 100 91 94 95 96 93 93 94 91 93 96 98 97 97 98 98 97 100 100 100 99 100 98 100 99 97 95 96 97 95 99 100 100 99 99 100 99 99 100 100
90 96 96 93 85 60 79 97 96 91 89 85 84 94 96 94 93 97 98 98 100 100 97 100 100 100 98 99 100 95 95 96 94 99 99 96 98 100 99 97 95 96 98 99
88 100 89 96 95 88 96 98 96 89 94 89 89 94 96 96 99 96 97 97 100 97 93 98 100 100 100 100 100 100 88 88 91 94 99 99 99 98 97 98 99 98 98 97
74 100 98 91 88 95 91 86 92 92 95 92 92 91 96 98 97 98 97 99 100 96 93 99 100 100 99 95 92 93 87 84 84 91 97 98 97 99 99 96 98 99 99 99
68 95 98 89 82 93 91 79 84 91 92 90 91 90 91 95 92 97 97 91 88 86 91 93 95 96 94 96 90 86 96 95 87 85 91 95 95 95 99 100 100 100 100 100
81 85 94 90 87 89 86 94 96 92 98 95 90 93 90 93 99 98 90 85 84 85 88 89 90 92 93 90 88 87 88 94 94 88 85 83 88 96 99 100 98 99 99 99
89 93 93 92 80 91 96 86 86 98 100 99 94 100 92 90 89 88 87 85 82 85 86 90 87 85 84 82 81 87 89 96 88 85 82 82 83 83 87 90 92 94 92 92
92 84 87 92 92 98 98 100 96 85 93 100 96 86 82 85 89 90 89 85 82 81 83 85 83 82 79 78 79 79 85 86 86 84 82 79 78 82 82 80 83 84 86 89
89 76 89 90 96 94 89 90 76 79 86 96 91 79 76 78 84 85 83 81 76 74 75 78 78 79 81 81 81 81 78 76 77 78 79 80 79 80 82 84 88 87 88 91
91 84 93 95 96 99 84 80 72 74 78 81 80 78 78 78 81 84 84 83 77 71 74 75 76 82 83 82 80 76 72 72 77 79 80 82 85 86 87 90 91 96 100 100
86 89 93 95 83 86 90 76 71 76 76 74 74 80 84 81 79 81 82 84 73 60 61 63 65 68 73 77 76 76 73 73 74 76 81 87 86 88 86 86 91 94 96 98

GFSCGP_850_rhum_123.txt.gz
RH
35 30 29 29 32 26 30 34 35 29 25 29 31 30 28 25 26 26 28 27 24 18 21 28 22 26 23 20 19 47 68 66 62 62 53 48 45 44 42 39 34 33 36 37
46 43 31 33 34 37 39 44 43 34 29 31 31 33 27 24 26 31 31 26 23 22 23 51 44 38 32 25 21 42 61 71 69 68 61 64 59 59 57 54 47 41 37 34
45 34 37 40 40 45 40 52 50 48 35 32 38 34 33 30 30 60 80 84 90 92 88 77 75 75 56 45 36 26 39 61 71 68 71 63 74 76 71 62 60 55 50 45
54 47 50 51 53 48 53 45 45 46 49 56 38 50 38 44 50 71 83 89 97 100 100 100 96 96 91 72 60 45 25 28 50 74 66 70 54 52 51 46 61 66 64 60
50 55 59 61 51 52 55 44 46 50 54 56 38 57 40 58 71 96 94 94 98 100 100 100 100 100 100 100 98 83 56 31 24 26 93 99 99 83 60 45 52 57 59 63
54 49 48 48 46 43 42 52 52 57 62 73 52 70 62 92 100 97 98 100 100 100 100 100 100 100 100 100 100 100 84 60 49 43 60 99 99 99 92 74 73 65 66 66
64 58 53 49 57 55 54 63 57 61 84 58 42 55 97 98 100 100 100 99 99 99 100 100 99 100 100 100 100 100 100 99 95 93 99 96 99 99 99 100 98 92 80 68
78 64 46 48 47 41 62 54 48 54 47 44 36 88 98 100 98 99 100 99 98 99 100 100 100 100 100 100 100 100 100 100 100 100 99 99 99 99 99 99 100 99 77 58
85 79 52 45 46 47 51 57 40 52 47 63 73 98 100 83 94 98 98 98 99 98 98 100 100 100 100 100 100 100 99 99 99 91 99 98 100 100 99 98 99 100 98 88
86 96 59 54 55 53 54 46 71 63 82 89 86 93 91 85 94 96 96 97 98 98 98 99 100 100 100 100 100 100 99 100 99 58 67 88 74 76 90 98 99 98 99 99
80 98 66 63 67 64 75 72 64 63 75 86 82 93 97 95 96 96 97 98 98 98 98 97 99 100 100 100 100 100 100 99 100 100 99 100 100 99 99 98 92 84 87 100
71 100 93 77 55 56 68 71 64 79 68 78 89 94 99 98 97 96 97 98 98 97 97 97 98 98 98 100 100 100 99 96 98 98 98 99 100 100 100 99 99 99 100 99
89 90 82 56 61 52 79 79 93 71 76 93 93 93 95 94 95 98 96 98 97 97 96 97 97 95 96 98 100 100 100 100 100 100 100 100 100 99 100 100 100 100 99 99
92 87 78 89 94 93 92 83 72 84 83 90 93 92 92 91 92 95 97 98 98 97 98 98 96 97 98 98 99 99 99 99 97 95 96 98 99 99 99 100 100 100 100 100
88 99 100 95 95 88 94 93 88 87 96 92 94 90 94 93 93 96 98 98 90 94 100 100 96 98 98 99 100 98 99 98 97 94 95 95 97 97 99 100 99 100 100 100
79 92 100 96 97 90 95 95 96 84 83 91 91 92 94 97 97 96 97 98 96 98 100 100 96 97 100 100 100 93 95 98 99 98 98 96 97 96 95 96 95 98 98 100
87 99 89 90 91 82 78 96 94 85 85 86 86 92 93 91 91 95 97 98 99 100 100 100 100 100 100 100 100 97 88 92 91 94 96 97 97 96 97 98 98 96 99 99
81 91 93 86 96 89 96 98 92 90 92 83 83 88 90 93 98 98 100 100 100 100 100 100 100 98 96 93 92 87 80 78 82 88 89 90 92 94 98 100 100 99 99 98
77 89 94 88 83 91 94 87 91 92 92 86 90 89 90 99 96 97 100 99 100 100 100 100 99 97 91 84 86 81 77 80 80 79 82 90 90 89 92 94 98 98 99 99
75 81 98 79 78 86 89 79 84 82 87 85 79 85 88 93 82 89 98 86 90 95 94 89 86 84 81 84 84 81 82 81 79 78 80 78 82 88 92 92 94 96 96 96
70 76 92 85 83 84 82 89 91 92 91 87 87 85 82 85 94 100 89 84 88 90 88 84 82 83 79 74 76 73 78 85 84 77 73 71 74 76 81 84 85 87 86 85
77 82 86 92 88 90 89 95 83 95 100 94 94 89 94 100 100 88 81 80 81 82 83 83 81 78 74 71 72 74 81 91 81 77 74 71 74 75 76 76 76 78 78 79
81 73 78 84 87 95 99 97 92 92 97 99 91 92 93 98 100 94 87 78 76 77 80 81 76 75 69 66 63 63 73 75 72 67 69 74 74 75 77 74 75 75 78 81
84 76 79 84 91 89 91 81 83 90 99 97 83 83 84 93 93 87 82 74 71 73 74 72 68 67 71 72 69 67 63 69 75 69 71 72 75 75 73 75 80 82 84 87
84 77 82 90 93 90 91 76 78 85 91 83 81 82 84 84 89 84 81 69 62 63 58 54 54 58 62 63 61 58 54 56 65 73 72 70 76 76 79 83 82 86 90 93
81 82 84 85 84 82 87 74 75 79 76 76 73 76 78 75 76 77 72 64 56 52 51 49 48 46 48 51 52 51 49 53 54 60 64 69 72 74 75 76 83 87 86 87

GFSCGP_850_rhum_126.txt.gz
RH
26 21 18 17 18 19 20 20 20 16 17 21 20 18 14 14 15 17 20 21 24 25 23 18 18 21 61 58 57 32 40 72 93 93 86 82 84 55 46 42 33 34 34 39
30 24 22 23 24 25 24 24 21 18 18 22 20 19 16 14 21 41 50 49 55 60 58 53 56 69 79 76 55 49 55 57 85 90 81 68 72 76 73 80 57 35 34 35
31 24 28 30 29 30 27 28 26 26 24 20 21 22 11 17 36 60 65 66 70 83 88 81 74 75 87 90 84 83 83 75 81 94 89 80 80 86 90 90 73 54 50 48
35 31 34 33 33 30 33 26 30 32 30 28 22 36 22 35 34 41 60 76 85 95 98 99 98 96 100 100 94 95 94 99 98 99 98 94 88 93 91 92 87 91 62 60
37 36 39 40 34 32 31 35 35 33 36 34 22 28 21 42 54 60 60 72 87 98 99 100 100 100 99 100 100 100 98 100 100 100 96 99 96 93 93 97 90 73 62 70
38 36 39 34 33 34 32 38 36 35 37 43 26 37 48 84 98 83 70 79 89 100 98 99 100 100 100 100 100 100 98 100 91 100 95 66 94 100 100 96 98 99 92 78
40 40 36 38 39 38 40 44 42 41 54 34 22 30 88 82 94 97 96 98 100 100 98 98 99 99 100 100 100 100 100 100 100 99 99 98 100 99 99 98 98 98 98 98
51 49 38 34 37 37 41 40 37 46 33 35 28 61 90 98 95 98 99 99 99 99 97 98 98 100 99 100 100 100 100 100 100 100 100 99 100 100 99 99 98 100 99 98
72 52 35 34 33 38 52 52 30 46 43 53 49 99 97 58 76 97 95 96 98 98 97 96 98 100 100 100 100 100 100 100 99 100 100 100 99 99 100 99 100 100 97 97
58 84 44 44 41 38 45 46 65 56 66 60 59 83 79 79 90 96 94 97 98 97 96 96 98 98 100 100 100 100 100 99 97 98 98 96 97 97 94 87 95 80 70 80
58 79 52 44 54 63 79 63 52 47 50 63 62 90 91 95 95 95 95 98 98 97 97 97 97 97 99 100 100 100 100 100 100 99 96 99 92 93 90 70 59 56 82 52
57 89 88 59 39 48 50 57 45 64 60 52 82 91 90 97 94 94 95 98 98 96 97 97 96 97 97 100 100 100 100 100 100 100 100 100 92 96 95 86 85 79 84 99
72 85 56 43 53 37 49 68 72 72 67 83 90 92 90 82 90 95 95 98 98 98 97 96 95 96 97 98 99 100 100 100 100 99 97 99 98 99 98 98 98 98 100 100
81 64 75 73 82 67 72 64 55 66 94 92 87 92 86 86 86 90 94 98 98 98 97 98 97 97 97 97 97 97 99 97 93 90 94 99 97 99 100 100 100 100 100 100
72 90 86 72 80 74 95 92 86 86 93 89 93 85 90 90 91 94 97 98 97 96 95 100 100 100 97 96 97 97 99 100 99 99 100 100 100 99 95 93 96 98 98 99
68 81 99 100 89 79 94 95 98 85 80 82 75 88 89 94 96 94 96 96 96 96 96 100 100 100 99 100 100 98 99 98 100 98 100 100 100 96 96 96 96 93 92 91
69 77 73 92 95 83 88 95 96 81 74 70 70 83 86 89 91 94 95 95 96 99 100 100 100 100 100 100 100 100 100 99 94 92 91 92 94 94 94 90 88 88 90 91
60 64 70 78 91 89 99 95 84 83 81 69 78 84 84 91 96 97 100 100 100 100 100 100 99 97 100 100 100 100 100 98 80 78 83 89 91 89 89 86 86 88 87 85
56 68 76 79 72 88 91 75 88 92 86 71 75 79 83 94 78 90 100 100 100 100 100 100 100 98 100 100 100 100 95 90 75 77 75 74 78 81 82 84 83 83 82 81
55 61 87 68 75 80 74 71 82 69 81 68 68 75 82 88 81 82 100 100 100 100 95 94 94 97 98 100 100 99 90 84 83 76 72 73 73 74 76 76 77 78 77 78
55 58 76 70 74 72 65 74 82 91 94 72 65 69 68 72 92 100 100 100 99 98 90 88 87 89 91 95 98 99 99 89 83 82 68 63 62 65 68 68 68 69 70 70
55 64 71 72 80 83 77 88 80 87 77 71 68 72 80 90 93 99 98 97 92 92 82 81 80 84 88 89 89 95 99 93 98 76 87 75 63 60 61 61 61 61 62 66
66 58 61 79 83 81 88 90 82 77 79 74 73 75 80 86 94 95 84 80 78 73 74 76 74 76 82 76 78 82 86 83 84 81 70 88 59 67 70 55 58 70 72 89
66 59 67 74 82 78 83 85 87 87 86 79 78 77 76 75 79 81 73 66 65 65 64 66 66 69 74 74 62 64 86 81 76 77 84 87 87 87 94 95 85 77 70 81
59 60 72 85 82 80 75 81 94 93 87 83 81 80 80 78 77 76 67 62 60 62 62 59 60 64 72 70 52 47 75 82 73 74 79 82 87 85 85 97 89 91 88 88
60 68 75 80 77 73 78 81 87 85 82 82 81 81 79 76 74 69 63 60 60 62 61 55 53 55 60 60 40 35 61 72 82 76 83 85 92 93 91 92 94 97 74 75

GFSCGP_850_rhum_129.txt.gz
RH
17 18 14 13 15 15 14 14 13 10 9 13 15 14 11 10 13 29 32 38 41 44 53 56 57 56 50 52 63 64 62 46 38 74 83 92 85 83 81 74 79 82 94 35
21 21 15 17 18 19 18 18 17 13 11 14 14 14 11 10 29 34 37 40 46 55 67 69 74 77 72 67 64 72 70 51 38 64 75 86 81 81 70 69 67 38 58 44
21 16 21 23 20 20 18 19 20 19 16 15 15 13 10 11 28 33 39 46 50 58 70 88 89 94 97 94 93 90 85 76 44 61 77 72 77 74 77 77 77 72 55 61
22 20 24 23 21 21 26 21 23 22 22 20 14 22 20 27 31 38 47 52 63 72 77 93 100 99 99 100 98 98 99 98 96 89 85 70 79 72 70 72 72 76 87 93
27 25 26 26 23 24 26 26 27 26 26 24 15 16 33 36 52 55 59 63 73 82 84 94 100 99 99 98 100 99 99 100 97 93 100 95 77 70 66 70 73 84 87 96
26 24 25 22 23 26 25 30 28 27 26 32 17 22 40 78 87 74 71 71 81 89 97 94 100 99 99 100 99 100 100 99 100 99 100 83 92 83 78 85 84 95 99 97
28 28 23 26 29 27 32 36 44 35 36 32 13 19 76 71 72 73 83 82 84 89 99 99 100 96 97 100 98 100 99 100 100 100 100 100 100 100 98 79 86 96 96 99
30 42 27 25 27 31 31 35 41 38 27 26 21 38 90 57 67 71 86 82 90 96 99 99 100 98 98 99 100 100 99 100 100 100 100 100 99 92 98 77 76 99 100 100
42 33 23 24 25 30 43 43 30 39 36 44 44 87 61 48 62 90 85 85 97 95 97 98 99 96 97 97 100 100 100 100 100 100 100 98 98 100 99 92 100 96 98 100
44 61 33 28 32 30 35 35 55 46 59 55 34 77 76 75 83 81 94 96 97 93 95 96 96 96 97 96 98 100 100 99 100 100 100 100 98 100 100 100 98 100 99 99
46 55 43 36 38 40 49 53 53 40 43 60 58 84 78 91 86 92 92 97 96 95 96 97 96 96 96 97 100 100 100 100 100 100 100 100 98 99 98 97 97 100 96 86
46 82 78 43 30 33 38 46 57 58 51 55 69 91 76 89 79 79 86 96 99 96 97 97 97 97 96 97 97 100 100 100 100 100 99 99 99 100 100 100 98 98 99 100
52 79 61 53 50 32 39 42 49 61 93 81 90 92 70 68 73 80 89 96 99 98 96 96 97 97 96 97 96 97 99 100 100 100 99 100 98 100 100 100 100 100 100 100
64 49 62 61 74 49 59 53 52 54 86 99 94 94 83 73 74 76 88 96 99 96 98 98 96 97 97 96 96 97 97 98 100 100 100 100 99 94 92 96 97 98 99 100
64 75 77 54 56 58 82 78 82 83 86 92 90 84 88 82 81 85 91 97 96 93 96 97 100 100 100 98 97 97 98 98 99 96 100 98 94 91 84 88 92 88 87 94
59 94 94 98 74 61 88 91 93 73 73 75 69 88 71 78 80 86 94 95 92 86 90 100 100 100 100 100 99 93 96 89 93 91 99 96 88 88 84 97 88 83 84 86
63 71 70 79 85 68 77 92 85 69 60 60 70 76 73 74 78 88 89 90 89 91 95 100 100 100 100 100 100 98 100 86 82 96 92 95 94 94 92 94 86 84 87 83
48 52 56 83 71 85 97 62 59 70 69 63 74 76 68 76 84 87 94 98 98 92 94 98 95 100 100 100 100 100 89 85 72 78 76 80 90 89 83 77 76 77 77 77
42 47 58 67 68 84 84 70 68 74 79 63 70 75 76 79 77 86 94 100 100 91 85 85 86 84 100 99 95 99 94 82 76 63 67 72 69 70 73 73 77 83 73 72
42 47 65 56 62 75 65 51 52 50 78 55 64 70 72 74 88 86 99 100 100 84 72 69 68 69 83 92 92 88 98 98 100 93 72 58 51 51 55 57 58 70 76 73
58 48 62 61 60 70 50 58 66 84 90 60 59 66 70 73 92 100 99 96 97 73 66 62 61 62 64 68 76 84 78 84 96 98 89 68 76 60 47 46 46 50 63 59
43 50 64 56 61 81 58 69 79 78 64 59 60 66 77 85 85 91 95 85 80 64 54 52 54 59 62 61 64 68 69 63 72 84 86 87 90 98 82 55 52 57 59 62
54 45 62 67 84 78 75 80 70 65 62 60 62 66 71 74 80 84 75 62 53 47 46 46 49 55 59 60 61 63 65 58 60 67 74 74 77 79 90 89 58 40 51 77
51 46 58 71 77 71 75 82 74 69 67 66 66 68 68 66 65 62 54 49 41 40 40 41 43 48 54 59 65 67 66 60 54 58 66 70 71 70 73 91 94 94 65 75
46 48 63 80 71 69 73 91 91 78 72 69 67 65 65 65 59 50 47 43 41 41 41 40 42 46 52 58 61 68 68 64 60 60 67 77 77 75 73 82 85 97 87 69
46 61 72 77 69 66 68 80 83 78 71 69 68 66 63 61 54 46 43 42 41 44 40 36 38 44 49 56 56 48 67 71 76 74 73 84 85 84 84 84 84 94 94 92